<?xml version="1.0" encoding="UTF-8" standalone="no" ?>
<gpx xmlns="http://www.topografix.com/GPX/1/1" xmlns:xsi="http://www.w3.org/2001/XMLSchema-instance" xsi:schemaLocation="http://www.topografix.com/GPX/1/1 http://www.topografix.com/GPX/1/1/gpx.xsd" version="1.1" creator="VisuGPX - https://www.visugpx.com">
  <metadata>
    <name>Picarreau,Bonnefontaine</name>
  </metadata>
  <trk>
    <name><![CDATA[Picarreau,Bonnefontaine_1]]></name>
    <trkseg>
      <trkpt lat="46.75388" lon="5.74595">
        <ele>547.3</ele>
        <time>2021-03-01T12:25:59Z</time>
      </trkpt>
      <trkpt lat="46.75386" lon="5.74589">
        <ele>546.7</ele>
        <time>2021-03-01T12:26:10Z</time>
      </trkpt>
      <trkpt lat="46.75389" lon="5.74583">
        <ele>549.1</ele>
        <time>2021-03-01T12:27:16Z</time>
      </trkpt>
      <trkpt lat="46.75392" lon="5.74577">
        <ele>550.7</ele>
        <time>2021-03-01T12:27:22Z</time>
      </trkpt>
      <trkpt lat="46.75394" lon="5.74572">
        <ele>551.4</ele>
        <time>2021-03-01T12:27:27Z</time>
      </trkpt>
      <trkpt lat="46.75397" lon="5.74566">
        <ele>551.5</ele>
        <time>2021-03-01T12:27:31Z</time>
      </trkpt>
      <trkpt lat="46.75401" lon="5.74562">
        <ele>551.9</ele>
        <time>2021-03-01T12:27:37Z</time>
      </trkpt>
      <trkpt lat="46.75406" lon="5.7456">
        <ele>551.8</ele>
        <time>2021-03-01T12:27:53Z</time>
      </trkpt>
      <trkpt lat="46.7541" lon="5.74564">
        <ele>551.8</ele>
        <time>2021-03-01T12:27:59Z</time>
      </trkpt>
      <trkpt lat="46.75413" lon="5.74569">
        <ele>551.4</ele>
        <time>2021-03-01T12:28:04Z</time>
      </trkpt>
      <trkpt lat="46.75417" lon="5.74574">
        <ele>550.1</ele>
        <time>2021-03-01T12:28:10Z</time>
      </trkpt>
      <trkpt lat="46.75421" lon="5.74578">
        <ele>549.7</ele>
        <time>2021-03-01T12:28:14Z</time>
      </trkpt>
      <trkpt lat="46.75425" lon="5.74581">
        <ele>549.1</ele>
        <time>2021-03-01T12:28:19Z</time>
      </trkpt>
      <trkpt lat="46.7543" lon="5.74584">
        <ele>548.2</ele>
        <time>2021-03-01T12:28:25Z</time>
      </trkpt>
      <trkpt lat="46.75434" lon="5.74588">
        <ele>547.9</ele>
        <time>2021-03-01T12:28:29Z</time>
      </trkpt>
      <trkpt lat="46.75438" lon="5.74593">
        <ele>547.7</ele>
        <time>2021-03-01T12:28:33Z</time>
      </trkpt>
      <trkpt lat="46.7544" lon="5.746">
        <ele>547</ele>
        <time>2021-03-01T12:28:38Z</time>
      </trkpt>
      <trkpt lat="46.75442" lon="5.74606">
        <ele>545.6</ele>
        <time>2021-03-01T12:28:43Z</time>
      </trkpt>
      <trkpt lat="46.75446" lon="5.74612">
        <ele>544.4</ele>
        <time>2021-03-01T12:28:48Z</time>
      </trkpt>
      <trkpt lat="46.75449" lon="5.74617">
        <ele>543.1</ele>
        <time>2021-03-01T12:28:53Z</time>
      </trkpt>
      <trkpt lat="46.75451" lon="5.74623">
        <ele>542.2</ele>
        <time>2021-03-01T12:28:57Z</time>
      </trkpt>
      <trkpt lat="46.75454" lon="5.74629">
        <ele>541.5</ele>
        <time>2021-03-01T12:29:02Z</time>
      </trkpt>
      <trkpt lat="46.75457" lon="5.74635">
        <ele>541.3</ele>
        <time>2021-03-01T12:29:06Z</time>
      </trkpt>
      <trkpt lat="46.7546" lon="5.74641">
        <ele>541.4</ele>
        <time>2021-03-01T12:29:11Z</time>
      </trkpt>
      <trkpt lat="46.75463" lon="5.74646">
        <ele>541.3</ele>
        <time>2021-03-01T12:29:16Z</time>
      </trkpt>
      <trkpt lat="46.75467" lon="5.74652">
        <ele>541.1</ele>
        <time>2021-03-01T12:29:21Z</time>
      </trkpt>
      <trkpt lat="46.7547" lon="5.74658">
        <ele>541.1</ele>
        <time>2021-03-01T12:29:26Z</time>
      </trkpt>
      <trkpt lat="46.75474" lon="5.74664">
        <ele>541.1</ele>
        <time>2021-03-01T12:29:31Z</time>
      </trkpt>
      <trkpt lat="46.75477" lon="5.74669">
        <ele>541.2</ele>
        <time>2021-03-01T12:29:36Z</time>
      </trkpt>
      <trkpt lat="46.7548" lon="5.74674">
        <ele>541.4</ele>
        <time>2021-03-01T12:29:40Z</time>
      </trkpt>
      <trkpt lat="46.75483" lon="5.7468">
        <ele>542.3</ele>
        <time>2021-03-01T12:29:44Z</time>
      </trkpt>
      <trkpt lat="46.75487" lon="5.74686">
        <ele>543.4</ele>
        <time>2021-03-01T12:29:48Z</time>
      </trkpt>
      <trkpt lat="46.75489" lon="5.74693">
        <ele>544.1</ele>
        <time>2021-03-01T12:29:52Z</time>
      </trkpt>
      <trkpt lat="46.75491" lon="5.74701">
        <ele>546</ele>
        <time>2021-03-01T12:29:57Z</time>
      </trkpt>
      <trkpt lat="46.75489" lon="5.74707">
        <ele>544.2</ele>
        <time>2021-03-01T12:30:03Z</time>
      </trkpt>
      <trkpt lat="46.75491" lon="5.74714">
        <ele>542.8</ele>
        <time>2021-03-01T12:30:09Z</time>
      </trkpt>
      <trkpt lat="46.75494" lon="5.7472">
        <ele>541.5</ele>
        <time>2021-03-01T12:30:14Z</time>
      </trkpt>
      <trkpt lat="46.75497" lon="5.74725">
        <ele>540.7</ele>
        <time>2021-03-01T12:30:18Z</time>
      </trkpt>
      <trkpt lat="46.75498" lon="5.74732">
        <ele>539.9</ele>
        <time>2021-03-01T12:30:22Z</time>
      </trkpt>
      <trkpt lat="46.75499" lon="5.74739">
        <ele>539</ele>
        <time>2021-03-01T12:30:26Z</time>
      </trkpt>
      <trkpt lat="46.75502" lon="5.74744">
        <ele>538.7</ele>
        <time>2021-03-01T12:30:30Z</time>
      </trkpt>
      <trkpt lat="46.75506" lon="5.7475">
        <ele>539.2</ele>
        <time>2021-03-01T12:30:35Z</time>
      </trkpt>
      <trkpt lat="46.7551" lon="5.74756">
        <ele>540.4</ele>
        <time>2021-03-01T12:30:39Z</time>
      </trkpt>
      <trkpt lat="46.75513" lon="5.74763">
        <ele>542.1</ele>
        <time>2021-03-01T12:30:43Z</time>
      </trkpt>
      <trkpt lat="46.75516" lon="5.74772">
        <ele>544.3</ele>
        <time>2021-03-01T12:30:47Z</time>
      </trkpt>
      <trkpt lat="46.7552" lon="5.74777">
        <ele>546.7</ele>
        <time>2021-03-01T12:30:51Z</time>
      </trkpt>
      <trkpt lat="46.75522" lon="5.74783">
        <ele>548.5</ele>
        <time>2021-03-01T12:30:55Z</time>
      </trkpt>
      <trkpt lat="46.75525" lon="5.7479">
        <ele>549.1</ele>
        <time>2021-03-01T12:30:59Z</time>
      </trkpt>
      <trkpt lat="46.75528" lon="5.74797">
        <ele>549.3</ele>
        <time>2021-03-01T12:31:03Z</time>
      </trkpt>
      <trkpt lat="46.7553" lon="5.74803">
        <ele>549.1</ele>
        <time>2021-03-01T12:31:07Z</time>
      </trkpt>
      <trkpt lat="46.75531" lon="5.7481">
        <ele>548.9</ele>
        <time>2021-03-01T12:31:14Z</time>
      </trkpt>
      <trkpt lat="46.75535" lon="5.74815">
        <ele>548.5</ele>
        <time>2021-03-01T12:31:20Z</time>
      </trkpt>
      <trkpt lat="46.75538" lon="5.74821">
        <ele>548.8</ele>
        <time>2021-03-01T12:31:25Z</time>
      </trkpt>
      <trkpt lat="46.75542" lon="5.74827">
        <ele>549.2</ele>
        <time>2021-03-01T12:31:29Z</time>
      </trkpt>
      <trkpt lat="46.75545" lon="5.74835">
        <ele>550.2</ele>
        <time>2021-03-01T12:31:33Z</time>
      </trkpt>
      <trkpt lat="46.75543" lon="5.74843">
        <ele>551.1</ele>
        <time>2021-03-01T12:31:37Z</time>
      </trkpt>
      <trkpt lat="46.75541" lon="5.74849">
        <ele>552.2</ele>
        <time>2021-03-01T12:31:41Z</time>
      </trkpt>
      <trkpt lat="46.7554" lon="5.74857">
        <ele>553.6</ele>
        <time>2021-03-01T12:31:46Z</time>
      </trkpt>
      <trkpt lat="46.75542" lon="5.74863">
        <ele>555.3</ele>
        <time>2021-03-01T12:31:53Z</time>
      </trkpt>
      <trkpt lat="46.75547" lon="5.74865">
        <ele>555.3</ele>
        <time>2021-03-01T12:32:02Z</time>
      </trkpt>
      <trkpt lat="46.75545" lon="5.74872">
        <ele>554.7</ele>
        <time>2021-03-01T12:32:28Z</time>
      </trkpt>
      <trkpt lat="46.75545" lon="5.74879">
        <ele>553.8</ele>
        <time>2021-03-01T12:32:32Z</time>
      </trkpt>
      <trkpt lat="46.75544" lon="5.74886">
        <ele>552.3</ele>
        <time>2021-03-01T12:32:37Z</time>
      </trkpt>
      <trkpt lat="46.75543" lon="5.74894">
        <ele>550.6</ele>
        <time>2021-03-01T12:32:42Z</time>
      </trkpt>
      <trkpt lat="46.75542" lon="5.74901">
        <ele>549.5</ele>
        <time>2021-03-01T12:32:47Z</time>
      </trkpt>
      <trkpt lat="46.75541" lon="5.74909">
        <ele>548.2</ele>
        <time>2021-03-01T12:32:53Z</time>
      </trkpt>
      <trkpt lat="46.7554" lon="5.74917">
        <ele>547.2</ele>
        <time>2021-03-01T12:32:57Z</time>
      </trkpt>
      <trkpt lat="46.75541" lon="5.74924">
        <ele>546.8</ele>
        <time>2021-03-01T12:33:01Z</time>
      </trkpt>
      <trkpt lat="46.75544" lon="5.7493">
        <ele>546.5</ele>
        <time>2021-03-01T12:33:05Z</time>
      </trkpt>
      <trkpt lat="46.75546" lon="5.74936">
        <ele>546.2</ele>
        <time>2021-03-01T12:33:09Z</time>
      </trkpt>
      <trkpt lat="46.75546" lon="5.74942">
        <ele>545.8</ele>
        <time>2021-03-01T12:33:13Z</time>
      </trkpt>
      <trkpt lat="46.75548" lon="5.74949">
        <ele>545.4</ele>
        <time>2021-03-01T12:33:17Z</time>
      </trkpt>
      <trkpt lat="46.75549" lon="5.74957">
        <ele>544.9</ele>
        <time>2021-03-01T12:33:21Z</time>
      </trkpt>
      <trkpt lat="46.7555" lon="5.74964">
        <ele>544.7</ele>
        <time>2021-03-01T12:33:25Z</time>
      </trkpt>
      <trkpt lat="46.75551" lon="5.74972">
        <ele>544.4</ele>
        <time>2021-03-01T12:33:29Z</time>
      </trkpt>
      <trkpt lat="46.75551" lon="5.74979">
        <ele>543.7</ele>
        <time>2021-03-01T12:33:33Z</time>
      </trkpt>
      <trkpt lat="46.75552" lon="5.74987">
        <ele>542.9</ele>
        <time>2021-03-01T12:33:38Z</time>
      </trkpt>
      <trkpt lat="46.75554" lon="5.74994">
        <ele>542.3</ele>
        <time>2021-03-01T12:33:43Z</time>
      </trkpt>
      <trkpt lat="46.75557" lon="5.75">
        <ele>541.6</ele>
        <time>2021-03-01T12:33:47Z</time>
      </trkpt>
      <trkpt lat="46.75561" lon="5.75005">
        <ele>540.6</ele>
        <time>2021-03-01T12:33:52Z</time>
      </trkpt>
      <trkpt lat="46.75565" lon="5.7501">
        <ele>540</ele>
        <time>2021-03-01T12:33:58Z</time>
      </trkpt>
      <trkpt lat="46.75569" lon="5.75014">
        <ele>539.9</ele>
        <time>2021-03-01T12:34:04Z</time>
      </trkpt>
      <trkpt lat="46.75572" lon="5.75018">
        <ele>540.4</ele>
        <time>2021-03-01T12:34:17Z</time>
      </trkpt>
      <trkpt lat="46.75574" lon="5.75025">
        <ele>540.6</ele>
        <time>2021-03-01T12:34:45Z</time>
      </trkpt>
      <trkpt lat="46.75568" lon="5.75021">
        <ele>539.9</ele>
        <time>2021-03-01T12:35:02Z</time>
      </trkpt>
      <trkpt lat="46.7556" lon="5.75018">
        <ele>539.7</ele>
        <time>2021-03-01T12:35:06Z</time>
      </trkpt>
      <trkpt lat="46.75564" lon="5.75024">
        <ele>539.8</ele>
        <time>2021-03-01T12:35:11Z</time>
      </trkpt>
      <trkpt lat="46.75572" lon="5.75028">
        <ele>540.2</ele>
        <time>2021-03-01T12:35:15Z</time>
      </trkpt>
      <trkpt lat="46.75577" lon="5.75029">
        <ele>540.2</ele>
        <time>2021-03-01T12:35:19Z</time>
      </trkpt>
      <trkpt lat="46.75573" lon="5.75026">
        <ele>540.6</ele>
        <time>2021-03-01T12:35:32Z</time>
      </trkpt>
      <trkpt lat="46.75568" lon="5.75027">
        <ele>544.6</ele>
        <time>2021-03-01T12:36:00Z</time>
      </trkpt>
      <trkpt lat="46.75564" lon="5.7503">
        <ele>544.8</ele>
        <time>2021-03-01T12:36:04Z</time>
      </trkpt>
      <trkpt lat="46.75561" lon="5.75035">
        <ele>546</ele>
        <time>2021-03-01T12:36:20Z</time>
      </trkpt>
      <trkpt lat="46.75556" lon="5.75039">
        <ele>546</ele>
        <time>2021-03-01T12:36:24Z</time>
      </trkpt>
      <trkpt lat="46.7555" lon="5.75042">
        <ele>545.5</ele>
        <time>2021-03-01T12:36:28Z</time>
      </trkpt>
      <trkpt lat="46.75547" lon="5.75047">
        <ele>544.8</ele>
        <time>2021-03-01T12:36:32Z</time>
      </trkpt>
      <trkpt lat="46.75544" lon="5.75053">
        <ele>544.6</ele>
        <time>2021-03-01T12:36:36Z</time>
      </trkpt>
      <trkpt lat="46.7554" lon="5.75057">
        <ele>544.7</ele>
        <time>2021-03-01T12:36:40Z</time>
      </trkpt>
      <trkpt lat="46.75536" lon="5.75062">
        <ele>544.7</ele>
        <time>2021-03-01T12:36:45Z</time>
      </trkpt>
      <trkpt lat="46.75533" lon="5.75068">
        <ele>544.8</ele>
        <time>2021-03-01T12:36:50Z</time>
      </trkpt>
      <trkpt lat="46.75529" lon="5.75073">
        <ele>545.1</ele>
        <time>2021-03-01T12:36:55Z</time>
      </trkpt>
      <trkpt lat="46.75525" lon="5.75076">
        <ele>545.8</ele>
        <time>2021-03-01T12:37:00Z</time>
      </trkpt>
      <trkpt lat="46.7552" lon="5.75081">
        <ele>546</ele>
        <time>2021-03-01T12:37:05Z</time>
      </trkpt>
      <trkpt lat="46.75516" lon="5.75087">
        <ele>546.2</ele>
        <time>2021-03-01T12:37:09Z</time>
      </trkpt>
      <trkpt lat="46.75513" lon="5.75091">
        <ele>546.1</ele>
        <time>2021-03-01T12:37:15Z</time>
      </trkpt>
      <trkpt lat="46.75509" lon="5.75096">
        <ele>546.5</ele>
        <time>2021-03-01T12:37:20Z</time>
      </trkpt>
      <trkpt lat="46.75504" lon="5.751">
        <ele>546.5</ele>
        <time>2021-03-01T12:37:26Z</time>
      </trkpt>
      <trkpt lat="46.755" lon="5.75104">
        <ele>545.4</ele>
        <time>2021-03-01T12:37:31Z</time>
      </trkpt>
      <trkpt lat="46.75497" lon="5.75111">
        <ele>544.6</ele>
        <time>2021-03-01T12:37:35Z</time>
      </trkpt>
      <trkpt lat="46.75494" lon="5.75119">
        <ele>544.3</ele>
        <time>2021-03-01T12:37:39Z</time>
      </trkpt>
      <trkpt lat="46.75491" lon="5.75126">
        <ele>544.3</ele>
        <time>2021-03-01T12:37:43Z</time>
      </trkpt>
      <trkpt lat="46.75488" lon="5.75131">
        <ele>544.5</ele>
        <time>2021-03-01T12:37:47Z</time>
      </trkpt>
      <trkpt lat="46.75484" lon="5.75135">
        <ele>544.9</ele>
        <time>2021-03-01T12:37:51Z</time>
      </trkpt>
      <trkpt lat="46.7548" lon="5.7514">
        <ele>545.3</ele>
        <time>2021-03-01T12:37:56Z</time>
      </trkpt>
      <trkpt lat="46.75476" lon="5.75143">
        <ele>545.2</ele>
        <time>2021-03-01T12:38:01Z</time>
      </trkpt>
      <trkpt lat="46.75472" lon="5.75148">
        <ele>544.8</ele>
        <time>2021-03-01T12:38:06Z</time>
      </trkpt>
      <trkpt lat="46.75469" lon="5.75153">
        <ele>544.3</ele>
        <time>2021-03-01T12:38:11Z</time>
      </trkpt>
      <trkpt lat="46.75465" lon="5.75157">
        <ele>544</ele>
        <time>2021-03-01T12:38:16Z</time>
      </trkpt>
      <trkpt lat="46.75461" lon="5.75161">
        <ele>543.3</ele>
        <time>2021-03-01T12:38:20Z</time>
      </trkpt>
      <trkpt lat="46.75456" lon="5.75166">
        <ele>542.5</ele>
        <time>2021-03-01T12:38:25Z</time>
      </trkpt>
      <trkpt lat="46.75452" lon="5.75171">
        <ele>541.7</ele>
        <time>2021-03-01T12:38:30Z</time>
      </trkpt>
      <trkpt lat="46.75449" lon="5.75177">
        <ele>541.4</ele>
        <time>2021-03-01T12:38:35Z</time>
      </trkpt>
      <trkpt lat="46.75445" lon="5.75182">
        <ele>541.4</ele>
        <time>2021-03-01T12:38:39Z</time>
      </trkpt>
      <trkpt lat="46.75442" lon="5.75188">
        <ele>541.4</ele>
        <time>2021-03-01T12:38:43Z</time>
      </trkpt>
      <trkpt lat="46.75438" lon="5.75192">
        <ele>541.5</ele>
        <time>2021-03-01T12:38:47Z</time>
      </trkpt>
      <trkpt lat="46.75434" lon="5.75196">
        <ele>541.6</ele>
        <time>2021-03-01T12:38:51Z</time>
      </trkpt>
      <trkpt lat="46.7543" lon="5.752">
        <ele>541.5</ele>
        <time>2021-03-01T12:38:55Z</time>
      </trkpt>
      <trkpt lat="46.75426" lon="5.75205">
        <ele>541.4</ele>
        <time>2021-03-01T12:38:59Z</time>
      </trkpt>
      <trkpt lat="46.75422" lon="5.75209">
        <ele>541.3</ele>
        <time>2021-03-01T12:39:04Z</time>
      </trkpt>
      <trkpt lat="46.75419" lon="5.75214">
        <ele>541.5</ele>
        <time>2021-03-01T12:39:09Z</time>
      </trkpt>
      <trkpt lat="46.75415" lon="5.75218">
        <ele>542</ele>
        <time>2021-03-01T12:39:14Z</time>
      </trkpt>
      <trkpt lat="46.75412" lon="5.75224">
        <ele>542.9</ele>
        <time>2021-03-01T12:39:19Z</time>
      </trkpt>
      <trkpt lat="46.75409" lon="5.7523">
        <ele>543.7</ele>
        <time>2021-03-01T12:39:23Z</time>
      </trkpt>
      <trkpt lat="46.75407" lon="5.75235">
        <ele>544.6</ele>
        <time>2021-03-01T12:39:30Z</time>
      </trkpt>
      <trkpt lat="46.75403" lon="5.75241">
        <ele>545.1</ele>
        <time>2021-03-01T12:39:35Z</time>
      </trkpt>
      <trkpt lat="46.754" lon="5.75246">
        <ele>545.2</ele>
        <time>2021-03-01T12:39:39Z</time>
      </trkpt>
      <trkpt lat="46.75397" lon="5.7525">
        <ele>545.8</ele>
        <time>2021-03-01T12:39:43Z</time>
      </trkpt>
      <trkpt lat="46.75393" lon="5.75255">
        <ele>545.8</ele>
        <time>2021-03-01T12:39:47Z</time>
      </trkpt>
      <trkpt lat="46.75389" lon="5.75259">
        <ele>545.6</ele>
        <time>2021-03-01T12:39:52Z</time>
      </trkpt>
      <trkpt lat="46.75384" lon="5.75262">
        <ele>545.2</ele>
        <time>2021-03-01T12:39:57Z</time>
      </trkpt>
      <trkpt lat="46.7538" lon="5.75266">
        <ele>544.7</ele>
        <time>2021-03-01T12:40:01Z</time>
      </trkpt>
      <trkpt lat="46.75377" lon="5.75271">
        <ele>544.5</ele>
        <time>2021-03-01T12:40:05Z</time>
      </trkpt>
      <trkpt lat="46.75373" lon="5.75276">
        <ele>545</ele>
        <time>2021-03-01T12:40:10Z</time>
      </trkpt>
      <trkpt lat="46.75369" lon="5.75281">
        <ele>545.9</ele>
        <time>2021-03-01T12:40:15Z</time>
      </trkpt>
      <trkpt lat="46.75366" lon="5.75286">
        <ele>546.8</ele>
        <time>2021-03-01T12:40:19Z</time>
      </trkpt>
      <trkpt lat="46.75362" lon="5.75291">
        <ele>547.3</ele>
        <time>2021-03-01T12:40:23Z</time>
      </trkpt>
      <trkpt lat="46.75359" lon="5.75296">
        <ele>547.6</ele>
        <time>2021-03-01T12:40:27Z</time>
      </trkpt>
      <trkpt lat="46.75355" lon="5.75302">
        <ele>547.6</ele>
        <time>2021-03-01T12:40:32Z</time>
      </trkpt>
      <trkpt lat="46.75351" lon="5.75306">
        <ele>547.5</ele>
        <time>2021-03-01T12:40:36Z</time>
      </trkpt>
      <trkpt lat="46.75348" lon="5.75311">
        <ele>547.5</ele>
        <time>2021-03-01T12:40:40Z</time>
      </trkpt>
      <trkpt lat="46.75345" lon="5.75316">
        <ele>547.5</ele>
        <time>2021-03-01T12:40:44Z</time>
      </trkpt>
      <trkpt lat="46.75341" lon="5.75321">
        <ele>547.7</ele>
        <time>2021-03-01T12:40:49Z</time>
      </trkpt>
      <trkpt lat="46.75337" lon="5.75327">
        <ele>547.5</ele>
        <time>2021-03-01T12:40:54Z</time>
      </trkpt>
      <trkpt lat="46.75333" lon="5.75331">
        <ele>547.3</ele>
        <time>2021-03-01T12:40:58Z</time>
      </trkpt>
      <trkpt lat="46.75329" lon="5.75335">
        <ele>547.7</ele>
        <time>2021-03-01T12:41:02Z</time>
      </trkpt>
      <trkpt lat="46.75326" lon="5.7534">
        <ele>548.9</ele>
        <time>2021-03-01T12:41:07Z</time>
      </trkpt>
      <trkpt lat="46.75324" lon="5.75346">
        <ele>549.8</ele>
        <time>2021-03-01T12:41:12Z</time>
      </trkpt>
      <trkpt lat="46.7532" lon="5.75352">
        <ele>550.1</ele>
        <time>2021-03-01T12:41:17Z</time>
      </trkpt>
      <trkpt lat="46.75316" lon="5.75356">
        <ele>550.3</ele>
        <time>2021-03-01T12:41:22Z</time>
      </trkpt>
      <trkpt lat="46.75312" lon="5.75362">
        <ele>550.2</ele>
        <time>2021-03-01T12:41:27Z</time>
      </trkpt>
      <trkpt lat="46.75309" lon="5.75367">
        <ele>550</ele>
        <time>2021-03-01T12:41:31Z</time>
      </trkpt>
      <trkpt lat="46.75305" lon="5.75372">
        <ele>550.1</ele>
        <time>2021-03-01T12:41:35Z</time>
      </trkpt>
      <trkpt lat="46.75302" lon="5.75377">
        <ele>550.4</ele>
        <time>2021-03-01T12:41:39Z</time>
      </trkpt>
      <trkpt lat="46.75298" lon="5.75382">
        <ele>550.5</ele>
        <time>2021-03-01T12:41:44Z</time>
      </trkpt>
      <trkpt lat="46.75294" lon="5.75387">
        <ele>550.4</ele>
        <time>2021-03-01T12:41:49Z</time>
      </trkpt>
      <trkpt lat="46.75289" lon="5.7539">
        <ele>550.3</ele>
        <time>2021-03-01T12:41:54Z</time>
      </trkpt>
      <trkpt lat="46.75285" lon="5.75393">
        <ele>550.4</ele>
        <time>2021-03-01T12:41:59Z</time>
      </trkpt>
      <trkpt lat="46.7528" lon="5.75394">
        <ele>550.7</ele>
        <time>2021-03-01T12:42:04Z</time>
      </trkpt>
      <trkpt lat="46.75276" lon="5.75398">
        <ele>551.5</ele>
        <time>2021-03-01T12:42:09Z</time>
      </trkpt>
      <trkpt lat="46.75273" lon="5.75404">
        <ele>552.3</ele>
        <time>2021-03-01T12:42:16Z</time>
      </trkpt>
      <trkpt lat="46.75274" lon="5.75411">
        <ele>552.7</ele>
        <time>2021-03-01T12:42:28Z</time>
      </trkpt>
      <trkpt lat="46.75272" lon="5.75417">
        <ele>553</ele>
        <time>2021-03-01T12:42:33Z</time>
      </trkpt>
      <trkpt lat="46.7527" lon="5.75423">
        <ele>553</ele>
        <time>2021-03-01T12:42:38Z</time>
      </trkpt>
      <trkpt lat="46.75267" lon="5.75429">
        <ele>553.5</ele>
        <time>2021-03-01T12:42:44Z</time>
      </trkpt>
      <trkpt lat="46.75264" lon="5.75435">
        <ele>554.1</ele>
        <time>2021-03-01T12:42:51Z</time>
      </trkpt>
      <trkpt lat="46.75261" lon="5.7544">
        <ele>554.6</ele>
        <time>2021-03-01T12:42:56Z</time>
      </trkpt>
      <trkpt lat="46.75256" lon="5.75443">
        <ele>554.9</ele>
        <time>2021-03-01T12:43:02Z</time>
      </trkpt>
      <trkpt lat="46.75255" lon="5.75449">
        <ele>554.7</ele>
        <time>2021-03-01T12:43:12Z</time>
      </trkpt>
      <trkpt lat="46.7526" lon="5.75457">
        <ele>554.7</ele>
        <time>2021-03-01T12:43:16Z</time>
      </trkpt>
      <trkpt lat="46.75258" lon="5.75463">
        <ele>554.7</ele>
        <time>2021-03-01T12:43:20Z</time>
      </trkpt>
      <trkpt lat="46.75251" lon="5.75465">
        <ele>555</ele>
        <time>2021-03-01T12:43:24Z</time>
      </trkpt>
      <trkpt lat="46.75246" lon="5.75466">
        <ele>555.3</ele>
        <time>2021-03-01T12:43:31Z</time>
      </trkpt>
      <trkpt lat="46.75242" lon="5.75469">
        <ele>559.1</ele>
        <time>2021-03-01T12:43:53Z</time>
      </trkpt>
      <trkpt lat="46.75237" lon="5.7547">
        <ele>560.2</ele>
        <time>2021-03-01T12:44:04Z</time>
      </trkpt>
      <trkpt lat="46.75234" lon="5.75476">
        <ele>559.8</ele>
        <time>2021-03-01T12:44:11Z</time>
      </trkpt>
      <trkpt lat="46.75231" lon="5.75483">
        <ele>558.7</ele>
        <time>2021-03-01T12:44:16Z</time>
      </trkpt>
      <trkpt lat="46.75229" lon="5.7549">
        <ele>559.1</ele>
        <time>2021-03-01T12:44:24Z</time>
      </trkpt>
      <trkpt lat="46.75226" lon="5.75496">
        <ele>560.2</ele>
        <time>2021-03-01T12:44:30Z</time>
      </trkpt>
      <trkpt lat="46.75223" lon="5.755">
        <ele>561</ele>
        <time>2021-03-01T12:44:35Z</time>
      </trkpt>
      <trkpt lat="46.75219" lon="5.75505">
        <ele>561.8</ele>
        <time>2021-03-01T12:44:40Z</time>
      </trkpt>
      <trkpt lat="46.75216" lon="5.75511">
        <ele>562.7</ele>
        <time>2021-03-01T12:44:47Z</time>
      </trkpt>
      <trkpt lat="46.7521" lon="5.75525">
        <ele>561.2</ele>
        <time>2021-03-01T12:44:51Z</time>
      </trkpt>
      <trkpt lat="46.75207" lon="5.7553">
        <ele>560</ele>
        <time>2021-03-01T12:44:55Z</time>
      </trkpt>
      <trkpt lat="46.75203" lon="5.75536">
        <ele>559</ele>
        <time>2021-03-01T12:45:02Z</time>
      </trkpt>
      <trkpt lat="46.75201" lon="5.75542">
        <ele>558.7</ele>
        <time>2021-03-01T12:45:08Z</time>
      </trkpt>
      <trkpt lat="46.75198" lon="5.75547">
        <ele>558.8</ele>
        <time>2021-03-01T12:45:12Z</time>
      </trkpt>
      <trkpt lat="46.75195" lon="5.75553">
        <ele>559</ele>
        <time>2021-03-01T12:45:18Z</time>
      </trkpt>
      <trkpt lat="46.75191" lon="5.75556">
        <ele>559.3</ele>
        <time>2021-03-01T12:45:24Z</time>
      </trkpt>
      <trkpt lat="46.75187" lon="5.75562">
        <ele>559.5</ele>
        <time>2021-03-01T12:45:29Z</time>
      </trkpt>
      <trkpt lat="46.75179" lon="5.75568">
        <ele>559.9</ele>
        <time>2021-03-01T12:45:33Z</time>
      </trkpt>
      <trkpt lat="46.75176" lon="5.75576">
        <ele>561.3</ele>
        <time>2021-03-01T12:45:37Z</time>
      </trkpt>
      <trkpt lat="46.75175" lon="5.75583">
        <ele>562.5</ele>
        <time>2021-03-01T12:45:42Z</time>
      </trkpt>
      <trkpt lat="46.75172" lon="5.75589">
        <ele>563.6</ele>
        <time>2021-03-01T12:45:48Z</time>
      </trkpt>
      <trkpt lat="46.7517" lon="5.75595">
        <ele>564.3</ele>
        <time>2021-03-01T12:45:53Z</time>
      </trkpt>
      <trkpt lat="46.75166" lon="5.75599">
        <ele>565.2</ele>
        <time>2021-03-01T12:46:00Z</time>
      </trkpt>
      <trkpt lat="46.75164" lon="5.75605">
        <ele>566</ele>
        <time>2021-03-01T12:46:07Z</time>
      </trkpt>
      <trkpt lat="46.75161" lon="5.75617">
        <ele>565.7</ele>
        <time>2021-03-01T12:46:11Z</time>
      </trkpt>
      <trkpt lat="46.75158" lon="5.75625">
        <ele>564.4</ele>
        <time>2021-03-01T12:46:15Z</time>
      </trkpt>
      <trkpt lat="46.75151" lon="5.7563">
        <ele>561.8</ele>
        <time>2021-03-01T12:46:19Z</time>
      </trkpt>
      <trkpt lat="46.75147" lon="5.75634">
        <ele>560.4</ele>
        <time>2021-03-01T12:46:24Z</time>
      </trkpt>
      <trkpt lat="46.75142" lon="5.75638">
        <ele>559.4</ele>
        <time>2021-03-01T12:46:33Z</time>
      </trkpt>
      <trkpt lat="46.75139" lon="5.75642">
        <ele>559.2</ele>
        <time>2021-03-01T12:46:38Z</time>
      </trkpt>
      <trkpt lat="46.75135" lon="5.75647">
        <ele>559</ele>
        <time>2021-03-01T12:46:43Z</time>
      </trkpt>
      <trkpt lat="46.75131" lon="5.75651">
        <ele>558.7</ele>
        <time>2021-03-01T12:46:49Z</time>
      </trkpt>
      <trkpt lat="46.75126" lon="5.7566">
        <ele>560</ele>
        <time>2021-03-01T12:46:54Z</time>
      </trkpt>
      <trkpt lat="46.75119" lon="5.75667">
        <ele>561.8</ele>
        <time>2021-03-01T12:46:58Z</time>
      </trkpt>
      <trkpt lat="46.75116" lon="5.75673">
        <ele>563.3</ele>
        <time>2021-03-01T12:47:03Z</time>
      </trkpt>
      <trkpt lat="46.75114" lon="5.75679">
        <ele>564.5</ele>
        <time>2021-03-01T12:47:10Z</time>
      </trkpt>
      <trkpt lat="46.75109" lon="5.75681">
        <ele>565.4</ele>
        <time>2021-03-01T12:47:22Z</time>
      </trkpt>
      <trkpt lat="46.75104" lon="5.75683">
        <ele>565.4</ele>
        <time>2021-03-01T12:47:26Z</time>
      </trkpt>
      <trkpt lat="46.75099" lon="5.75682">
        <ele>565.5</ele>
        <time>2021-03-01T12:47:30Z</time>
      </trkpt>
      <trkpt lat="46.75092" lon="5.75679">
        <ele>564</ele>
        <time>2021-03-01T12:47:34Z</time>
      </trkpt>
      <trkpt lat="46.75087" lon="5.75678">
        <ele>562.5</ele>
        <time>2021-03-01T12:47:38Z</time>
      </trkpt>
      <trkpt lat="46.75083" lon="5.75682">
        <ele>560.7</ele>
        <time>2021-03-01T12:47:46Z</time>
      </trkpt>
      <trkpt lat="46.7508" lon="5.7569">
        <ele>559.6</ele>
        <time>2021-03-01T12:47:51Z</time>
      </trkpt>
      <trkpt lat="46.75077" lon="5.75697">
        <ele>558.7</ele>
        <time>2021-03-01T12:47:55Z</time>
      </trkpt>
      <trkpt lat="46.75075" lon="5.75704">
        <ele>558</ele>
        <time>2021-03-01T12:48:01Z</time>
      </trkpt>
      <trkpt lat="46.75075" lon="5.75711">
        <ele>557.6</ele>
        <time>2021-03-01T12:48:07Z</time>
      </trkpt>
      <trkpt lat="46.75073" lon="5.75718">
        <ele>557.2</ele>
        <time>2021-03-01T12:48:13Z</time>
      </trkpt>
      <trkpt lat="46.75067" lon="5.75727">
        <ele>555.4</ele>
        <time>2021-03-01T12:48:17Z</time>
      </trkpt>
      <trkpt lat="46.75064" lon="5.75733">
        <ele>554.1</ele>
        <time>2021-03-01T12:48:23Z</time>
      </trkpt>
      <trkpt lat="46.75062" lon="5.75739">
        <ele>553.2</ele>
        <time>2021-03-01T12:48:29Z</time>
      </trkpt>
      <trkpt lat="46.75061" lon="5.75746">
        <ele>552.5</ele>
        <time>2021-03-01T12:48:35Z</time>
      </trkpt>
      <trkpt lat="46.75059" lon="5.75754">
        <ele>551.8</ele>
        <time>2021-03-01T12:48:41Z</time>
      </trkpt>
      <trkpt lat="46.75058" lon="5.75761">
        <ele>551.3</ele>
        <time>2021-03-01T12:48:47Z</time>
      </trkpt>
      <trkpt lat="46.75055" lon="5.75767">
        <ele>551.2</ele>
        <time>2021-03-01T12:48:52Z</time>
      </trkpt>
      <trkpt lat="46.75052" lon="5.75772">
        <ele>551.1</ele>
        <time>2021-03-01T12:48:57Z</time>
      </trkpt>
      <trkpt lat="46.75048" lon="5.75776">
        <ele>552.4</ele>
        <time>2021-03-01T12:49:04Z</time>
      </trkpt>
      <trkpt lat="46.75045" lon="5.75781">
        <ele>555.2</ele>
        <time>2021-03-01T12:49:08Z</time>
      </trkpt>
      <trkpt lat="46.75043" lon="5.75787">
        <ele>557</ele>
        <time>2021-03-01T12:49:12Z</time>
      </trkpt>
      <trkpt lat="46.75045" lon="5.75796">
        <ele>557.8</ele>
        <time>2021-03-01T12:49:16Z</time>
      </trkpt>
      <trkpt lat="46.75044" lon="5.75803">
        <ele>558.3</ele>
        <time>2021-03-01T12:49:21Z</time>
      </trkpt>
      <trkpt lat="46.75041" lon="5.75809">
        <ele>559.6</ele>
        <time>2021-03-01T12:49:27Z</time>
      </trkpt>
      <trkpt lat="46.75038" lon="5.75815">
        <ele>561.9</ele>
        <time>2021-03-01T12:49:32Z</time>
      </trkpt>
      <trkpt lat="46.75034" lon="5.7582">
        <ele>563.6</ele>
        <time>2021-03-01T12:49:37Z</time>
      </trkpt>
      <trkpt lat="46.7503" lon="5.75826">
        <ele>563.7</ele>
        <time>2021-03-01T12:49:41Z</time>
      </trkpt>
      <trkpt lat="46.75027" lon="5.75831">
        <ele>563.5</ele>
        <time>2021-03-01T12:49:46Z</time>
      </trkpt>
      <trkpt lat="46.75024" lon="5.75837">
        <ele>563.7</ele>
        <time>2021-03-01T12:49:50Z</time>
      </trkpt>
      <trkpt lat="46.75021" lon="5.75844">
        <ele>563.9</ele>
        <time>2021-03-01T12:49:54Z</time>
      </trkpt>
      <trkpt lat="46.75018" lon="5.75849">
        <ele>564.4</ele>
        <time>2021-03-01T12:49:58Z</time>
      </trkpt>
      <trkpt lat="46.75015" lon="5.75854">
        <ele>565.3</ele>
        <time>2021-03-01T12:50:02Z</time>
      </trkpt>
      <trkpt lat="46.75012" lon="5.75861">
        <ele>566.8</ele>
        <time>2021-03-01T12:50:06Z</time>
      </trkpt>
      <trkpt lat="46.75008" lon="5.75867">
        <ele>567.4</ele>
        <time>2021-03-01T12:50:10Z</time>
      </trkpt>
      <trkpt lat="46.75006" lon="5.75873">
        <ele>568.7</ele>
        <time>2021-03-01T12:50:15Z</time>
      </trkpt>
      <trkpt lat="46.75003" lon="5.7588">
        <ele>568.9</ele>
        <time>2021-03-01T12:50:21Z</time>
      </trkpt>
      <trkpt lat="46.74999" lon="5.75884">
        <ele>567.9</ele>
        <time>2021-03-01T12:50:26Z</time>
      </trkpt>
      <trkpt lat="46.74997" lon="5.75891">
        <ele>567.3</ele>
        <time>2021-03-01T12:50:30Z</time>
      </trkpt>
      <trkpt lat="46.74994" lon="5.75898">
        <ele>566.8</ele>
        <time>2021-03-01T12:50:34Z</time>
      </trkpt>
      <trkpt lat="46.74992" lon="5.75905">
        <ele>566.9</ele>
        <time>2021-03-01T12:50:39Z</time>
      </trkpt>
      <trkpt lat="46.74991" lon="5.75912">
        <ele>569.8</ele>
        <time>2021-03-01T12:50:50Z</time>
      </trkpt>
      <trkpt lat="46.74987" lon="5.75917">
        <ele>572.5</ele>
        <time>2021-03-01T12:50:57Z</time>
      </trkpt>
      <trkpt lat="46.74984" lon="5.75923">
        <ele>572.7</ele>
        <time>2021-03-01T12:51:03Z</time>
      </trkpt>
      <trkpt lat="46.74983" lon="5.75931">
        <ele>572.6</ele>
        <time>2021-03-01T12:51:07Z</time>
      </trkpt>
      <trkpt lat="46.74982" lon="5.75937">
        <ele>572</ele>
        <time>2021-03-01T12:51:11Z</time>
      </trkpt>
      <trkpt lat="46.74977" lon="5.75941">
        <ele>570.5</ele>
        <time>2021-03-01T12:51:15Z</time>
      </trkpt>
      <trkpt lat="46.74974" lon="5.75946">
        <ele>567.8</ele>
        <time>2021-03-01T12:51:19Z</time>
      </trkpt>
      <trkpt lat="46.74971" lon="5.75953">
        <ele>565.8</ele>
        <time>2021-03-01T12:51:23Z</time>
      </trkpt>
      <trkpt lat="46.74969" lon="5.7596">
        <ele>564.6</ele>
        <time>2021-03-01T12:51:27Z</time>
      </trkpt>
      <trkpt lat="46.74966" lon="5.75966">
        <ele>563.5</ele>
        <time>2021-03-01T12:51:33Z</time>
      </trkpt>
      <trkpt lat="46.74961" lon="5.75971">
        <ele>563.9</ele>
        <time>2021-03-01T12:51:37Z</time>
      </trkpt>
      <trkpt lat="46.7496" lon="5.75979">
        <ele>565.3</ele>
        <time>2021-03-01T12:51:41Z</time>
      </trkpt>
      <trkpt lat="46.74959" lon="5.75986">
        <ele>566.1</ele>
        <time>2021-03-01T12:51:45Z</time>
      </trkpt>
      <trkpt lat="46.74963" lon="5.75988">
        <ele>565.9</ele>
        <time>2021-03-01T12:52:01Z</time>
      </trkpt>
      <trkpt lat="46.74966" lon="5.75982">
        <ele>565.5</ele>
        <time>2021-03-01T12:52:05Z</time>
      </trkpt>
      <trkpt lat="46.74968" lon="5.75976">
        <ele>565.8</ele>
        <time>2021-03-01T12:52:09Z</time>
      </trkpt>
      <trkpt lat="46.74969" lon="5.75969">
        <ele>566.3</ele>
        <time>2021-03-01T12:52:13Z</time>
      </trkpt>
      <trkpt lat="46.7497" lon="5.75961">
        <ele>567.1</ele>
        <time>2021-03-01T12:52:17Z</time>
      </trkpt>
      <trkpt lat="46.74974" lon="5.75957">
        <ele>567.6</ele>
        <time>2021-03-01T12:52:22Z</time>
      </trkpt>
      <trkpt lat="46.74978" lon="5.75956">
        <ele>567.8</ele>
        <time>2021-03-01T12:52:30Z</time>
      </trkpt>
      <trkpt lat="46.74983" lon="5.75956">
        <ele>568.6</ele>
        <time>2021-03-01T12:52:53Z</time>
      </trkpt>
      <trkpt lat="46.74988" lon="5.75959">
        <ele>568.3</ele>
        <time>2021-03-01T12:53:00Z</time>
      </trkpt>
      <trkpt lat="46.74991" lon="5.75963">
        <ele>568.1</ele>
        <time>2021-03-01T12:53:08Z</time>
      </trkpt>
      <trkpt lat="46.74993" lon="5.75969">
        <ele>568.1</ele>
        <time>2021-03-01T12:53:15Z</time>
      </trkpt>
      <trkpt lat="46.74995" lon="5.75976">
        <ele>568.5</ele>
        <time>2021-03-01T12:53:21Z</time>
      </trkpt>
      <trkpt lat="46.74996" lon="5.75983">
        <ele>569.1</ele>
        <time>2021-03-01T12:53:26Z</time>
      </trkpt>
      <trkpt lat="46.74995" lon="5.7599">
        <ele>570.1</ele>
        <time>2021-03-01T12:53:31Z</time>
      </trkpt>
      <trkpt lat="46.74993" lon="5.75996">
        <ele>570.8</ele>
        <time>2021-03-01T12:53:39Z</time>
      </trkpt>
      <trkpt lat="46.74993" lon="5.76002">
        <ele>566.5</ele>
        <time>2021-03-01T12:54:33Z</time>
      </trkpt>
      <trkpt lat="46.74994" lon="5.76009">
        <ele>564.9</ele>
        <time>2021-03-01T12:54:43Z</time>
      </trkpt>
      <trkpt lat="46.74998" lon="5.76014">
        <ele>563.9</ele>
        <time>2021-03-01T12:54:49Z</time>
      </trkpt>
      <trkpt lat="46.74999" lon="5.76022">
        <ele>562.9</ele>
        <time>2021-03-01T12:54:57Z</time>
      </trkpt>
      <trkpt lat="46.74998" lon="5.7603">
        <ele>562.4</ele>
        <time>2021-03-01T12:55:02Z</time>
      </trkpt>
      <trkpt lat="46.74998" lon="5.76037">
        <ele>561.8</ele>
        <time>2021-03-01T12:55:07Z</time>
      </trkpt>
      <trkpt lat="46.74998" lon="5.76045">
        <ele>561.3</ele>
        <time>2021-03-01T12:55:12Z</time>
      </trkpt>
      <trkpt lat="46.75" lon="5.76051">
        <ele>560.4</ele>
        <time>2021-03-01T12:55:19Z</time>
      </trkpt>
      <trkpt lat="46.75001" lon="5.76058">
        <ele>559.4</ele>
        <time>2021-03-01T12:55:27Z</time>
      </trkpt>
      <trkpt lat="46.75002" lon="5.76065">
        <ele>558.9</ele>
        <time>2021-03-01T12:55:31Z</time>
      </trkpt>
      <trkpt lat="46.75004" lon="5.76072">
        <ele>558.4</ele>
        <time>2021-03-01T12:55:36Z</time>
      </trkpt>
      <trkpt lat="46.75007" lon="5.76078">
        <ele>557.8</ele>
        <time>2021-03-01T12:55:42Z</time>
      </trkpt>
      <trkpt lat="46.75008" lon="5.76085">
        <ele>556.9</ele>
        <time>2021-03-01T12:55:56Z</time>
      </trkpt>
      <trkpt lat="46.75008" lon="5.76094">
        <ele>560.3</ele>
        <time>2021-03-01T12:56:00Z</time>
      </trkpt>
      <trkpt lat="46.75013" lon="5.76095">
        <ele>562.8</ele>
        <time>2021-03-01T12:56:14Z</time>
      </trkpt>
      <trkpt lat="46.75018" lon="5.76097">
        <ele>561</ele>
        <time>2021-03-01T12:56:24Z</time>
      </trkpt>
      <trkpt lat="46.75022" lon="5.76097">
        <ele>560.7</ele>
        <time>2021-03-01T12:56:30Z</time>
      </trkpt>
      <trkpt lat="46.75027" lon="5.76096">
        <ele>561.9</ele>
        <time>2021-03-01T12:56:36Z</time>
      </trkpt>
      <trkpt lat="46.75032" lon="5.76093">
        <ele>563.2</ele>
        <time>2021-03-01T12:56:40Z</time>
      </trkpt>
      <trkpt lat="46.75036" lon="5.76091">
        <ele>564.4</ele>
        <time>2021-03-01T12:56:46Z</time>
      </trkpt>
      <trkpt lat="46.75042" lon="5.7609">
        <ele>565.2</ele>
        <time>2021-03-01T12:56:50Z</time>
      </trkpt>
      <trkpt lat="46.7505" lon="5.76091">
        <ele>566</ele>
        <time>2021-03-01T12:56:54Z</time>
      </trkpt>
      <trkpt lat="46.75055" lon="5.76092">
        <ele>567.5</ele>
        <time>2021-03-01T12:56:58Z</time>
      </trkpt>
      <trkpt lat="46.7506" lon="5.76095">
        <ele>569</ele>
        <time>2021-03-01T12:57:02Z</time>
      </trkpt>
      <trkpt lat="46.75064" lon="5.76098">
        <ele>570.5</ele>
        <time>2021-03-01T12:57:07Z</time>
      </trkpt>
      <trkpt lat="46.75069" lon="5.76098">
        <ele>572.4</ele>
        <time>2021-03-01T12:57:13Z</time>
      </trkpt>
      <trkpt lat="46.75074" lon="5.76097">
        <ele>573.9</ele>
        <time>2021-03-01T12:57:20Z</time>
      </trkpt>
      <trkpt lat="46.75079" lon="5.76102">
        <ele>576.8</ele>
        <time>2021-03-01T12:57:33Z</time>
      </trkpt>
      <trkpt lat="46.75083" lon="5.76105">
        <ele>577.3</ele>
        <time>2021-03-01T12:57:39Z</time>
      </trkpt>
      <trkpt lat="46.75088" lon="5.76105">
        <ele>578</ele>
        <time>2021-03-01T12:57:46Z</time>
      </trkpt>
      <trkpt lat="46.75093" lon="5.76106">
        <ele>578.7</ele>
        <time>2021-03-01T12:57:52Z</time>
      </trkpt>
      <trkpt lat="46.75098" lon="5.76108">
        <ele>579.4</ele>
        <time>2021-03-01T12:57:58Z</time>
      </trkpt>
      <trkpt lat="46.75103" lon="5.76107">
        <ele>579.8</ele>
        <time>2021-03-01T12:58:03Z</time>
      </trkpt>
      <trkpt lat="46.75108" lon="5.76107">
        <ele>580.2</ele>
        <time>2021-03-01T12:58:09Z</time>
      </trkpt>
      <trkpt lat="46.75112" lon="5.76103">
        <ele>580.6</ele>
        <time>2021-03-01T12:58:15Z</time>
      </trkpt>
      <trkpt lat="46.75116" lon="5.76098">
        <ele>581</ele>
        <time>2021-03-01T12:58:22Z</time>
      </trkpt>
      <trkpt lat="46.75121" lon="5.76096">
        <ele>581.5</ele>
        <time>2021-03-01T12:58:29Z</time>
      </trkpt>
      <trkpt lat="46.75126" lon="5.76096">
        <ele>581.8</ele>
        <time>2021-03-01T12:58:34Z</time>
      </trkpt>
      <trkpt lat="46.75131" lon="5.76097">
        <ele>582</ele>
        <time>2021-03-01T12:58:40Z</time>
      </trkpt>
      <trkpt lat="46.75136" lon="5.76097">
        <ele>582.1</ele>
        <time>2021-03-01T12:58:44Z</time>
      </trkpt>
      <trkpt lat="46.75141" lon="5.76097">
        <ele>582.5</ele>
        <time>2021-03-01T12:58:49Z</time>
      </trkpt>
      <trkpt lat="46.75146" lon="5.76096">
        <ele>582.6</ele>
        <time>2021-03-01T12:58:57Z</time>
      </trkpt>
      <trkpt lat="46.7515" lon="5.76099">
        <ele>582.7</ele>
        <time>2021-03-01T12:59:02Z</time>
      </trkpt>
      <trkpt lat="46.75156" lon="5.76099">
        <ele>582.4</ele>
        <time>2021-03-01T12:59:07Z</time>
      </trkpt>
      <trkpt lat="46.75161" lon="5.761">
        <ele>582</ele>
        <time>2021-03-01T12:59:11Z</time>
      </trkpt>
      <trkpt lat="46.75166" lon="5.76105">
        <ele>580.7</ele>
        <time>2021-03-01T12:59:16Z</time>
      </trkpt>
      <trkpt lat="46.7517" lon="5.76107">
        <ele>579.8</ele>
        <time>2021-03-01T12:59:20Z</time>
      </trkpt>
      <trkpt lat="46.75175" lon="5.7611">
        <ele>578.7</ele>
        <time>2021-03-01T12:59:24Z</time>
      </trkpt>
      <trkpt lat="46.75179" lon="5.76113">
        <ele>577.5</ele>
        <time>2021-03-01T12:59:29Z</time>
      </trkpt>
      <trkpt lat="46.75181" lon="5.7612">
        <ele>576.7</ele>
        <time>2021-03-01T12:59:35Z</time>
      </trkpt>
      <trkpt lat="46.75184" lon="5.76125">
        <ele>576.1</ele>
        <time>2021-03-01T12:59:41Z</time>
      </trkpt>
      <trkpt lat="46.75185" lon="5.76132">
        <ele>571.6</ele>
        <time>2021-03-01T13:00:08Z</time>
      </trkpt>
      <trkpt lat="46.75184" lon="5.76138">
        <ele>570.6</ele>
        <time>2021-03-01T13:00:34Z</time>
      </trkpt>
      <trkpt lat="46.7518" lon="5.76142">
        <ele>570.4</ele>
        <time>2021-03-01T13:00:39Z</time>
      </trkpt>
      <trkpt lat="46.75176" lon="5.76146">
        <ele>570.5</ele>
        <time>2021-03-01T13:00:44Z</time>
      </trkpt>
      <trkpt lat="46.75171" lon="5.7615">
        <ele>570.7</ele>
        <time>2021-03-01T13:00:53Z</time>
      </trkpt>
      <trkpt lat="46.75167" lon="5.76152">
        <ele>571</ele>
        <time>2021-03-01T13:00:58Z</time>
      </trkpt>
      <trkpt lat="46.75164" lon="5.76157">
        <ele>571</ele>
        <time>2021-03-01T13:01:02Z</time>
      </trkpt>
      <trkpt lat="46.75163" lon="5.76164">
        <ele>570.8</ele>
        <time>2021-03-01T13:01:08Z</time>
      </trkpt>
      <trkpt lat="46.75164" lon="5.76171">
        <ele>570.2</ele>
        <time>2021-03-01T13:01:13Z</time>
      </trkpt>
      <trkpt lat="46.75168" lon="5.76176">
        <ele>569.1</ele>
        <time>2021-03-01T13:01:19Z</time>
      </trkpt>
      <trkpt lat="46.7517" lon="5.76183">
        <ele>567.9</ele>
        <time>2021-03-01T13:01:25Z</time>
      </trkpt>
      <trkpt lat="46.75164" lon="5.76187">
        <ele>566.8</ele>
        <time>2021-03-01T13:01:49Z</time>
      </trkpt>
      <trkpt lat="46.7516" lon="5.76186">
        <ele>566.5</ele>
        <time>2021-03-01T13:01:54Z</time>
      </trkpt>
      <trkpt lat="46.75155" lon="5.76189">
        <ele>571.4</ele>
        <time>2021-03-01T13:02:27Z</time>
      </trkpt>
      <trkpt lat="46.75153" lon="5.76196">
        <ele>571.6</ele>
        <time>2021-03-01T13:02:33Z</time>
      </trkpt>
      <trkpt lat="46.7515" lon="5.76202">
        <ele>571.4</ele>
        <time>2021-03-01T13:02:40Z</time>
      </trkpt>
      <trkpt lat="46.75146" lon="5.76207">
        <ele>571.4</ele>
        <time>2021-03-01T13:02:44Z</time>
      </trkpt>
      <trkpt lat="46.75142" lon="5.76211">
        <ele>571.3</ele>
        <time>2021-03-01T13:02:48Z</time>
      </trkpt>
      <trkpt lat="46.7514" lon="5.76218">
        <ele>571</ele>
        <time>2021-03-01T13:02:55Z</time>
      </trkpt>
      <trkpt lat="46.75138" lon="5.76224">
        <ele>571.2</ele>
        <time>2021-03-01T13:03:01Z</time>
      </trkpt>
      <trkpt lat="46.75136" lon="5.76231">
        <ele>571.2</ele>
        <time>2021-03-01T13:03:07Z</time>
      </trkpt>
      <trkpt lat="46.75134" lon="5.76237">
        <ele>571.2</ele>
        <time>2021-03-01T13:03:12Z</time>
      </trkpt>
      <trkpt lat="46.75129" lon="5.76241">
        <ele>571.4</ele>
        <time>2021-03-01T13:03:19Z</time>
      </trkpt>
      <trkpt lat="46.75125" lon="5.76243">
        <ele>571.4</ele>
        <time>2021-03-01T13:03:25Z</time>
      </trkpt>
      <trkpt lat="46.75125" lon="5.7625">
        <ele>571.8</ele>
        <time>2021-03-01T13:03:33Z</time>
      </trkpt>
      <trkpt lat="46.75125" lon="5.76258">
        <ele>571.7</ele>
        <time>2021-03-01T13:03:46Z</time>
      </trkpt>
      <trkpt lat="46.75124" lon="5.76271">
        <ele>569.5</ele>
        <time>2021-03-01T13:03:50Z</time>
      </trkpt>
      <trkpt lat="46.75125" lon="5.76278">
        <ele>568.2</ele>
        <time>2021-03-01T13:03:59Z</time>
      </trkpt>
      <trkpt lat="46.75128" lon="5.76284">
        <ele>568</ele>
        <time>2021-03-01T13:04:15Z</time>
      </trkpt>
      <trkpt lat="46.75128" lon="5.76291">
        <ele>568.3</ele>
        <time>2021-03-01T13:04:22Z</time>
      </trkpt>
      <trkpt lat="46.75124" lon="5.76296">
        <ele>568.7</ele>
        <time>2021-03-01T13:04:30Z</time>
      </trkpt>
      <trkpt lat="46.75113" lon="5.76303">
        <ele>570.3</ele>
        <time>2021-03-01T13:04:34Z</time>
      </trkpt>
      <trkpt lat="46.75115" lon="5.76312">
        <ele>572.8</ele>
        <time>2021-03-01T13:05:01Z</time>
      </trkpt>
      <trkpt lat="46.75119" lon="5.76317">
        <ele>573.1</ele>
        <time>2021-03-01T13:05:05Z</time>
      </trkpt>
      <trkpt lat="46.75117" lon="5.76324">
        <ele>574.1</ele>
        <time>2021-03-01T13:05:36Z</time>
      </trkpt>
      <trkpt lat="46.75105" lon="5.76327">
        <ele>577.5</ele>
        <time>2021-03-01T13:05:40Z</time>
      </trkpt>
      <trkpt lat="46.75098" lon="5.76329">
        <ele>581.1</ele>
        <time>2021-03-01T13:05:44Z</time>
      </trkpt>
      <trkpt lat="46.75099" lon="5.76336">
        <ele>584.6</ele>
        <time>2021-03-01T13:06:26Z</time>
      </trkpt>
      <trkpt lat="46.75094" lon="5.76338">
        <ele>581.4</ele>
        <time>2021-03-01T13:06:40Z</time>
      </trkpt>
      <trkpt lat="46.7509" lon="5.7634">
        <ele>580.7</ele>
        <time>2021-03-01T13:06:45Z</time>
      </trkpt>
      <trkpt lat="46.75085" lon="5.76345">
        <ele>580.1</ele>
        <time>2021-03-01T13:06:50Z</time>
      </trkpt>
      <trkpt lat="46.75082" lon="5.7635">
        <ele>579.6</ele>
        <time>2021-03-01T13:06:54Z</time>
      </trkpt>
      <trkpt lat="46.75079" lon="5.76356">
        <ele>579</ele>
        <time>2021-03-01T13:06:58Z</time>
      </trkpt>
      <trkpt lat="46.75077" lon="5.76362">
        <ele>578.5</ele>
        <time>2021-03-01T13:07:03Z</time>
      </trkpt>
      <trkpt lat="46.75075" lon="5.76368">
        <ele>577.9</ele>
        <time>2021-03-01T13:07:09Z</time>
      </trkpt>
      <trkpt lat="46.75071" lon="5.76374">
        <ele>577.2</ele>
        <time>2021-03-01T13:07:14Z</time>
      </trkpt>
      <trkpt lat="46.75068" lon="5.76379">
        <ele>576.7</ele>
        <time>2021-03-01T13:07:19Z</time>
      </trkpt>
      <trkpt lat="46.75065" lon="5.76384">
        <ele>576.4</ele>
        <time>2021-03-01T13:07:23Z</time>
      </trkpt>
      <trkpt lat="46.7506" lon="5.76387">
        <ele>575.1</ele>
        <time>2021-03-01T13:07:30Z</time>
      </trkpt>
      <trkpt lat="46.75057" lon="5.76392">
        <ele>573.6</ele>
        <time>2021-03-01T13:07:37Z</time>
      </trkpt>
      <trkpt lat="46.75053" lon="5.76397">
        <ele>572.9</ele>
        <time>2021-03-01T13:07:42Z</time>
      </trkpt>
      <trkpt lat="46.75048" lon="5.764">
        <ele>572.7</ele>
        <time>2021-03-01T13:07:48Z</time>
      </trkpt>
      <trkpt lat="46.75044" lon="5.76399">
        <ele>572.7</ele>
        <time>2021-03-01T13:07:52Z</time>
      </trkpt>
      <trkpt lat="46.75039" lon="5.76396">
        <ele>572.5</ele>
        <time>2021-03-01T13:07:58Z</time>
      </trkpt>
      <trkpt lat="46.75034" lon="5.76398">
        <ele>572.6</ele>
        <time>2021-03-01T13:08:03Z</time>
      </trkpt>
      <trkpt lat="46.7503" lon="5.76401">
        <ele>572.3</ele>
        <time>2021-03-01T13:08:07Z</time>
      </trkpt>
      <trkpt lat="46.75026" lon="5.76406">
        <ele>572</ele>
        <time>2021-03-01T13:08:11Z</time>
      </trkpt>
      <trkpt lat="46.75022" lon="5.76409">
        <ele>570.6</ele>
        <time>2021-03-01T13:08:18Z</time>
      </trkpt>
      <trkpt lat="46.75017" lon="5.76413">
        <ele>570.1</ele>
        <time>2021-03-01T13:08:24Z</time>
      </trkpt>
      <trkpt lat="46.75013" lon="5.76418">
        <ele>569.5</ele>
        <time>2021-03-01T13:08:29Z</time>
      </trkpt>
      <trkpt lat="46.75008" lon="5.76421">
        <ele>569.6</ele>
        <time>2021-03-01T13:08:33Z</time>
      </trkpt>
      <trkpt lat="46.75003" lon="5.76424">
        <ele>569.9</ele>
        <time>2021-03-01T13:08:37Z</time>
      </trkpt>
      <trkpt lat="46.74999" lon="5.76427">
        <ele>570.1</ele>
        <time>2021-03-01T13:08:42Z</time>
      </trkpt>
      <trkpt lat="46.74998" lon="5.76434">
        <ele>570.3</ele>
        <time>2021-03-01T13:08:48Z</time>
      </trkpt>
      <trkpt lat="46.74998" lon="5.76445">
        <ele>571.4</ele>
        <time>2021-03-01T13:09:21Z</time>
      </trkpt>
      <trkpt lat="46.74996" lon="5.76453">
        <ele>572.5</ele>
        <time>2021-03-01T13:09:25Z</time>
      </trkpt>
      <trkpt lat="46.74992" lon="5.76455">
        <ele>573.3</ele>
        <time>2021-03-01T13:09:43Z</time>
      </trkpt>
      <trkpt lat="46.74989" lon="5.76462">
        <ele>573.7</ele>
        <time>2021-03-01T13:09:57Z</time>
      </trkpt>
      <trkpt lat="46.74987" lon="5.76468">
        <ele>574.3</ele>
        <time>2021-03-01T13:10:03Z</time>
      </trkpt>
      <trkpt lat="46.74983" lon="5.76474">
        <ele>574.3</ele>
        <time>2021-03-01T13:10:08Z</time>
      </trkpt>
      <trkpt lat="46.74978" lon="5.76479">
        <ele>574.1</ele>
        <time>2021-03-01T13:10:12Z</time>
      </trkpt>
      <trkpt lat="46.74974" lon="5.76484">
        <ele>573.9</ele>
        <time>2021-03-01T13:10:16Z</time>
      </trkpt>
      <trkpt lat="46.7497" lon="5.7649">
        <ele>573.9</ele>
        <time>2021-03-01T13:10:21Z</time>
      </trkpt>
      <trkpt lat="46.74967" lon="5.76495">
        <ele>574.6</ele>
        <time>2021-03-01T13:10:27Z</time>
      </trkpt>
      <trkpt lat="46.74963" lon="5.765">
        <ele>575</ele>
        <time>2021-03-01T13:10:33Z</time>
      </trkpt>
      <trkpt lat="46.74957" lon="5.765">
        <ele>575.5</ele>
        <time>2021-03-01T13:10:40Z</time>
      </trkpt>
      <trkpt lat="46.74953" lon="5.76498">
        <ele>575.9</ele>
        <time>2021-03-01T13:10:44Z</time>
      </trkpt>
      <trkpt lat="46.74948" lon="5.76501">
        <ele>576</ele>
        <time>2021-03-01T13:10:49Z</time>
      </trkpt>
      <trkpt lat="46.74943" lon="5.76502">
        <ele>575.5</ele>
        <time>2021-03-01T13:10:56Z</time>
      </trkpt>
      <trkpt lat="46.74939" lon="5.76501">
        <ele>574.9</ele>
        <time>2021-03-01T13:11:03Z</time>
      </trkpt>
      <trkpt lat="46.74934" lon="5.765">
        <ele>574.7</ele>
        <time>2021-03-01T13:11:13Z</time>
      </trkpt>
      <trkpt lat="46.74929" lon="5.76501">
        <ele>575</ele>
        <time>2021-03-01T13:11:29Z</time>
      </trkpt>
      <trkpt lat="46.74924" lon="5.76502">
        <ele>575.5</ele>
        <time>2021-03-01T13:11:34Z</time>
      </trkpt>
      <trkpt lat="46.74919" lon="5.76501">
        <ele>576.2</ele>
        <time>2021-03-01T13:11:40Z</time>
      </trkpt>
      <trkpt lat="46.74914" lon="5.765">
        <ele>577.1</ele>
        <time>2021-03-01T13:11:47Z</time>
      </trkpt>
      <trkpt lat="46.74909" lon="5.76501">
        <ele>577.7</ele>
        <time>2021-03-01T13:11:53Z</time>
      </trkpt>
      <trkpt lat="46.74904" lon="5.76501">
        <ele>578</ele>
        <time>2021-03-01T13:11:58Z</time>
      </trkpt>
      <trkpt lat="46.74899" lon="5.765">
        <ele>578.6</ele>
        <time>2021-03-01T13:12:03Z</time>
      </trkpt>
      <trkpt lat="46.74893" lon="5.76501">
        <ele>579.4</ele>
        <time>2021-03-01T13:12:09Z</time>
      </trkpt>
      <trkpt lat="46.74888" lon="5.76503">
        <ele>579.9</ele>
        <time>2021-03-01T13:12:13Z</time>
      </trkpt>
      <trkpt lat="46.74884" lon="5.76507">
        <ele>580.3</ele>
        <time>2021-03-01T13:12:17Z</time>
      </trkpt>
      <trkpt lat="46.74879" lon="5.7651">
        <ele>580.7</ele>
        <time>2021-03-01T13:12:22Z</time>
      </trkpt>
      <trkpt lat="46.74875" lon="5.76513">
        <ele>581.3</ele>
        <time>2021-03-01T13:12:27Z</time>
      </trkpt>
      <trkpt lat="46.74871" lon="5.76518">
        <ele>581.6</ele>
        <time>2021-03-01T13:12:34Z</time>
      </trkpt>
      <trkpt lat="46.74867" lon="5.7652">
        <ele>581.3</ele>
        <time>2021-03-01T13:12:42Z</time>
      </trkpt>
      <trkpt lat="46.74862" lon="5.76521">
        <ele>580.9</ele>
        <time>2021-03-01T13:12:47Z</time>
      </trkpt>
      <trkpt lat="46.74857" lon="5.76522">
        <ele>580</ele>
        <time>2021-03-01T13:12:52Z</time>
      </trkpt>
      <trkpt lat="46.74853" lon="5.76525">
        <ele>579.2</ele>
        <time>2021-03-01T13:12:56Z</time>
      </trkpt>
      <trkpt lat="46.74842" lon="5.76532">
        <ele>580</ele>
        <time>2021-03-01T13:13:02Z</time>
      </trkpt>
      <trkpt lat="46.74833" lon="5.76537">
        <ele>581.3</ele>
        <time>2021-03-01T13:13:06Z</time>
      </trkpt>
      <trkpt lat="46.74828" lon="5.76539">
        <ele>582.4</ele>
        <time>2021-03-01T13:13:12Z</time>
      </trkpt>
      <trkpt lat="46.74824" lon="5.76543">
        <ele>582.4</ele>
        <time>2021-03-01T13:13:17Z</time>
      </trkpt>
      <trkpt lat="46.7482" lon="5.76547">
        <ele>581.7</ele>
        <time>2021-03-01T13:13:23Z</time>
      </trkpt>
      <trkpt lat="46.74815" lon="5.7655">
        <ele>581</ele>
        <time>2021-03-01T13:13:28Z</time>
      </trkpt>
      <trkpt lat="46.74811" lon="5.76553">
        <ele>580.4</ele>
        <time>2021-03-01T13:13:33Z</time>
      </trkpt>
      <trkpt lat="46.74806" lon="5.76554">
        <ele>579.8</ele>
        <time>2021-03-01T13:13:39Z</time>
      </trkpt>
      <trkpt lat="46.74802" lon="5.76555">
        <ele>579.3</ele>
        <time>2021-03-01T13:13:46Z</time>
      </trkpt>
      <trkpt lat="46.74791" lon="5.76558">
        <ele>578.5</ele>
        <time>2021-03-01T13:13:52Z</time>
      </trkpt>
      <trkpt lat="46.7478" lon="5.76562">
        <ele>578.7</ele>
        <time>2021-03-01T13:13:56Z</time>
      </trkpt>
      <trkpt lat="46.74776" lon="5.76565">
        <ele>577.2</ele>
        <time>2021-03-01T13:14:01Z</time>
      </trkpt>
      <trkpt lat="46.74771" lon="5.76568">
        <ele>574.2</ele>
        <time>2021-03-01T13:14:12Z</time>
      </trkpt>
      <trkpt lat="46.74766" lon="5.76569">
        <ele>572.6</ele>
        <time>2021-03-01T13:14:22Z</time>
      </trkpt>
      <trkpt lat="46.7476" lon="5.76572">
        <ele>572.4</ele>
        <time>2021-03-01T13:14:28Z</time>
      </trkpt>
      <trkpt lat="46.74755" lon="5.76572">
        <ele>572.5</ele>
        <time>2021-03-01T13:14:32Z</time>
      </trkpt>
      <trkpt lat="46.74747" lon="5.76582">
        <ele>572</ele>
        <time>2021-03-01T13:14:36Z</time>
      </trkpt>
      <trkpt lat="46.74743" lon="5.76585">
        <ele>571.5</ele>
        <time>2021-03-01T13:14:40Z</time>
      </trkpt>
      <trkpt lat="46.74738" lon="5.76588">
        <ele>570.7</ele>
        <time>2021-03-01T13:14:47Z</time>
      </trkpt>
      <trkpt lat="46.74733" lon="5.76588">
        <ele>570.1</ele>
        <time>2021-03-01T13:14:54Z</time>
      </trkpt>
      <trkpt lat="46.74729" lon="5.76589">
        <ele>569.7</ele>
        <time>2021-03-01T13:14:59Z</time>
      </trkpt>
      <trkpt lat="46.74724" lon="5.76592">
        <ele>569.3</ele>
        <time>2021-03-01T13:15:05Z</time>
      </trkpt>
      <trkpt lat="46.7472" lon="5.76597">
        <ele>568.7</ele>
        <time>2021-03-01T13:15:11Z</time>
      </trkpt>
      <trkpt lat="46.74716" lon="5.766">
        <ele>567.7</ele>
        <time>2021-03-01T13:15:21Z</time>
      </trkpt>
      <trkpt lat="46.7471" lon="5.766">
        <ele>567.3</ele>
        <time>2021-03-01T13:15:27Z</time>
      </trkpt>
      <trkpt lat="46.74703" lon="5.76606">
        <ele>569.8</ele>
        <time>2021-03-01T13:15:31Z</time>
      </trkpt>
      <trkpt lat="46.74696" lon="5.76613">
        <ele>572.4</ele>
        <time>2021-03-01T13:15:35Z</time>
      </trkpt>
      <trkpt lat="46.74692" lon="5.76618">
        <ele>574.5</ele>
        <time>2021-03-01T13:15:40Z</time>
      </trkpt>
      <trkpt lat="46.74687" lon="5.7662">
        <ele>575.8</ele>
        <time>2021-03-01T13:15:46Z</time>
      </trkpt>
      <trkpt lat="46.74683" lon="5.76623">
        <ele>576.6</ele>
        <time>2021-03-01T13:15:53Z</time>
      </trkpt>
      <trkpt lat="46.74678" lon="5.76625">
        <ele>576.8</ele>
        <time>2021-03-01T13:16:00Z</time>
      </trkpt>
      <trkpt lat="46.74675" lon="5.76628">
        <ele>576.6</ele>
        <time>2021-03-01T13:16:06Z</time>
      </trkpt>
      <trkpt lat="46.7467" lon="5.76632">
        <ele>576.4</ele>
        <time>2021-03-01T13:16:14Z</time>
      </trkpt>
      <trkpt lat="46.74666" lon="5.76634">
        <ele>576.3</ele>
        <time>2021-03-01T13:16:20Z</time>
      </trkpt>
      <trkpt lat="46.74661" lon="5.76635">
        <ele>576.3</ele>
        <time>2021-03-01T13:16:26Z</time>
      </trkpt>
      <trkpt lat="46.74656" lon="5.76635">
        <ele>576</ele>
        <time>2021-03-01T13:16:32Z</time>
      </trkpt>
      <trkpt lat="46.74651" lon="5.76636">
        <ele>575.9</ele>
        <time>2021-03-01T13:16:36Z</time>
      </trkpt>
      <trkpt lat="46.74646" lon="5.76636">
        <ele>575.7</ele>
        <time>2021-03-01T13:16:41Z</time>
      </trkpt>
      <trkpt lat="46.74641" lon="5.76637">
        <ele>575.6</ele>
        <time>2021-03-01T13:16:47Z</time>
      </trkpt>
      <trkpt lat="46.74636" lon="5.7664">
        <ele>575.7</ele>
        <time>2021-03-01T13:16:51Z</time>
      </trkpt>
      <trkpt lat="46.74632" lon="5.76642">
        <ele>575.7</ele>
        <time>2021-03-01T13:16:56Z</time>
      </trkpt>
      <trkpt lat="46.74627" lon="5.76645">
        <ele>575.6</ele>
        <time>2021-03-01T13:17:02Z</time>
      </trkpt>
      <trkpt lat="46.74624" lon="5.76649">
        <ele>575.2</ele>
        <time>2021-03-01T13:17:10Z</time>
      </trkpt>
      <trkpt lat="46.7462" lon="5.76653">
        <ele>574.5</ele>
        <time>2021-03-01T13:17:18Z</time>
      </trkpt>
      <trkpt lat="46.74617" lon="5.76658">
        <ele>573.5</ele>
        <time>2021-03-01T13:18:11Z</time>
      </trkpt>
      <trkpt lat="46.74612" lon="5.76662">
        <ele>572.5</ele>
        <time>2021-03-01T13:18:17Z</time>
      </trkpt>
      <trkpt lat="46.74608" lon="5.76666">
        <ele>572.1</ele>
        <time>2021-03-01T13:18:22Z</time>
      </trkpt>
      <trkpt lat="46.74603" lon="5.76668">
        <ele>571.6</ele>
        <time>2021-03-01T13:18:27Z</time>
      </trkpt>
      <trkpt lat="46.74599" lon="5.76671">
        <ele>571.1</ele>
        <time>2021-03-01T13:18:32Z</time>
      </trkpt>
      <trkpt lat="46.74594" lon="5.76673">
        <ele>570.7</ele>
        <time>2021-03-01T13:18:36Z</time>
      </trkpt>
      <trkpt lat="46.74589" lon="5.76673">
        <ele>570.4</ele>
        <time>2021-03-01T13:18:40Z</time>
      </trkpt>
      <trkpt lat="46.74584" lon="5.76675">
        <ele>570.3</ele>
        <time>2021-03-01T13:18:44Z</time>
      </trkpt>
      <trkpt lat="46.74581" lon="5.7668">
        <ele>570.6</ele>
        <time>2021-03-01T13:18:49Z</time>
      </trkpt>
      <trkpt lat="46.74577" lon="5.76684">
        <ele>570.9</ele>
        <time>2021-03-01T13:18:55Z</time>
      </trkpt>
      <trkpt lat="46.74572" lon="5.76687">
        <ele>571.3</ele>
        <time>2021-03-01T13:19:02Z</time>
      </trkpt>
      <trkpt lat="46.74567" lon="5.76688">
        <ele>571.5</ele>
        <time>2021-03-01T13:19:07Z</time>
      </trkpt>
      <trkpt lat="46.74563" lon="5.76692">
        <ele>571.8</ele>
        <time>2021-03-01T13:19:12Z</time>
      </trkpt>
      <trkpt lat="46.74558" lon="5.76695">
        <ele>572.5</ele>
        <time>2021-03-01T13:19:17Z</time>
      </trkpt>
      <trkpt lat="46.74553" lon="5.76697">
        <ele>573.5</ele>
        <time>2021-03-01T13:19:22Z</time>
      </trkpt>
      <trkpt lat="46.74548" lon="5.767">
        <ele>574.6</ele>
        <time>2021-03-01T13:19:27Z</time>
      </trkpt>
      <trkpt lat="46.74544" lon="5.76703">
        <ele>575.6</ele>
        <time>2021-03-01T13:19:31Z</time>
      </trkpt>
      <trkpt lat="46.7454" lon="5.76706">
        <ele>576.6</ele>
        <time>2021-03-01T13:19:35Z</time>
      </trkpt>
      <trkpt lat="46.74535" lon="5.76708">
        <ele>578.1</ele>
        <time>2021-03-01T13:19:40Z</time>
      </trkpt>
      <trkpt lat="46.7453" lon="5.76712">
        <ele>579.7</ele>
        <time>2021-03-01T13:19:46Z</time>
      </trkpt>
      <trkpt lat="46.74526" lon="5.76716">
        <ele>580.7</ele>
        <time>2021-03-01T13:19:51Z</time>
      </trkpt>
      <trkpt lat="46.74521" lon="5.76719">
        <ele>581.5</ele>
        <time>2021-03-01T13:19:56Z</time>
      </trkpt>
      <trkpt lat="46.74516" lon="5.76722">
        <ele>582.2</ele>
        <time>2021-03-01T13:20:01Z</time>
      </trkpt>
      <trkpt lat="46.74511" lon="5.76725">
        <ele>582.9</ele>
        <time>2021-03-01T13:20:06Z</time>
      </trkpt>
      <trkpt lat="46.74507" lon="5.76728">
        <ele>583.8</ele>
        <time>2021-03-01T13:20:12Z</time>
      </trkpt>
      <trkpt lat="46.74502" lon="5.76729">
        <ele>585</ele>
        <time>2021-03-01T13:20:18Z</time>
      </trkpt>
      <trkpt lat="46.74498" lon="5.76733">
        <ele>586.2</ele>
        <time>2021-03-01T13:20:26Z</time>
      </trkpt>
      <trkpt lat="46.74494" lon="5.76736">
        <ele>586.7</ele>
        <time>2021-03-01T13:20:32Z</time>
      </trkpt>
      <trkpt lat="46.74489" lon="5.76737">
        <ele>587.2</ele>
        <time>2021-03-01T13:20:36Z</time>
      </trkpt>
      <trkpt lat="46.74484" lon="5.7674">
        <ele>587.7</ele>
        <time>2021-03-01T13:20:40Z</time>
      </trkpt>
      <trkpt lat="46.7448" lon="5.76744">
        <ele>587.9</ele>
        <time>2021-03-01T13:20:45Z</time>
      </trkpt>
      <trkpt lat="46.74475" lon="5.76746">
        <ele>587.9</ele>
        <time>2021-03-01T13:20:51Z</time>
      </trkpt>
      <trkpt lat="46.74471" lon="5.76748">
        <ele>587.7</ele>
        <time>2021-03-01T13:20:57Z</time>
      </trkpt>
      <trkpt lat="46.74466" lon="5.7675">
        <ele>587.7</ele>
        <time>2021-03-01T13:21:04Z</time>
      </trkpt>
      <trkpt lat="46.74461" lon="5.76753">
        <ele>587.5</ele>
        <time>2021-03-01T13:21:11Z</time>
      </trkpt>
      <trkpt lat="46.74457" lon="5.76758">
        <ele>587.2</ele>
        <time>2021-03-01T13:21:15Z</time>
      </trkpt>
      <trkpt lat="46.74453" lon="5.76761">
        <ele>586.8</ele>
        <time>2021-03-01T13:21:20Z</time>
      </trkpt>
      <trkpt lat="46.74449" lon="5.76765">
        <ele>586.1</ele>
        <time>2021-03-01T13:21:27Z</time>
      </trkpt>
      <trkpt lat="46.74444" lon="5.76769">
        <ele>585.8</ele>
        <time>2021-03-01T13:21:33Z</time>
      </trkpt>
      <trkpt lat="46.7444" lon="5.76773">
        <ele>585.5</ele>
        <time>2021-03-01T13:21:38Z</time>
      </trkpt>
      <trkpt lat="46.74437" lon="5.76778">
        <ele>585</ele>
        <time>2021-03-01T13:21:43Z</time>
      </trkpt>
      <trkpt lat="46.74432" lon="5.76783">
        <ele>584.4</ele>
        <time>2021-03-01T13:21:48Z</time>
      </trkpt>
      <trkpt lat="46.74429" lon="5.76787">
        <ele>583.9</ele>
        <time>2021-03-01T13:21:53Z</time>
      </trkpt>
      <trkpt lat="46.74425" lon="5.76792">
        <ele>583.4</ele>
        <time>2021-03-01T13:21:58Z</time>
      </trkpt>
      <trkpt lat="46.74421" lon="5.76797">
        <ele>583</ele>
        <time>2021-03-01T13:22:02Z</time>
      </trkpt>
      <trkpt lat="46.74417" lon="5.76801">
        <ele>582.9</ele>
        <time>2021-03-01T13:22:07Z</time>
      </trkpt>
      <trkpt lat="46.74412" lon="5.76805">
        <ele>582.6</ele>
        <time>2021-03-01T13:22:12Z</time>
      </trkpt>
      <trkpt lat="46.74409" lon="5.7681">
        <ele>582.3</ele>
        <time>2021-03-01T13:22:20Z</time>
      </trkpt>
      <trkpt lat="46.74405" lon="5.76816">
        <ele>582.1</ele>
        <time>2021-03-01T13:22:27Z</time>
      </trkpt>
      <trkpt lat="46.744" lon="5.76818">
        <ele>582.4</ele>
        <time>2021-03-01T13:22:34Z</time>
      </trkpt>
      <trkpt lat="46.74395" lon="5.76819">
        <ele>582.8</ele>
        <time>2021-03-01T13:22:41Z</time>
      </trkpt>
      <trkpt lat="46.7439" lon="5.7682">
        <ele>583.1</ele>
        <time>2021-03-01T13:22:48Z</time>
      </trkpt>
      <trkpt lat="46.74386" lon="5.76823">
        <ele>583.2</ele>
        <time>2021-03-01T13:22:53Z</time>
      </trkpt>
      <trkpt lat="46.74383" lon="5.76829">
        <ele>583.8</ele>
        <time>2021-03-01T13:22:58Z</time>
      </trkpt>
      <trkpt lat="46.7438" lon="5.76835">
        <ele>584.6</ele>
        <time>2021-03-01T13:23:04Z</time>
      </trkpt>
      <trkpt lat="46.74376" lon="5.7684">
        <ele>585.5</ele>
        <time>2021-03-01T13:23:11Z</time>
      </trkpt>
      <trkpt lat="46.74373" lon="5.76845">
        <ele>585.7</ele>
        <time>2021-03-01T13:23:16Z</time>
      </trkpt>
      <trkpt lat="46.74369" lon="5.7685">
        <ele>586</ele>
        <time>2021-03-01T13:23:22Z</time>
      </trkpt>
      <trkpt lat="46.74366" lon="5.76855">
        <ele>586.3</ele>
        <time>2021-03-01T13:23:28Z</time>
      </trkpt>
      <trkpt lat="46.74363" lon="5.7686">
        <ele>586.3</ele>
        <time>2021-03-01T13:23:32Z</time>
      </trkpt>
      <trkpt lat="46.7436" lon="5.76866">
        <ele>586.5</ele>
        <time>2021-03-01T13:23:36Z</time>
      </trkpt>
      <trkpt lat="46.7436" lon="5.76873">
        <ele>586.6</ele>
        <time>2021-03-01T13:23:42Z</time>
      </trkpt>
      <trkpt lat="46.74358" lon="5.7688">
        <ele>587.6</ele>
        <time>2021-03-01T13:23:50Z</time>
      </trkpt>
      <trkpt lat="46.74356" lon="5.76888">
        <ele>588.6</ele>
        <time>2021-03-01T13:23:54Z</time>
      </trkpt>
      <trkpt lat="46.74353" lon="5.76894">
        <ele>589.5</ele>
        <time>2021-03-01T13:23:59Z</time>
      </trkpt>
      <trkpt lat="46.74349" lon="5.76899">
        <ele>590.2</ele>
        <time>2021-03-01T13:24:04Z</time>
      </trkpt>
      <trkpt lat="46.74345" lon="5.76904">
        <ele>590.6</ele>
        <time>2021-03-01T13:24:09Z</time>
      </trkpt>
      <trkpt lat="46.74341" lon="5.76909">
        <ele>591.2</ele>
        <time>2021-03-01T13:24:14Z</time>
      </trkpt>
      <trkpt lat="46.74341" lon="5.76918">
        <ele>592.5</ele>
        <time>2021-03-01T13:24:19Z</time>
      </trkpt>
      <trkpt lat="46.74342" lon="5.76925">
        <ele>593.9</ele>
        <time>2021-03-01T13:24:24Z</time>
      </trkpt>
      <trkpt lat="46.74339" lon="5.76931">
        <ele>594.9</ele>
        <time>2021-03-01T13:24:30Z</time>
      </trkpt>
      <trkpt lat="46.74335" lon="5.76935">
        <ele>595.5</ele>
        <time>2021-03-01T13:24:35Z</time>
      </trkpt>
      <trkpt lat="46.74331" lon="5.76937">
        <ele>596.1</ele>
        <time>2021-03-01T13:24:40Z</time>
      </trkpt>
      <trkpt lat="46.74327" lon="5.76942">
        <ele>596.5</ele>
        <time>2021-03-01T13:24:46Z</time>
      </trkpt>
      <trkpt lat="46.74322" lon="5.76945">
        <ele>596.9</ele>
        <time>2021-03-01T13:24:51Z</time>
      </trkpt>
      <trkpt lat="46.74318" lon="5.7695">
        <ele>597.4</ele>
        <time>2021-03-01T13:24:57Z</time>
      </trkpt>
      <trkpt lat="46.74315" lon="5.76956">
        <ele>597.7</ele>
        <time>2021-03-01T13:25:01Z</time>
      </trkpt>
      <trkpt lat="46.74312" lon="5.7696">
        <ele>597.8</ele>
        <time>2021-03-01T13:25:05Z</time>
      </trkpt>
      <trkpt lat="46.74308" lon="5.76965">
        <ele>598</ele>
        <time>2021-03-01T13:25:10Z</time>
      </trkpt>
      <trkpt lat="46.74304" lon="5.76968">
        <ele>598.2</ele>
        <time>2021-03-01T13:25:15Z</time>
      </trkpt>
      <trkpt lat="46.74301" lon="5.76974">
        <ele>598.3</ele>
        <time>2021-03-01T13:25:22Z</time>
      </trkpt>
      <trkpt lat="46.74302" lon="5.76982">
        <ele>598.5</ele>
        <time>2021-03-01T13:25:52Z</time>
      </trkpt>
      <trkpt lat="46.74298" lon="5.76992">
        <ele>601.7</ele>
        <time>2021-03-01T13:25:56Z</time>
      </trkpt>
      <trkpt lat="46.74295" lon="5.76997">
        <ele>605.4</ele>
        <time>2021-03-01T13:26:01Z</time>
      </trkpt>
      <trkpt lat="46.74291" lon="5.77002">
        <ele>608.9</ele>
        <time>2021-03-01T13:26:10Z</time>
      </trkpt>
      <trkpt lat="46.74289" lon="5.77008">
        <ele>610.4</ele>
        <time>2021-03-01T13:26:17Z</time>
      </trkpt>
      <trkpt lat="46.74286" lon="5.77014">
        <ele>611</ele>
        <time>2021-03-01T13:26:23Z</time>
      </trkpt>
      <trkpt lat="46.74282" lon="5.77017">
        <ele>611.1</ele>
        <time>2021-03-01T13:26:29Z</time>
      </trkpt>
      <trkpt lat="46.7428" lon="5.77024">
        <ele>611.1</ele>
        <time>2021-03-01T13:26:35Z</time>
      </trkpt>
      <trkpt lat="46.7428" lon="5.77032">
        <ele>611.3</ele>
        <time>2021-03-01T13:26:39Z</time>
      </trkpt>
      <trkpt lat="46.74277" lon="5.77038">
        <ele>611.4</ele>
        <time>2021-03-01T13:26:43Z</time>
      </trkpt>
      <trkpt lat="46.74273" lon="5.77042">
        <ele>611.4</ele>
        <time>2021-03-01T13:26:48Z</time>
      </trkpt>
      <trkpt lat="46.7427" lon="5.77047">
        <ele>611.4</ele>
        <time>2021-03-01T13:26:54Z</time>
      </trkpt>
      <trkpt lat="46.74266" lon="5.77052">
        <ele>611.3</ele>
        <time>2021-03-01T13:26:58Z</time>
      </trkpt>
      <trkpt lat="46.74263" lon="5.77057">
        <ele>611.2</ele>
        <time>2021-03-01T13:27:02Z</time>
      </trkpt>
      <trkpt lat="46.74261" lon="5.77065">
        <ele>610.9</ele>
        <time>2021-03-01T13:27:07Z</time>
      </trkpt>
      <trkpt lat="46.7426" lon="5.77071">
        <ele>610.5</ele>
        <time>2021-03-01T13:27:13Z</time>
      </trkpt>
      <trkpt lat="46.74257" lon="5.77077">
        <ele>610.3</ele>
        <time>2021-03-01T13:27:19Z</time>
      </trkpt>
      <trkpt lat="46.74257" lon="5.77085">
        <ele>610</ele>
        <time>2021-03-01T13:27:24Z</time>
      </trkpt>
      <trkpt lat="46.74256" lon="5.77093">
        <ele>610.5</ele>
        <time>2021-03-01T13:27:38Z</time>
      </trkpt>
      <trkpt lat="46.74254" lon="5.771">
        <ele>611.3</ele>
        <time>2021-03-01T13:27:44Z</time>
      </trkpt>
      <trkpt lat="46.74253" lon="5.77107">
        <ele>611.5</ele>
        <time>2021-03-01T13:27:51Z</time>
      </trkpt>
      <trkpt lat="46.74251" lon="5.77114">
        <ele>611.2</ele>
        <time>2021-03-01T13:27:58Z</time>
      </trkpt>
      <trkpt lat="46.74249" lon="5.7712">
        <ele>610.7</ele>
        <time>2021-03-01T13:28:02Z</time>
      </trkpt>
      <trkpt lat="46.74249" lon="5.77127">
        <ele>610.4</ele>
        <time>2021-03-01T13:28:07Z</time>
      </trkpt>
      <trkpt lat="46.74249" lon="5.77135">
        <ele>609.3</ele>
        <time>2021-03-01T13:28:20Z</time>
      </trkpt>
      <trkpt lat="46.74246" lon="5.77141">
        <ele>609.1</ele>
        <time>2021-03-01T13:28:25Z</time>
      </trkpt>
      <trkpt lat="46.74244" lon="5.77147">
        <ele>609</ele>
        <time>2021-03-01T13:28:30Z</time>
      </trkpt>
      <trkpt lat="46.74244" lon="5.77154">
        <ele>609.2</ele>
        <time>2021-03-01T13:28:35Z</time>
      </trkpt>
      <trkpt lat="46.74245" lon="5.77161">
        <ele>609.5</ele>
        <time>2021-03-01T13:28:39Z</time>
      </trkpt>
      <trkpt lat="46.74247" lon="5.77168">
        <ele>610.2</ele>
        <time>2021-03-01T13:28:45Z</time>
      </trkpt>
      <trkpt lat="46.74245" lon="5.77175">
        <ele>610.2</ele>
        <time>2021-03-01T13:28:50Z</time>
      </trkpt>
      <trkpt lat="46.74247" lon="5.77182">
        <ele>609.9</ele>
        <time>2021-03-01T13:28:55Z</time>
      </trkpt>
      <trkpt lat="46.74249" lon="5.77189">
        <ele>609.2</ele>
        <time>2021-03-01T13:29:00Z</time>
      </trkpt>
      <trkpt lat="46.7425" lon="5.77196">
        <ele>608.7</ele>
        <time>2021-03-01T13:29:06Z</time>
      </trkpt>
      <trkpt lat="46.74251" lon="5.77204">
        <ele>608.4</ele>
        <time>2021-03-01T13:29:12Z</time>
      </trkpt>
      <trkpt lat="46.74252" lon="5.77211">
        <ele>608.5</ele>
        <time>2021-03-01T13:29:16Z</time>
      </trkpt>
      <trkpt lat="46.74254" lon="5.77217">
        <ele>608.5</ele>
        <time>2021-03-01T13:29:20Z</time>
      </trkpt>
      <trkpt lat="46.74255" lon="5.77224">
        <ele>608.7</ele>
        <time>2021-03-01T13:29:25Z</time>
      </trkpt>
      <trkpt lat="46.74254" lon="5.77232">
        <ele>608.5</ele>
        <time>2021-03-01T13:29:30Z</time>
      </trkpt>
      <trkpt lat="46.74251" lon="5.77238">
        <ele>608.6</ele>
        <time>2021-03-01T13:29:35Z</time>
      </trkpt>
      <trkpt lat="46.74252" lon="5.77246">
        <ele>608.7</ele>
        <time>2021-03-01T13:29:41Z</time>
      </trkpt>
      <trkpt lat="46.74253" lon="5.77253">
        <ele>609.5</ele>
        <time>2021-03-01T13:29:50Z</time>
      </trkpt>
      <trkpt lat="46.74255" lon="5.77259">
        <ele>610</ele>
        <time>2021-03-01T13:29:56Z</time>
      </trkpt>
      <trkpt lat="46.74257" lon="5.77266">
        <ele>610.7</ele>
        <time>2021-03-01T13:30:01Z</time>
      </trkpt>
      <trkpt lat="46.74253" lon="5.77271">
        <ele>610.3</ele>
        <time>2021-03-01T13:30:19Z</time>
      </trkpt>
      <trkpt lat="46.74249" lon="5.77273">
        <ele>609.4</ele>
        <time>2021-03-01T13:30:30Z</time>
      </trkpt>
      <trkpt lat="46.74248" lon="5.77267">
        <ele>608.7</ele>
        <time>2021-03-01T13:30:55Z</time>
      </trkpt>
      <trkpt lat="46.74245" lon="5.77262">
        <ele>609</ele>
        <time>2021-03-01T13:30:59Z</time>
      </trkpt>
      <trkpt lat="46.7424" lon="5.7726">
        <ele>609.3</ele>
        <time>2021-03-01T13:31:04Z</time>
      </trkpt>
      <trkpt lat="46.74236" lon="5.77259">
        <ele>609.3</ele>
        <time>2021-03-01T13:31:18Z</time>
      </trkpt>
      <trkpt lat="46.74231" lon="5.77258">
        <ele>609.6</ele>
        <time>2021-03-01T13:31:23Z</time>
      </trkpt>
      <trkpt lat="46.74226" lon="5.77256">
        <ele>610</ele>
        <time>2021-03-01T13:31:27Z</time>
      </trkpt>
      <trkpt lat="46.74222" lon="5.77251">
        <ele>609.8</ele>
        <time>2021-03-01T13:31:32Z</time>
      </trkpt>
      <trkpt lat="46.74218" lon="5.77248">
        <ele>609.4</ele>
        <time>2021-03-01T13:31:36Z</time>
      </trkpt>
      <trkpt lat="46.74213" lon="5.77245">
        <ele>609</ele>
        <time>2021-03-01T13:31:40Z</time>
      </trkpt>
      <trkpt lat="46.74209" lon="5.77243">
        <ele>608.1</ele>
        <time>2021-03-01T13:31:45Z</time>
      </trkpt>
      <trkpt lat="46.74205" lon="5.77239">
        <ele>608.4</ele>
        <time>2021-03-01T13:32:00Z</time>
      </trkpt>
      <trkpt lat="46.74201" lon="5.77235">
        <ele>609.7</ele>
        <time>2021-03-01T13:32:07Z</time>
      </trkpt>
      <trkpt lat="46.74197" lon="5.77231">
        <ele>610.4</ele>
        <time>2021-03-01T13:32:13Z</time>
      </trkpt>
      <trkpt lat="46.74192" lon="5.77229">
        <ele>610.8</ele>
        <time>2021-03-01T13:32:18Z</time>
      </trkpt>
      <trkpt lat="46.74188" lon="5.77228">
        <ele>611.7</ele>
        <time>2021-03-01T13:32:24Z</time>
      </trkpt>
      <trkpt lat="46.74182" lon="5.77226">
        <ele>612.5</ele>
        <time>2021-03-01T13:32:29Z</time>
      </trkpt>
      <trkpt lat="46.74177" lon="5.77223">
        <ele>613.9</ele>
        <time>2021-03-01T13:32:33Z</time>
      </trkpt>
      <trkpt lat="46.74173" lon="5.77219">
        <ele>614.9</ele>
        <time>2021-03-01T13:32:37Z</time>
      </trkpt>
      <trkpt lat="46.74168" lon="5.77217">
        <ele>615.7</ele>
        <time>2021-03-01T13:32:41Z</time>
      </trkpt>
      <trkpt lat="46.74163" lon="5.77214">
        <ele>616.1</ele>
        <time>2021-03-01T13:32:45Z</time>
      </trkpt>
      <trkpt lat="46.74158" lon="5.77212">
        <ele>616.4</ele>
        <time>2021-03-01T13:32:49Z</time>
      </trkpt>
      <trkpt lat="46.74153" lon="5.7721">
        <ele>616.2</ele>
        <time>2021-03-01T13:32:53Z</time>
      </trkpt>
      <trkpt lat="46.74149" lon="5.77207">
        <ele>615.8</ele>
        <time>2021-03-01T13:32:57Z</time>
      </trkpt>
      <trkpt lat="46.74144" lon="5.77202">
        <ele>615</ele>
        <time>2021-03-01T13:33:02Z</time>
      </trkpt>
      <trkpt lat="46.7414" lon="5.77198">
        <ele>613.8</ele>
        <time>2021-03-01T13:33:07Z</time>
      </trkpt>
      <trkpt lat="46.74135" lon="5.77194">
        <ele>612.4</ele>
        <time>2021-03-01T13:33:12Z</time>
      </trkpt>
      <trkpt lat="46.74131" lon="5.77191">
        <ele>611.1</ele>
        <time>2021-03-01T13:33:16Z</time>
      </trkpt>
      <trkpt lat="46.74128" lon="5.77186">
        <ele>610.8</ele>
        <time>2021-03-01T13:33:21Z</time>
      </trkpt>
      <trkpt lat="46.74125" lon="5.77181">
        <ele>610.1</ele>
        <time>2021-03-01T13:33:25Z</time>
      </trkpt>
      <trkpt lat="46.74121" lon="5.77176">
        <ele>609.2</ele>
        <time>2021-03-01T13:33:29Z</time>
      </trkpt>
      <trkpt lat="46.74118" lon="5.77171">
        <ele>608.6</ele>
        <time>2021-03-01T13:33:33Z</time>
      </trkpt>
      <trkpt lat="46.74115" lon="5.77167">
        <ele>607.9</ele>
        <time>2021-03-01T13:33:37Z</time>
      </trkpt>
      <trkpt lat="46.74111" lon="5.77161">
        <ele>606.8</ele>
        <time>2021-03-01T13:33:42Z</time>
      </trkpt>
      <trkpt lat="46.74108" lon="5.77155">
        <ele>605.6</ele>
        <time>2021-03-01T13:33:47Z</time>
      </trkpt>
      <trkpt lat="46.74106" lon="5.77149">
        <ele>604.3</ele>
        <time>2021-03-01T13:33:51Z</time>
      </trkpt>
      <trkpt lat="46.74102" lon="5.77144">
        <ele>601.7</ele>
        <time>2021-03-01T13:33:56Z</time>
      </trkpt>
      <trkpt lat="46.74098" lon="5.7714">
        <ele>599.3</ele>
        <time>2021-03-01T13:34:01Z</time>
      </trkpt>
      <trkpt lat="46.74094" lon="5.77133">
        <ele>597.8</ele>
        <time>2021-03-01T13:34:05Z</time>
      </trkpt>
      <trkpt lat="46.74092" lon="5.77127">
        <ele>596.5</ele>
        <time>2021-03-01T13:34:09Z</time>
      </trkpt>
      <trkpt lat="46.74089" lon="5.77121">
        <ele>595.2</ele>
        <time>2021-03-01T13:34:14Z</time>
      </trkpt>
      <trkpt lat="46.74086" lon="5.77116">
        <ele>594.4</ele>
        <time>2021-03-01T13:34:18Z</time>
      </trkpt>
      <trkpt lat="46.74082" lon="5.77112">
        <ele>593.9</ele>
        <time>2021-03-01T13:34:22Z</time>
      </trkpt>
      <trkpt lat="46.74077" lon="5.77107">
        <ele>593.5</ele>
        <time>2021-03-01T13:34:26Z</time>
      </trkpt>
      <trkpt lat="46.74073" lon="5.77104">
        <ele>593.2</ele>
        <time>2021-03-01T13:34:31Z</time>
      </trkpt>
      <trkpt lat="46.74069" lon="5.77099">
        <ele>592.8</ele>
        <time>2021-03-01T13:34:38Z</time>
      </trkpt>
      <trkpt lat="46.74066" lon="5.77093">
        <ele>592.9</ele>
        <time>2021-03-01T13:34:42Z</time>
      </trkpt>
      <trkpt lat="46.74064" lon="5.77087">
        <ele>593.8</ele>
        <time>2021-03-01T13:34:46Z</time>
      </trkpt>
      <trkpt lat="46.74061" lon="5.7708">
        <ele>595.1</ele>
        <time>2021-03-01T13:34:52Z</time>
      </trkpt>
      <trkpt lat="46.74057" lon="5.77077">
        <ele>596</ele>
        <time>2021-03-01T13:34:58Z</time>
      </trkpt>
      <trkpt lat="46.74053" lon="5.77072">
        <ele>596.6</ele>
        <time>2021-03-01T13:35:03Z</time>
      </trkpt>
      <trkpt lat="46.74049" lon="5.77068">
        <ele>596.6</ele>
        <time>2021-03-01T13:35:07Z</time>
      </trkpt>
      <trkpt lat="46.74044" lon="5.77062">
        <ele>596.6</ele>
        <time>2021-03-01T13:35:11Z</time>
      </trkpt>
      <trkpt lat="46.7404" lon="5.77056">
        <ele>596.6</ele>
        <time>2021-03-01T13:35:15Z</time>
      </trkpt>
      <trkpt lat="46.74038" lon="5.7705">
        <ele>596.9</ele>
        <time>2021-03-01T13:35:19Z</time>
      </trkpt>
      <trkpt lat="46.74034" lon="5.77045">
        <ele>596.9</ele>
        <time>2021-03-01T13:35:24Z</time>
      </trkpt>
      <trkpt lat="46.7403" lon="5.7704">
        <ele>597.2</ele>
        <time>2021-03-01T13:35:29Z</time>
      </trkpt>
      <trkpt lat="46.74028" lon="5.77034">
        <ele>598.9</ele>
        <time>2021-03-01T13:35:35Z</time>
      </trkpt>
      <trkpt lat="46.74024" lon="5.77029">
        <ele>600.4</ele>
        <time>2021-03-01T13:35:39Z</time>
      </trkpt>
      <trkpt lat="46.7402" lon="5.77025">
        <ele>602.5</ele>
        <time>2021-03-01T13:35:43Z</time>
      </trkpt>
      <trkpt lat="46.74017" lon="5.77021">
        <ele>605</ele>
        <time>2021-03-01T13:35:47Z</time>
      </trkpt>
      <trkpt lat="46.74014" lon="5.77016">
        <ele>608</ele>
        <time>2021-03-01T13:35:51Z</time>
      </trkpt>
      <trkpt lat="46.7401" lon="5.77011">
        <ele>611.4</ele>
        <time>2021-03-01T13:35:55Z</time>
      </trkpt>
      <trkpt lat="46.74007" lon="5.77005">
        <ele>614.1</ele>
        <time>2021-03-01T13:35:59Z</time>
      </trkpt>
      <trkpt lat="46.74003" lon="5.77">
        <ele>616.6</ele>
        <time>2021-03-01T13:36:04Z</time>
      </trkpt>
      <trkpt lat="46.73998" lon="5.76996">
        <ele>618.2</ele>
        <time>2021-03-01T13:36:09Z</time>
      </trkpt>
      <trkpt lat="46.73994" lon="5.76991">
        <ele>619.5</ele>
        <time>2021-03-01T13:36:14Z</time>
      </trkpt>
      <trkpt lat="46.73989" lon="5.76986">
        <ele>620.2</ele>
        <time>2021-03-01T13:36:18Z</time>
      </trkpt>
      <trkpt lat="46.73986" lon="5.76982">
        <ele>621.2</ele>
        <time>2021-03-01T13:36:22Z</time>
      </trkpt>
      <trkpt lat="46.73982" lon="5.76977">
        <ele>622.2</ele>
        <time>2021-03-01T13:36:26Z</time>
      </trkpt>
      <trkpt lat="46.73979" lon="5.76972">
        <ele>623.8</ele>
        <time>2021-03-01T13:36:31Z</time>
      </trkpt>
      <trkpt lat="46.73976" lon="5.76966">
        <ele>625.3</ele>
        <time>2021-03-01T13:36:36Z</time>
      </trkpt>
      <trkpt lat="46.73974" lon="5.7696">
        <ele>624.5</ele>
        <time>2021-03-01T13:36:40Z</time>
      </trkpt>
      <trkpt lat="46.73971" lon="5.76953">
        <ele>622</ele>
        <time>2021-03-01T13:36:45Z</time>
      </trkpt>
      <trkpt lat="46.73967" lon="5.76948">
        <ele>618.4</ele>
        <time>2021-03-01T13:36:50Z</time>
      </trkpt>
      <trkpt lat="46.73963" lon="5.76944">
        <ele>615.3</ele>
        <time>2021-03-01T13:36:55Z</time>
      </trkpt>
      <trkpt lat="46.7396" lon="5.76938">
        <ele>613.7</ele>
        <time>2021-03-01T13:36:59Z</time>
      </trkpt>
      <trkpt lat="46.73958" lon="5.76932">
        <ele>612.5</ele>
        <time>2021-03-01T13:37:03Z</time>
      </trkpt>
      <trkpt lat="46.73954" lon="5.76926">
        <ele>612.3</ele>
        <time>2021-03-01T13:37:07Z</time>
      </trkpt>
      <trkpt lat="46.73951" lon="5.7692">
        <ele>613.3</ele>
        <time>2021-03-01T13:37:11Z</time>
      </trkpt>
      <trkpt lat="46.73948" lon="5.76915">
        <ele>614.4</ele>
        <time>2021-03-01T13:37:15Z</time>
      </trkpt>
      <trkpt lat="46.73945" lon="5.7691">
        <ele>615.8</ele>
        <time>2021-03-01T13:37:20Z</time>
      </trkpt>
      <trkpt lat="46.73941" lon="5.76906">
        <ele>617</ele>
        <time>2021-03-01T13:37:24Z</time>
      </trkpt>
      <trkpt lat="46.73936" lon="5.76904">
        <ele>618</ele>
        <time>2021-03-01T13:37:32Z</time>
      </trkpt>
      <trkpt lat="46.73933" lon="5.76899">
        <ele>617.5</ele>
        <time>2021-03-01T13:37:37Z</time>
      </trkpt>
      <trkpt lat="46.73929" lon="5.76893">
        <ele>615.8</ele>
        <time>2021-03-01T13:37:43Z</time>
      </trkpt>
      <trkpt lat="46.73926" lon="5.76887">
        <ele>614.2</ele>
        <time>2021-03-01T13:37:47Z</time>
      </trkpt>
      <trkpt lat="46.73921" lon="5.76883">
        <ele>612.1</ele>
        <time>2021-03-01T13:37:51Z</time>
      </trkpt>
      <trkpt lat="46.73917" lon="5.76879">
        <ele>610.3</ele>
        <time>2021-03-01T13:37:55Z</time>
      </trkpt>
      <trkpt lat="46.73911" lon="5.76877">
        <ele>608.5</ele>
        <time>2021-03-01T13:37:59Z</time>
      </trkpt>
      <trkpt lat="46.73907" lon="5.76874">
        <ele>607.1</ele>
        <time>2021-03-01T13:38:03Z</time>
      </trkpt>
      <trkpt lat="46.73903" lon="5.7687">
        <ele>606.3</ele>
        <time>2021-03-01T13:38:08Z</time>
      </trkpt>
      <trkpt lat="46.73898" lon="5.76868">
        <ele>606.2</ele>
        <time>2021-03-01T13:38:13Z</time>
      </trkpt>
      <trkpt lat="46.73893" lon="5.76867">
        <ele>606.9</ele>
        <time>2021-03-01T13:38:17Z</time>
      </trkpt>
      <trkpt lat="46.73889" lon="5.76865">
        <ele>607.6</ele>
        <time>2021-03-01T13:38:21Z</time>
      </trkpt>
      <trkpt lat="46.73884" lon="5.76862">
        <ele>608.2</ele>
        <time>2021-03-01T13:38:26Z</time>
      </trkpt>
      <trkpt lat="46.7388" lon="5.76859">
        <ele>608.9</ele>
        <time>2021-03-01T13:38:30Z</time>
      </trkpt>
      <trkpt lat="46.73876" lon="5.76855">
        <ele>610</ele>
        <time>2021-03-01T13:38:34Z</time>
      </trkpt>
      <trkpt lat="46.73871" lon="5.7685">
        <ele>610.5</ele>
        <time>2021-03-01T13:38:38Z</time>
      </trkpt>
      <trkpt lat="46.73867" lon="5.76846">
        <ele>610.4</ele>
        <time>2021-03-01T13:38:42Z</time>
      </trkpt>
      <trkpt lat="46.73863" lon="5.76843">
        <ele>609.7</ele>
        <time>2021-03-01T13:38:46Z</time>
      </trkpt>
      <trkpt lat="46.73858" lon="5.76839">
        <ele>609.4</ele>
        <time>2021-03-01T13:38:50Z</time>
      </trkpt>
      <trkpt lat="46.73853" lon="5.76834">
        <ele>609.4</ele>
        <time>2021-03-01T13:38:54Z</time>
      </trkpt>
      <trkpt lat="46.73848" lon="5.76829">
        <ele>609.7</ele>
        <time>2021-03-01T13:38:58Z</time>
      </trkpt>
      <trkpt lat="46.73844" lon="5.76825">
        <ele>610</ele>
        <time>2021-03-01T13:39:03Z</time>
      </trkpt>
      <trkpt lat="46.73841" lon="5.76818">
        <ele>610.7</ele>
        <time>2021-03-01T13:39:09Z</time>
      </trkpt>
      <trkpt lat="46.73837" lon="5.76813">
        <ele>611.8</ele>
        <time>2021-03-01T13:39:14Z</time>
      </trkpt>
      <trkpt lat="46.73833" lon="5.7681">
        <ele>612.2</ele>
        <time>2021-03-01T13:39:19Z</time>
      </trkpt>
      <trkpt lat="46.73829" lon="5.76804">
        <ele>612.8</ele>
        <time>2021-03-01T13:39:24Z</time>
      </trkpt>
      <trkpt lat="46.73826" lon="5.76799">
        <ele>613.8</ele>
        <time>2021-03-01T13:39:29Z</time>
      </trkpt>
      <trkpt lat="46.73821" lon="5.76795">
        <ele>614.2</ele>
        <time>2021-03-01T13:39:34Z</time>
      </trkpt>
      <trkpt lat="46.73817" lon="5.76791">
        <ele>614.5</ele>
        <time>2021-03-01T13:39:38Z</time>
      </trkpt>
      <trkpt lat="46.73812" lon="5.76787">
        <ele>615</ele>
        <time>2021-03-01T13:39:42Z</time>
      </trkpt>
      <trkpt lat="46.73808" lon="5.76784">
        <ele>616.4</ele>
        <time>2021-03-01T13:39:47Z</time>
      </trkpt>
      <trkpt lat="46.73803" lon="5.76779">
        <ele>618.3</ele>
        <time>2021-03-01T13:39:52Z</time>
      </trkpt>
      <trkpt lat="46.738" lon="5.76775">
        <ele>619.5</ele>
        <time>2021-03-01T13:39:57Z</time>
      </trkpt>
      <trkpt lat="46.73797" lon="5.76769">
        <ele>620.4</ele>
        <time>2021-03-01T13:40:03Z</time>
      </trkpt>
      <trkpt lat="46.73799" lon="5.76763">
        <ele>620.4</ele>
        <time>2021-03-01T13:40:10Z</time>
      </trkpt>
      <trkpt lat="46.73796" lon="5.76757">
        <ele>619.7</ele>
        <time>2021-03-01T13:40:16Z</time>
      </trkpt>
      <trkpt lat="46.73795" lon="5.76749">
        <ele>619.1</ele>
        <time>2021-03-01T13:40:22Z</time>
      </trkpt>
      <trkpt lat="46.73795" lon="5.76743">
        <ele>618</ele>
        <time>2021-03-01T13:40:28Z</time>
      </trkpt>
      <trkpt lat="46.73793" lon="5.76735">
        <ele>617.3</ele>
        <time>2021-03-01T13:40:33Z</time>
      </trkpt>
      <trkpt lat="46.73791" lon="5.76729">
        <ele>616.8</ele>
        <time>2021-03-01T13:40:37Z</time>
      </trkpt>
      <trkpt lat="46.7379" lon="5.76722">
        <ele>613.8</ele>
        <time>2021-03-01T13:40:55Z</time>
      </trkpt>
      <trkpt lat="46.73787" lon="5.76717">
        <ele>611.6</ele>
        <time>2021-03-01T13:41:01Z</time>
      </trkpt>
      <trkpt lat="46.73785" lon="5.7671">
        <ele>609.4</ele>
        <time>2021-03-01T13:41:07Z</time>
      </trkpt>
      <trkpt lat="46.73781" lon="5.76704">
        <ele>609</ele>
        <time>2021-03-01T13:41:11Z</time>
      </trkpt>
      <trkpt lat="46.73777" lon="5.76698">
        <ele>608.7</ele>
        <time>2021-03-01T13:41:15Z</time>
      </trkpt>
      <trkpt lat="46.73773" lon="5.76693">
        <ele>608.7</ele>
        <time>2021-03-01T13:41:20Z</time>
      </trkpt>
      <trkpt lat="46.7377" lon="5.76687">
        <ele>608.8</ele>
        <time>2021-03-01T13:41:26Z</time>
      </trkpt>
      <trkpt lat="46.73769" lon="5.76681">
        <ele>608.8</ele>
        <time>2021-03-01T13:41:33Z</time>
      </trkpt>
      <trkpt lat="46.73768" lon="5.76674">
        <ele>609.4</ele>
        <time>2021-03-01T13:41:42Z</time>
      </trkpt>
      <trkpt lat="46.73766" lon="5.76667">
        <ele>610.2</ele>
        <time>2021-03-01T13:41:48Z</time>
      </trkpt>
      <trkpt lat="46.73764" lon="5.7666">
        <ele>611.1</ele>
        <time>2021-03-01T13:41:54Z</time>
      </trkpt>
      <trkpt lat="46.73762" lon="5.76653">
        <ele>611.5</ele>
        <time>2021-03-01T13:41:58Z</time>
      </trkpt>
      <trkpt lat="46.7376" lon="5.76646">
        <ele>611.8</ele>
        <time>2021-03-01T13:42:02Z</time>
      </trkpt>
      <trkpt lat="46.7376" lon="5.76639">
        <ele>612.1</ele>
        <time>2021-03-01T13:42:07Z</time>
      </trkpt>
      <trkpt lat="46.73762" lon="5.76632">
        <ele>612</ele>
        <time>2021-03-01T13:42:13Z</time>
      </trkpt>
      <trkpt lat="46.73762" lon="5.76624">
        <ele>611.3</ele>
        <time>2021-03-01T13:42:19Z</time>
      </trkpt>
      <trkpt lat="46.73761" lon="5.76617">
        <ele>610.6</ele>
        <time>2021-03-01T13:42:23Z</time>
      </trkpt>
      <trkpt lat="46.7376" lon="5.7661">
        <ele>609.8</ele>
        <time>2021-03-01T13:42:27Z</time>
      </trkpt>
      <trkpt lat="46.73758" lon="5.76602">
        <ele>609</ele>
        <time>2021-03-01T13:42:31Z</time>
      </trkpt>
      <trkpt lat="46.73756" lon="5.76592">
        <ele>608.2</ele>
        <time>2021-03-01T13:42:35Z</time>
      </trkpt>
      <trkpt lat="46.73753" lon="5.76582">
        <ele>607.3</ele>
        <time>2021-03-01T13:42:39Z</time>
      </trkpt>
      <trkpt lat="46.73752" lon="5.76575">
        <ele>606.2</ele>
        <time>2021-03-01T13:42:43Z</time>
      </trkpt>
      <trkpt lat="46.73752" lon="5.76568">
        <ele>605.2</ele>
        <time>2021-03-01T13:42:47Z</time>
      </trkpt>
      <trkpt lat="46.7375" lon="5.76559">
        <ele>604.2</ele>
        <time>2021-03-01T13:42:51Z</time>
      </trkpt>
      <trkpt lat="46.73749" lon="5.76552">
        <ele>603</ele>
        <time>2021-03-01T13:42:55Z</time>
      </trkpt>
      <trkpt lat="46.73749" lon="5.76543">
        <ele>601.3</ele>
        <time>2021-03-01T13:43:00Z</time>
      </trkpt>
      <trkpt lat="46.73749" lon="5.76536">
        <ele>600</ele>
        <time>2021-03-01T13:43:05Z</time>
      </trkpt>
      <trkpt lat="46.73748" lon="5.76528">
        <ele>599.8</ele>
        <time>2021-03-01T13:43:09Z</time>
      </trkpt>
      <trkpt lat="46.73747" lon="5.7652">
        <ele>599.8</ele>
        <time>2021-03-01T13:43:13Z</time>
      </trkpt>
      <trkpt lat="46.73746" lon="5.76512">
        <ele>599.8</ele>
        <time>2021-03-01T13:43:17Z</time>
      </trkpt>
      <trkpt lat="46.73744" lon="5.76503">
        <ele>599.9</ele>
        <time>2021-03-01T13:43:21Z</time>
      </trkpt>
      <trkpt lat="46.73743" lon="5.76497">
        <ele>599.9</ele>
        <time>2021-03-01T13:43:25Z</time>
      </trkpt>
      <trkpt lat="46.73741" lon="5.7649">
        <ele>600.1</ele>
        <time>2021-03-01T13:43:29Z</time>
      </trkpt>
      <trkpt lat="46.73741" lon="5.76483">
        <ele>600.4</ele>
        <time>2021-03-01T13:43:33Z</time>
      </trkpt>
      <trkpt lat="46.73739" lon="5.76476">
        <ele>600.5</ele>
        <time>2021-03-01T13:43:37Z</time>
      </trkpt>
      <trkpt lat="46.73736" lon="5.7647">
        <ele>600.2</ele>
        <time>2021-03-01T13:43:42Z</time>
      </trkpt>
      <trkpt lat="46.73734" lon="5.76464">
        <ele>599.6</ele>
        <time>2021-03-01T13:43:47Z</time>
      </trkpt>
      <trkpt lat="46.73733" lon="5.76456">
        <ele>599.3</ele>
        <time>2021-03-01T13:43:53Z</time>
      </trkpt>
      <trkpt lat="46.73732" lon="5.76448">
        <ele>598.9</ele>
        <time>2021-03-01T13:43:58Z</time>
      </trkpt>
      <trkpt lat="46.73731" lon="5.76442">
        <ele>598.9</ele>
        <time>2021-03-01T13:44:02Z</time>
      </trkpt>
      <trkpt lat="46.7373" lon="5.76435">
        <ele>598.6</ele>
        <time>2021-03-01T13:44:08Z</time>
      </trkpt>
      <trkpt lat="46.7373" lon="5.76428">
        <ele>598.6</ele>
        <time>2021-03-01T13:44:14Z</time>
      </trkpt>
      <trkpt lat="46.73727" lon="5.7642">
        <ele>598.6</ele>
        <time>2021-03-01T13:44:18Z</time>
      </trkpt>
      <trkpt lat="46.73724" lon="5.76413">
        <ele>598.6</ele>
        <time>2021-03-01T13:44:22Z</time>
      </trkpt>
      <trkpt lat="46.73722" lon="5.76407">
        <ele>598.6</ele>
        <time>2021-03-01T13:44:26Z</time>
      </trkpt>
      <trkpt lat="46.73721" lon="5.764">
        <ele>598.6</ele>
        <time>2021-03-01T13:44:30Z</time>
      </trkpt>
      <trkpt lat="46.73721" lon="5.76394">
        <ele>598.6</ele>
        <time>2021-03-01T13:44:34Z</time>
      </trkpt>
      <trkpt lat="46.73722" lon="5.76387">
        <ele>598.6</ele>
        <time>2021-03-01T13:44:38Z</time>
      </trkpt>
      <trkpt lat="46.73721" lon="5.76379">
        <ele>599</ele>
        <time>2021-03-01T13:44:42Z</time>
      </trkpt>
      <trkpt lat="46.7372" lon="5.76371">
        <ele>599.6</ele>
        <time>2021-03-01T13:44:46Z</time>
      </trkpt>
      <trkpt lat="46.73717" lon="5.76364">
        <ele>599.9</ele>
        <time>2021-03-01T13:44:50Z</time>
      </trkpt>
      <trkpt lat="46.73714" lon="5.76356">
        <ele>600.1</ele>
        <time>2021-03-01T13:44:54Z</time>
      </trkpt>
      <trkpt lat="46.73711" lon="5.76351">
        <ele>600</ele>
        <time>2021-03-01T13:44:58Z</time>
      </trkpt>
      <trkpt lat="46.73715" lon="5.76348">
        <ele>601</ele>
        <time>2021-03-01T13:45:06Z</time>
      </trkpt>
      <trkpt lat="46.73717" lon="5.76342">
        <ele>601.6</ele>
        <time>2021-03-01T13:45:12Z</time>
      </trkpt>
      <trkpt lat="46.73717" lon="5.76335">
        <ele>601.5</ele>
        <time>2021-03-01T13:45:23Z</time>
      </trkpt>
      <trkpt lat="46.73715" lon="5.7633">
        <ele>600.8</ele>
        <time>2021-03-01T13:45:34Z</time>
      </trkpt>
      <trkpt lat="46.73719" lon="5.76327">
        <ele>598.7</ele>
        <time>2021-03-01T13:45:48Z</time>
      </trkpt>
      <trkpt lat="46.73714" lon="5.76332">
        <ele>597.8</ele>
        <time>2021-03-01T13:46:11Z</time>
      </trkpt>
      <trkpt lat="46.7371" lon="5.76331">
        <ele>599</ele>
        <time>2021-03-01T13:46:20Z</time>
      </trkpt>
      <trkpt lat="46.73705" lon="5.76327">
        <ele>599.6</ele>
        <time>2021-03-01T13:46:25Z</time>
      </trkpt>
      <trkpt lat="46.73704" lon="5.76321">
        <ele>600.4</ele>
        <time>2021-03-01T13:46:31Z</time>
      </trkpt>
      <trkpt lat="46.73702" lon="5.76314">
        <ele>601.1</ele>
        <time>2021-03-01T13:46:36Z</time>
      </trkpt>
      <trkpt lat="46.737" lon="5.76307">
        <ele>601.8</ele>
        <time>2021-03-01T13:46:42Z</time>
      </trkpt>
      <trkpt lat="46.73697" lon="5.76302">
        <ele>602.2</ele>
        <time>2021-03-01T13:46:47Z</time>
      </trkpt>
      <trkpt lat="46.73694" lon="5.76297">
        <ele>602.4</ele>
        <time>2021-03-01T13:46:51Z</time>
      </trkpt>
      <trkpt lat="46.73691" lon="5.7629">
        <ele>602.4</ele>
        <time>2021-03-01T13:46:55Z</time>
      </trkpt>
      <trkpt lat="46.73687" lon="5.76281">
        <ele>602.7</ele>
        <time>2021-03-01T13:46:59Z</time>
      </trkpt>
      <trkpt lat="46.73683" lon="5.76275">
        <ele>603.2</ele>
        <time>2021-03-01T13:47:03Z</time>
      </trkpt>
      <trkpt lat="46.7368" lon="5.7627">
        <ele>603.5</ele>
        <time>2021-03-01T13:47:08Z</time>
      </trkpt>
      <trkpt lat="46.73678" lon="5.76262">
        <ele>603.9</ele>
        <time>2021-03-01T13:47:13Z</time>
      </trkpt>
      <trkpt lat="46.73676" lon="5.76256">
        <ele>604.2</ele>
        <time>2021-03-01T13:47:18Z</time>
      </trkpt>
      <trkpt lat="46.73673" lon="5.7625">
        <ele>604.7</ele>
        <time>2021-03-01T13:47:22Z</time>
      </trkpt>
      <trkpt lat="46.73671" lon="5.76243">
        <ele>605.3</ele>
        <time>2021-03-01T13:47:26Z</time>
      </trkpt>
      <trkpt lat="46.73669" lon="5.76237">
        <ele>605.9</ele>
        <time>2021-03-01T13:47:30Z</time>
      </trkpt>
      <trkpt lat="46.73665" lon="5.76231">
        <ele>606.3</ele>
        <time>2021-03-01T13:47:35Z</time>
      </trkpt>
      <trkpt lat="46.73663" lon="5.76225">
        <ele>606.2</ele>
        <time>2021-03-01T13:47:39Z</time>
      </trkpt>
      <trkpt lat="46.7366" lon="5.76218">
        <ele>606.2</ele>
        <time>2021-03-01T13:47:43Z</time>
      </trkpt>
      <trkpt lat="46.73658" lon="5.76211">
        <ele>607.4</ele>
        <time>2021-03-01T13:47:49Z</time>
      </trkpt>
      <trkpt lat="46.73657" lon="5.76203">
        <ele>608.8</ele>
        <time>2021-03-01T13:47:55Z</time>
      </trkpt>
      <trkpt lat="46.73656" lon="5.76197">
        <ele>609.7</ele>
        <time>2021-03-01T13:48:00Z</time>
      </trkpt>
      <trkpt lat="46.73654" lon="5.7619">
        <ele>610.5</ele>
        <time>2021-03-01T13:48:04Z</time>
      </trkpt>
      <trkpt lat="46.73652" lon="5.76184">
        <ele>611.4</ele>
        <time>2021-03-01T13:48:08Z</time>
      </trkpt>
      <trkpt lat="46.73649" lon="5.76177">
        <ele>612</ele>
        <time>2021-03-01T13:48:12Z</time>
      </trkpt>
      <trkpt lat="46.73645" lon="5.76172">
        <ele>612.7</ele>
        <time>2021-03-01T13:48:16Z</time>
      </trkpt>
      <trkpt lat="46.73642" lon="5.76167">
        <ele>613.1</ele>
        <time>2021-03-01T13:48:20Z</time>
      </trkpt>
      <trkpt lat="46.73641" lon="5.7616">
        <ele>613.5</ele>
        <time>2021-03-01T13:48:25Z</time>
      </trkpt>
      <trkpt lat="46.7364" lon="5.76154">
        <ele>613.7</ele>
        <time>2021-03-01T13:48:29Z</time>
      </trkpt>
      <trkpt lat="46.73639" lon="5.76147">
        <ele>613.9</ele>
        <time>2021-03-01T13:48:33Z</time>
      </trkpt>
      <trkpt lat="46.73636" lon="5.76142">
        <ele>614</ele>
        <time>2021-03-01T13:48:37Z</time>
      </trkpt>
      <trkpt lat="46.73633" lon="5.76135">
        <ele>613.9</ele>
        <time>2021-03-01T13:48:41Z</time>
      </trkpt>
      <trkpt lat="46.73629" lon="5.76131">
        <ele>613.3</ele>
        <time>2021-03-01T13:48:46Z</time>
      </trkpt>
      <trkpt lat="46.73625" lon="5.76128">
        <ele>613.2</ele>
        <time>2021-03-01T13:48:52Z</time>
      </trkpt>
      <trkpt lat="46.73624" lon="5.76121">
        <ele>612</ele>
        <time>2021-03-01T13:49:00Z</time>
      </trkpt>
      <trkpt lat="46.73627" lon="5.76116">
        <ele>607.5</ele>
        <time>2021-03-01T13:49:48Z</time>
      </trkpt>
      <trkpt lat="46.73631" lon="5.76111">
        <ele>604.4</ele>
        <time>2021-03-01T13:49:54Z</time>
      </trkpt>
      <trkpt lat="46.73635" lon="5.76108">
        <ele>603</ele>
        <time>2021-03-01T13:50:07Z</time>
      </trkpt>
      <trkpt lat="46.73637" lon="5.76101">
        <ele>602.6</ele>
        <time>2021-03-01T13:50:13Z</time>
      </trkpt>
      <trkpt lat="46.7364" lon="5.76097">
        <ele>603.8</ele>
        <time>2021-03-01T13:50:23Z</time>
      </trkpt>
      <trkpt lat="46.73645" lon="5.76093">
        <ele>602</ele>
        <time>2021-03-01T13:50:28Z</time>
      </trkpt>
      <trkpt lat="46.73649" lon="5.76091">
        <ele>600.3</ele>
        <time>2021-03-01T13:50:32Z</time>
      </trkpt>
      <trkpt lat="46.73654" lon="5.76089">
        <ele>598.8</ele>
        <time>2021-03-01T13:50:36Z</time>
      </trkpt>
      <trkpt lat="46.7366" lon="5.76088">
        <ele>597.4</ele>
        <time>2021-03-01T13:50:40Z</time>
      </trkpt>
      <trkpt lat="46.73664" lon="5.76085">
        <ele>595.5</ele>
        <time>2021-03-01T13:50:46Z</time>
      </trkpt>
      <trkpt lat="46.73668" lon="5.76084">
        <ele>595.3</ele>
        <time>2021-03-01T13:50:52Z</time>
      </trkpt>
      <trkpt lat="46.73672" lon="5.76079">
        <ele>595.8</ele>
        <time>2021-03-01T13:50:58Z</time>
      </trkpt>
      <trkpt lat="46.73674" lon="5.76072">
        <ele>595.5</ele>
        <time>2021-03-01T13:51:04Z</time>
      </trkpt>
      <trkpt lat="46.73674" lon="5.76065">
        <ele>595</ele>
        <time>2021-03-01T13:51:12Z</time>
      </trkpt>
      <trkpt lat="46.73675" lon="5.76059">
        <ele>595.6</ele>
        <time>2021-03-01T13:51:18Z</time>
      </trkpt>
      <trkpt lat="46.73677" lon="5.76052">
        <ele>596.6</ele>
        <time>2021-03-01T13:51:23Z</time>
      </trkpt>
      <trkpt lat="46.73679" lon="5.76046">
        <ele>597.7</ele>
        <time>2021-03-01T13:51:27Z</time>
      </trkpt>
      <trkpt lat="46.73682" lon="5.7604">
        <ele>598.8</ele>
        <time>2021-03-01T13:51:32Z</time>
      </trkpt>
      <trkpt lat="46.73686" lon="5.76035">
        <ele>600.7</ele>
        <time>2021-03-01T13:51:39Z</time>
      </trkpt>
      <trkpt lat="46.7369" lon="5.76032">
        <ele>601.7</ele>
        <time>2021-03-01T13:51:44Z</time>
      </trkpt>
      <trkpt lat="46.73696" lon="5.76029">
        <ele>601.7</ele>
        <time>2021-03-01T13:51:49Z</time>
      </trkpt>
      <trkpt lat="46.73699" lon="5.76024">
        <ele>601.9</ele>
        <time>2021-03-01T13:51:53Z</time>
      </trkpt>
      <trkpt lat="46.73702" lon="5.76019">
        <ele>602.3</ele>
        <time>2021-03-01T13:51:57Z</time>
      </trkpt>
      <trkpt lat="46.73705" lon="5.76013">
        <ele>603.2</ele>
        <time>2021-03-01T13:52:03Z</time>
      </trkpt>
      <trkpt lat="46.73709" lon="5.76009">
        <ele>603.5</ele>
        <time>2021-03-01T13:52:08Z</time>
      </trkpt>
      <trkpt lat="46.73714" lon="5.76004">
        <ele>603</ele>
        <time>2021-03-01T13:52:13Z</time>
      </trkpt>
      <trkpt lat="46.73718" lon="5.76">
        <ele>601.6</ele>
        <time>2021-03-01T13:52:19Z</time>
      </trkpt>
      <trkpt lat="46.73723" lon="5.75997">
        <ele>600.7</ele>
        <time>2021-03-01T13:52:24Z</time>
      </trkpt>
      <trkpt lat="46.73728" lon="5.75995">
        <ele>600.1</ele>
        <time>2021-03-01T13:52:29Z</time>
      </trkpt>
      <trkpt lat="46.73733" lon="5.75992">
        <ele>599.5</ele>
        <time>2021-03-01T13:52:34Z</time>
      </trkpt>
      <trkpt lat="46.73737" lon="5.75991">
        <ele>599.3</ele>
        <time>2021-03-01T13:52:42Z</time>
      </trkpt>
      <trkpt lat="46.73742" lon="5.75991">
        <ele>599.3</ele>
        <time>2021-03-01T13:52:48Z</time>
      </trkpt>
      <trkpt lat="46.73747" lon="5.75988">
        <ele>598.9</ele>
        <time>2021-03-01T13:52:55Z</time>
      </trkpt>
      <trkpt lat="46.73751" lon="5.75987">
        <ele>598.8</ele>
        <time>2021-03-01T13:52:59Z</time>
      </trkpt>
      <trkpt lat="46.73756" lon="5.75986">
        <ele>598.5</ele>
        <time>2021-03-01T13:53:04Z</time>
      </trkpt>
      <trkpt lat="46.73761" lon="5.75984">
        <ele>598.2</ele>
        <time>2021-03-01T13:53:09Z</time>
      </trkpt>
      <trkpt lat="46.73766" lon="5.75983">
        <ele>597.9</ele>
        <time>2021-03-01T13:53:14Z</time>
      </trkpt>
      <trkpt lat="46.73771" lon="5.7598">
        <ele>597.6</ele>
        <time>2021-03-01T13:53:19Z</time>
      </trkpt>
      <trkpt lat="46.73772" lon="5.75973">
        <ele>597.3</ele>
        <time>2021-03-01T13:53:25Z</time>
      </trkpt>
      <trkpt lat="46.73771" lon="5.75966">
        <ele>597.2</ele>
        <time>2021-03-01T13:53:30Z</time>
      </trkpt>
      <trkpt lat="46.73767" lon="5.75962">
        <ele>597.3</ele>
        <time>2021-03-01T13:53:38Z</time>
      </trkpt>
      <trkpt lat="46.7376" lon="5.75959">
        <ele>601</ele>
        <time>2021-03-01T13:54:28Z</time>
      </trkpt>
      <trkpt lat="46.73755" lon="5.75957">
        <ele>603</ele>
        <time>2021-03-01T13:54:32Z</time>
      </trkpt>
      <trkpt lat="46.73752" lon="5.75952">
        <ele>604.6</ele>
        <time>2021-03-01T13:54:37Z</time>
      </trkpt>
      <trkpt lat="46.73751" lon="5.75946">
        <ele>605.5</ele>
        <time>2021-03-01T13:54:42Z</time>
      </trkpt>
      <trkpt lat="46.73749" lon="5.75939">
        <ele>605.8</ele>
        <time>2021-03-01T13:54:47Z</time>
      </trkpt>
      <trkpt lat="46.73746" lon="5.75933">
        <ele>605.8</ele>
        <time>2021-03-01T13:54:52Z</time>
      </trkpt>
      <trkpt lat="46.73742" lon="5.75928">
        <ele>605.5</ele>
        <time>2021-03-01T13:54:56Z</time>
      </trkpt>
      <trkpt lat="46.73739" lon="5.75924">
        <ele>605.2</ele>
        <time>2021-03-01T13:55:02Z</time>
      </trkpt>
      <trkpt lat="46.73736" lon="5.75919">
        <ele>604.7</ele>
        <time>2021-03-01T13:55:07Z</time>
      </trkpt>
      <trkpt lat="46.73732" lon="5.75914">
        <ele>604.4</ele>
        <time>2021-03-01T13:55:11Z</time>
      </trkpt>
      <trkpt lat="46.73728" lon="5.75909">
        <ele>604</ele>
        <time>2021-03-01T13:55:15Z</time>
      </trkpt>
      <trkpt lat="46.73724" lon="5.75905">
        <ele>604</ele>
        <time>2021-03-01T13:55:19Z</time>
      </trkpt>
      <trkpt lat="46.73721" lon="5.75901">
        <ele>604</ele>
        <time>2021-03-01T13:55:23Z</time>
      </trkpt>
      <trkpt lat="46.73717" lon="5.75896">
        <ele>603.9</ele>
        <time>2021-03-01T13:55:28Z</time>
      </trkpt>
      <trkpt lat="46.73713" lon="5.75891">
        <ele>603.8</ele>
        <time>2021-03-01T13:55:32Z</time>
      </trkpt>
      <trkpt lat="46.7371" lon="5.75887">
        <ele>603.8</ele>
        <time>2021-03-01T13:55:36Z</time>
      </trkpt>
      <trkpt lat="46.73708" lon="5.75881">
        <ele>603.5</ele>
        <time>2021-03-01T13:55:40Z</time>
      </trkpt>
      <trkpt lat="46.73705" lon="5.75874">
        <ele>603.3</ele>
        <time>2021-03-01T13:55:45Z</time>
      </trkpt>
      <trkpt lat="46.73703" lon="5.75867">
        <ele>603</ele>
        <time>2021-03-01T13:55:51Z</time>
      </trkpt>
      <trkpt lat="46.73702" lon="5.7586">
        <ele>602.6</ele>
        <time>2021-03-01T13:55:57Z</time>
      </trkpt>
      <trkpt lat="46.73702" lon="5.75854">
        <ele>602</ele>
        <time>2021-03-01T13:56:02Z</time>
      </trkpt>
      <trkpt lat="46.737" lon="5.75847">
        <ele>601</ele>
        <time>2021-03-01T13:56:08Z</time>
      </trkpt>
      <trkpt lat="46.73696" lon="5.75841">
        <ele>600.3</ele>
        <time>2021-03-01T13:56:13Z</time>
      </trkpt>
      <trkpt lat="46.73693" lon="5.75837">
        <ele>600</ele>
        <time>2021-03-01T13:56:24Z</time>
      </trkpt>
      <trkpt lat="46.73693" lon="5.75829">
        <ele>599.6</ele>
        <time>2021-03-01T13:56:49Z</time>
      </trkpt>
      <trkpt lat="46.7369" lon="5.75823">
        <ele>599.4</ele>
        <time>2021-03-01T13:56:53Z</time>
      </trkpt>
      <trkpt lat="46.73685" lon="5.75821">
        <ele>599.5</ele>
        <time>2021-03-01T13:56:57Z</time>
      </trkpt>
      <trkpt lat="46.73681" lon="5.75815">
        <ele>599.5</ele>
        <time>2021-03-01T13:57:02Z</time>
      </trkpt>
      <trkpt lat="46.73677" lon="5.7581">
        <ele>599.4</ele>
        <time>2021-03-01T13:57:08Z</time>
      </trkpt>
      <trkpt lat="46.73673" lon="5.75807">
        <ele>599.7</ele>
        <time>2021-03-01T13:57:15Z</time>
      </trkpt>
      <trkpt lat="46.73668" lon="5.75803">
        <ele>600.1</ele>
        <time>2021-03-01T13:57:20Z</time>
      </trkpt>
      <trkpt lat="46.73664" lon="5.75801">
        <ele>600.9</ele>
        <time>2021-03-01T13:57:27Z</time>
      </trkpt>
      <trkpt lat="46.73661" lon="5.75795">
        <ele>601.1</ele>
        <time>2021-03-01T13:57:48Z</time>
      </trkpt>
      <trkpt lat="46.73657" lon="5.75791">
        <ele>600.6</ele>
        <time>2021-03-01T13:57:54Z</time>
      </trkpt>
      <trkpt lat="46.73652" lon="5.75789">
        <ele>600.7</ele>
        <time>2021-03-01T13:58:00Z</time>
      </trkpt>
      <trkpt lat="46.73647" lon="5.75786">
        <ele>601.2</ele>
        <time>2021-03-01T13:58:05Z</time>
      </trkpt>
      <trkpt lat="46.73643" lon="5.75783">
        <ele>602</ele>
        <time>2021-03-01T13:58:12Z</time>
      </trkpt>
      <trkpt lat="46.7364" lon="5.75777">
        <ele>602.1</ele>
        <time>2021-03-01T13:58:20Z</time>
      </trkpt>
      <trkpt lat="46.73637" lon="5.75771">
        <ele>602.2</ele>
        <time>2021-03-01T13:58:25Z</time>
      </trkpt>
      <trkpt lat="46.73633" lon="5.75766">
        <ele>602.6</ele>
        <time>2021-03-01T13:58:30Z</time>
      </trkpt>
      <trkpt lat="46.73629" lon="5.75761">
        <ele>602.6</ele>
        <time>2021-03-01T13:58:34Z</time>
      </trkpt>
      <trkpt lat="46.73626" lon="5.75756">
        <ele>602.8</ele>
        <time>2021-03-01T13:58:39Z</time>
      </trkpt>
      <trkpt lat="46.73622" lon="5.7575">
        <ele>603</ele>
        <time>2021-03-01T13:58:43Z</time>
      </trkpt>
      <trkpt lat="46.7362" lon="5.75744">
        <ele>603.3</ele>
        <time>2021-03-01T13:58:48Z</time>
      </trkpt>
      <trkpt lat="46.73618" lon="5.75738">
        <ele>603.8</ele>
        <time>2021-03-01T13:58:53Z</time>
      </trkpt>
      <trkpt lat="46.73616" lon="5.75731">
        <ele>604.4</ele>
        <time>2021-03-01T13:58:58Z</time>
      </trkpt>
      <trkpt lat="46.73612" lon="5.75725">
        <ele>605.1</ele>
        <time>2021-03-01T13:59:03Z</time>
      </trkpt>
      <trkpt lat="46.73607" lon="5.75723">
        <ele>605.6</ele>
        <time>2021-03-01T13:59:08Z</time>
      </trkpt>
      <trkpt lat="46.73603" lon="5.75721">
        <ele>605.9</ele>
        <time>2021-03-01T13:59:13Z</time>
      </trkpt>
      <trkpt lat="46.73598" lon="5.75716">
        <ele>605.5</ele>
        <time>2021-03-01T13:59:19Z</time>
      </trkpt>
      <trkpt lat="46.73594" lon="5.75711">
        <ele>605.1</ele>
        <time>2021-03-01T13:59:24Z</time>
      </trkpt>
      <trkpt lat="46.7359" lon="5.75706">
        <ele>604.5</ele>
        <time>2021-03-01T13:59:31Z</time>
      </trkpt>
      <trkpt lat="46.73587" lon="5.757">
        <ele>604.6</ele>
        <time>2021-03-01T13:59:35Z</time>
      </trkpt>
      <trkpt lat="46.73583" lon="5.75695">
        <ele>604.6</ele>
        <time>2021-03-01T13:59:39Z</time>
      </trkpt>
      <trkpt lat="46.73579" lon="5.75691">
        <ele>604.4</ele>
        <time>2021-03-01T13:59:44Z</time>
      </trkpt>
      <trkpt lat="46.73575" lon="5.75688">
        <ele>604.3</ele>
        <time>2021-03-01T13:59:48Z</time>
      </trkpt>
      <trkpt lat="46.7357" lon="5.75686">
        <ele>604.1</ele>
        <time>2021-03-01T13:59:53Z</time>
      </trkpt>
      <trkpt lat="46.73566" lon="5.75684">
        <ele>603.9</ele>
        <time>2021-03-01T13:59:58Z</time>
      </trkpt>
      <trkpt lat="46.73561" lon="5.7568">
        <ele>603.9</ele>
        <time>2021-03-01T14:00:03Z</time>
      </trkpt>
      <trkpt lat="46.73557" lon="5.75678">
        <ele>604.1</ele>
        <time>2021-03-01T14:00:08Z</time>
      </trkpt>
      <trkpt lat="46.73553" lon="5.75674">
        <ele>604.5</ele>
        <time>2021-03-01T14:00:13Z</time>
      </trkpt>
      <trkpt lat="46.73549" lon="5.75669">
        <ele>604.8</ele>
        <time>2021-03-01T14:00:17Z</time>
      </trkpt>
      <trkpt lat="46.73545" lon="5.75663">
        <ele>605.2</ele>
        <time>2021-03-01T14:00:21Z</time>
      </trkpt>
      <trkpt lat="46.73541" lon="5.75657">
        <ele>605.5</ele>
        <time>2021-03-01T14:00:25Z</time>
      </trkpt>
      <trkpt lat="46.73538" lon="5.7565">
        <ele>605.9</ele>
        <time>2021-03-01T14:00:29Z</time>
      </trkpt>
      <trkpt lat="46.73536" lon="5.75645">
        <ele>606.1</ele>
        <time>2021-03-01T14:00:34Z</time>
      </trkpt>
      <trkpt lat="46.73533" lon="5.75639">
        <ele>605.7</ele>
        <time>2021-03-01T14:00:39Z</time>
      </trkpt>
      <trkpt lat="46.73529" lon="5.75634">
        <ele>605.2</ele>
        <time>2021-03-01T14:00:43Z</time>
      </trkpt>
      <trkpt lat="46.73526" lon="5.7563">
        <ele>604.8</ele>
        <time>2021-03-01T14:00:47Z</time>
      </trkpt>
      <trkpt lat="46.73521" lon="5.75625">
        <ele>604.5</ele>
        <time>2021-03-01T14:00:52Z</time>
      </trkpt>
      <trkpt lat="46.73518" lon="5.7562">
        <ele>604.8</ele>
        <time>2021-03-01T14:00:56Z</time>
      </trkpt>
      <trkpt lat="46.73514" lon="5.75615">
        <ele>605.1</ele>
        <time>2021-03-01T14:01:00Z</time>
      </trkpt>
      <trkpt lat="46.73511" lon="5.7561">
        <ele>605.2</ele>
        <time>2021-03-01T14:01:04Z</time>
      </trkpt>
      <trkpt lat="46.73507" lon="5.75605">
        <ele>604.8</ele>
        <time>2021-03-01T14:01:09Z</time>
      </trkpt>
      <trkpt lat="46.73503" lon="5.756">
        <ele>604.1</ele>
        <time>2021-03-01T14:01:14Z</time>
      </trkpt>
      <trkpt lat="46.73499" lon="5.75596">
        <ele>603.6</ele>
        <time>2021-03-01T14:01:19Z</time>
      </trkpt>
      <trkpt lat="46.73496" lon="5.7559">
        <ele>603.3</ele>
        <time>2021-03-01T14:01:25Z</time>
      </trkpt>
      <trkpt lat="46.73493" lon="5.75584">
        <ele>603.2</ele>
        <time>2021-03-01T14:01:32Z</time>
      </trkpt>
      <trkpt lat="46.7349" lon="5.75579">
        <ele>602.8</ele>
        <time>2021-03-01T14:01:37Z</time>
      </trkpt>
      <trkpt lat="46.73487" lon="5.75572">
        <ele>602.6</ele>
        <time>2021-03-01T14:01:41Z</time>
      </trkpt>
      <trkpt lat="46.73484" lon="5.75563">
        <ele>602.3</ele>
        <time>2021-03-01T14:01:45Z</time>
      </trkpt>
      <trkpt lat="46.73483" lon="5.75557">
        <ele>601.8</ele>
        <time>2021-03-01T14:01:52Z</time>
      </trkpt>
      <trkpt lat="46.73477" lon="5.75548">
        <ele>601.1</ele>
        <time>2021-03-01T14:02:05Z</time>
      </trkpt>
      <trkpt lat="46.73472" lon="5.7554">
        <ele>600.3</ele>
        <time>2021-03-01T14:02:09Z</time>
      </trkpt>
      <trkpt lat="46.73468" lon="5.75533">
        <ele>599.8</ele>
        <time>2021-03-01T14:02:13Z</time>
      </trkpt>
      <trkpt lat="46.73465" lon="5.75527">
        <ele>599.4</ele>
        <time>2021-03-01T14:02:17Z</time>
      </trkpt>
      <trkpt lat="46.73463" lon="5.7552">
        <ele>599</ele>
        <time>2021-03-01T14:02:22Z</time>
      </trkpt>
      <trkpt lat="46.73462" lon="5.75514">
        <ele>598.3</ele>
        <time>2021-03-01T14:02:29Z</time>
      </trkpt>
      <trkpt lat="46.7346" lon="5.75507">
        <ele>598.2</ele>
        <time>2021-03-01T14:02:33Z</time>
      </trkpt>
      <trkpt lat="46.73459" lon="5.75499">
        <ele>597.9</ele>
        <time>2021-03-01T14:02:37Z</time>
      </trkpt>
      <trkpt lat="46.73456" lon="5.75494">
        <ele>597.5</ele>
        <time>2021-03-01T14:02:41Z</time>
      </trkpt>
      <trkpt lat="46.73454" lon="5.75489">
        <ele>596.9</ele>
        <time>2021-03-01T14:02:46Z</time>
      </trkpt>
      <trkpt lat="46.73453" lon="5.75482">
        <ele>596.6</ele>
        <time>2021-03-01T14:02:50Z</time>
      </trkpt>
      <trkpt lat="46.73452" lon="5.75475">
        <ele>596.3</ele>
        <time>2021-03-01T14:02:54Z</time>
      </trkpt>
      <trkpt lat="46.73453" lon="5.75468">
        <ele>595.9</ele>
        <time>2021-03-01T14:02:58Z</time>
      </trkpt>
      <trkpt lat="46.73454" lon="5.75461">
        <ele>595.6</ele>
        <time>2021-03-01T14:03:03Z</time>
      </trkpt>
      <trkpt lat="46.73449" lon="5.7546">
        <ele>595.1</ele>
        <time>2021-03-01T14:03:23Z</time>
      </trkpt>
      <trkpt lat="46.73444" lon="5.75458">
        <ele>595.1</ele>
        <time>2021-03-01T14:03:31Z</time>
      </trkpt>
      <trkpt lat="46.7344" lon="5.75453">
        <ele>593.1</ele>
        <time>2021-03-01T14:03:37Z</time>
      </trkpt>
      <trkpt lat="46.73437" lon="5.75449">
        <ele>591.4</ele>
        <time>2021-03-01T14:03:41Z</time>
      </trkpt>
      <trkpt lat="46.73432" lon="5.75444">
        <ele>589.9</ele>
        <time>2021-03-01T14:03:45Z</time>
      </trkpt>
      <trkpt lat="46.73428" lon="5.75441">
        <ele>588.1</ele>
        <time>2021-03-01T14:03:49Z</time>
      </trkpt>
      <trkpt lat="46.73424" lon="5.75437">
        <ele>586.9</ele>
        <time>2021-03-01T14:03:53Z</time>
      </trkpt>
      <trkpt lat="46.73419" lon="5.75433">
        <ele>586.2</ele>
        <time>2021-03-01T14:03:57Z</time>
      </trkpt>
      <trkpt lat="46.73415" lon="5.75428">
        <ele>586</ele>
        <time>2021-03-01T14:04:01Z</time>
      </trkpt>
      <trkpt lat="46.73411" lon="5.75423">
        <ele>586.3</ele>
        <time>2021-03-01T14:04:05Z</time>
      </trkpt>
      <trkpt lat="46.73407" lon="5.75418">
        <ele>586.8</ele>
        <time>2021-03-01T14:04:10Z</time>
      </trkpt>
      <trkpt lat="46.73403" lon="5.75414">
        <ele>587.6</ele>
        <time>2021-03-01T14:04:15Z</time>
      </trkpt>
      <trkpt lat="46.73398" lon="5.75411">
        <ele>588.4</ele>
        <time>2021-03-01T14:04:20Z</time>
      </trkpt>
      <trkpt lat="46.73394" lon="5.75405">
        <ele>589</ele>
        <time>2021-03-01T14:04:24Z</time>
      </trkpt>
      <trkpt lat="46.7339" lon="5.75401">
        <ele>589.7</ele>
        <time>2021-03-01T14:04:29Z</time>
      </trkpt>
      <trkpt lat="46.73386" lon="5.75396">
        <ele>590.6</ele>
        <time>2021-03-01T14:04:35Z</time>
      </trkpt>
      <trkpt lat="46.73382" lon="5.75392">
        <ele>591.4</ele>
        <time>2021-03-01T14:04:40Z</time>
      </trkpt>
      <trkpt lat="46.73379" lon="5.75386">
        <ele>592.3</ele>
        <time>2021-03-01T14:04:45Z</time>
      </trkpt>
      <trkpt lat="46.73376" lon="5.75381">
        <ele>592.6</ele>
        <time>2021-03-01T14:04:49Z</time>
      </trkpt>
      <trkpt lat="46.73372" lon="5.75376">
        <ele>592.7</ele>
        <time>2021-03-01T14:04:54Z</time>
      </trkpt>
      <trkpt lat="46.73368" lon="5.75371">
        <ele>592.5</ele>
        <time>2021-03-01T14:04:59Z</time>
      </trkpt>
      <trkpt lat="46.73365" lon="5.75364">
        <ele>591.8</ele>
        <time>2021-03-01T14:05:03Z</time>
      </trkpt>
      <trkpt lat="46.7336" lon="5.75361">
        <ele>591.1</ele>
        <time>2021-03-01T14:05:07Z</time>
      </trkpt>
      <trkpt lat="46.73357" lon="5.75357">
        <ele>590.2</ele>
        <time>2021-03-01T14:05:11Z</time>
      </trkpt>
      <trkpt lat="46.73351" lon="5.75353">
        <ele>589.5</ele>
        <time>2021-03-01T14:05:15Z</time>
      </trkpt>
      <trkpt lat="46.73346" lon="5.7535">
        <ele>589.5</ele>
        <time>2021-03-01T14:05:20Z</time>
      </trkpt>
      <trkpt lat="46.73342" lon="5.75347">
        <ele>589.1</ele>
        <time>2021-03-01T14:05:25Z</time>
      </trkpt>
      <trkpt lat="46.73338" lon="5.75341">
        <ele>588.4</ele>
        <time>2021-03-01T14:05:30Z</time>
      </trkpt>
      <trkpt lat="46.73333" lon="5.75337">
        <ele>588.7</ele>
        <time>2021-03-01T14:05:34Z</time>
      </trkpt>
      <trkpt lat="46.73327" lon="5.75333">
        <ele>589.4</ele>
        <time>2021-03-01T14:05:38Z</time>
      </trkpt>
      <trkpt lat="46.73322" lon="5.75329">
        <ele>590.1</ele>
        <time>2021-03-01T14:05:43Z</time>
      </trkpt>
      <trkpt lat="46.73319" lon="5.75324">
        <ele>590.8</ele>
        <time>2021-03-01T14:05:48Z</time>
      </trkpt>
      <trkpt lat="46.73315" lon="5.75319">
        <ele>591.4</ele>
        <time>2021-03-01T14:05:52Z</time>
      </trkpt>
      <trkpt lat="46.73309" lon="5.75316">
        <ele>592.1</ele>
        <time>2021-03-01T14:05:56Z</time>
      </trkpt>
      <trkpt lat="46.73305" lon="5.75312">
        <ele>592.8</ele>
        <time>2021-03-01T14:06:00Z</time>
      </trkpt>
      <trkpt lat="46.73301" lon="5.75308">
        <ele>592.7</ele>
        <time>2021-03-01T14:06:05Z</time>
      </trkpt>
      <trkpt lat="46.73297" lon="5.75303">
        <ele>592.7</ele>
        <time>2021-03-01T14:06:10Z</time>
      </trkpt>
      <trkpt lat="46.73293" lon="5.75299">
        <ele>593</ele>
        <time>2021-03-01T14:06:14Z</time>
      </trkpt>
      <trkpt lat="46.73288" lon="5.75295">
        <ele>593.4</ele>
        <time>2021-03-01T14:06:18Z</time>
      </trkpt>
      <trkpt lat="46.73284" lon="5.75291">
        <ele>593.4</ele>
        <time>2021-03-01T14:06:22Z</time>
      </trkpt>
      <trkpt lat="46.73279" lon="5.75288">
        <ele>593.7</ele>
        <time>2021-03-01T14:06:26Z</time>
      </trkpt>
      <trkpt lat="46.73275" lon="5.75286">
        <ele>594.3</ele>
        <time>2021-03-01T14:06:30Z</time>
      </trkpt>
      <trkpt lat="46.7327" lon="5.75285">
        <ele>594.8</ele>
        <time>2021-03-01T14:06:35Z</time>
      </trkpt>
      <trkpt lat="46.73265" lon="5.75281">
        <ele>595</ele>
        <time>2021-03-01T14:06:41Z</time>
      </trkpt>
      <trkpt lat="46.73261" lon="5.75278">
        <ele>595.7</ele>
        <time>2021-03-01T14:06:46Z</time>
      </trkpt>
      <trkpt lat="46.73256" lon="5.75276">
        <ele>595.9</ele>
        <time>2021-03-01T14:06:51Z</time>
      </trkpt>
      <trkpt lat="46.7325" lon="5.75273">
        <ele>595.9</ele>
        <time>2021-03-01T14:06:55Z</time>
      </trkpt>
      <trkpt lat="46.73246" lon="5.75269">
        <ele>595.9</ele>
        <time>2021-03-01T14:06:59Z</time>
      </trkpt>
      <trkpt lat="46.73242" lon="5.75265">
        <ele>594.5</ele>
        <time>2021-03-01T14:07:04Z</time>
      </trkpt>
      <trkpt lat="46.73239" lon="5.75259">
        <ele>592.3</ele>
        <time>2021-03-01T14:07:10Z</time>
      </trkpt>
      <trkpt lat="46.73237" lon="5.75252">
        <ele>591</ele>
        <time>2021-03-01T14:07:14Z</time>
      </trkpt>
      <trkpt lat="46.73237" lon="5.75246">
        <ele>590</ele>
        <time>2021-03-01T14:07:18Z</time>
      </trkpt>
      <trkpt lat="46.73235" lon="5.75238">
        <ele>589.4</ele>
        <time>2021-03-01T14:07:22Z</time>
      </trkpt>
      <trkpt lat="46.73234" lon="5.75231">
        <ele>589.1</ele>
        <time>2021-03-01T14:07:26Z</time>
      </trkpt>
      <trkpt lat="46.73232" lon="5.75224">
        <ele>588.9</ele>
        <time>2021-03-01T14:07:30Z</time>
      </trkpt>
      <trkpt lat="46.7323" lon="5.75217">
        <ele>588.8</ele>
        <time>2021-03-01T14:07:34Z</time>
      </trkpt>
      <trkpt lat="46.73228" lon="5.75211">
        <ele>588.8</ele>
        <time>2021-03-01T14:07:38Z</time>
      </trkpt>
      <trkpt lat="46.73224" lon="5.75206">
        <ele>588.7</ele>
        <time>2021-03-01T14:07:43Z</time>
      </trkpt>
      <trkpt lat="46.7322" lon="5.75202">
        <ele>588.8</ele>
        <time>2021-03-01T14:07:48Z</time>
      </trkpt>
      <trkpt lat="46.73217" lon="5.75197">
        <ele>588.8</ele>
        <time>2021-03-01T14:07:52Z</time>
      </trkpt>
      <trkpt lat="46.73215" lon="5.75191">
        <ele>588.7</ele>
        <time>2021-03-01T14:07:57Z</time>
      </trkpt>
      <trkpt lat="46.73211" lon="5.75185">
        <ele>586.9</ele>
        <time>2021-03-01T14:08:03Z</time>
      </trkpt>
      <trkpt lat="46.73207" lon="5.7518">
        <ele>585.5</ele>
        <time>2021-03-01T14:08:07Z</time>
      </trkpt>
      <trkpt lat="46.73204" lon="5.75175">
        <ele>583.9</ele>
        <time>2021-03-01T14:08:11Z</time>
      </trkpt>
      <trkpt lat="46.73202" lon="5.75169">
        <ele>582.3</ele>
        <time>2021-03-01T14:08:15Z</time>
      </trkpt>
      <trkpt lat="46.73199" lon="5.75162">
        <ele>580.9</ele>
        <time>2021-03-01T14:08:19Z</time>
      </trkpt>
      <trkpt lat="46.73196" lon="5.75156">
        <ele>579.7</ele>
        <time>2021-03-01T14:08:23Z</time>
      </trkpt>
      <trkpt lat="46.73192" lon="5.75152">
        <ele>578.2</ele>
        <time>2021-03-01T14:08:28Z</time>
      </trkpt>
      <trkpt lat="46.73188" lon="5.75147">
        <ele>576.8</ele>
        <time>2021-03-01T14:08:33Z</time>
      </trkpt>
      <trkpt lat="46.73184" lon="5.75143">
        <ele>575.3</ele>
        <time>2021-03-01T14:08:38Z</time>
      </trkpt>
      <trkpt lat="46.7318" lon="5.75139">
        <ele>574.4</ele>
        <time>2021-03-01T14:08:42Z</time>
      </trkpt>
      <trkpt lat="46.73176" lon="5.75134">
        <ele>573.7</ele>
        <time>2021-03-01T14:08:47Z</time>
      </trkpt>
      <trkpt lat="46.73173" lon="5.75129">
        <ele>573.2</ele>
        <time>2021-03-01T14:08:51Z</time>
      </trkpt>
      <trkpt lat="46.73169" lon="5.75125">
        <ele>572.9</ele>
        <time>2021-03-01T14:08:55Z</time>
      </trkpt>
      <trkpt lat="46.73165" lon="5.75119">
        <ele>572.4</ele>
        <time>2021-03-01T14:09:00Z</time>
      </trkpt>
      <trkpt lat="46.73161" lon="5.75115">
        <ele>572.1</ele>
        <time>2021-03-01T14:09:04Z</time>
      </trkpt>
      <trkpt lat="46.73158" lon="5.75109">
        <ele>571.6</ele>
        <time>2021-03-01T14:09:09Z</time>
      </trkpt>
      <trkpt lat="46.73156" lon="5.75102">
        <ele>571.3</ele>
        <time>2021-03-01T14:09:13Z</time>
      </trkpt>
      <trkpt lat="46.73153" lon="5.75096">
        <ele>571.2</ele>
        <time>2021-03-01T14:09:18Z</time>
      </trkpt>
      <trkpt lat="46.73151" lon="5.75089">
        <ele>572.3</ele>
        <time>2021-03-01T14:09:25Z</time>
      </trkpt>
      <trkpt lat="46.73148" lon="5.75082">
        <ele>572.6</ele>
        <time>2021-03-01T14:09:29Z</time>
      </trkpt>
      <trkpt lat="46.73145" lon="5.75075">
        <ele>572.9</ele>
        <time>2021-03-01T14:09:33Z</time>
      </trkpt>
      <trkpt lat="46.73142" lon="5.75068">
        <ele>573.3</ele>
        <time>2021-03-01T14:09:37Z</time>
      </trkpt>
      <trkpt lat="46.73138" lon="5.75061">
        <ele>573.6</ele>
        <time>2021-03-01T14:09:41Z</time>
      </trkpt>
      <trkpt lat="46.73134" lon="5.75055">
        <ele>573.5</ele>
        <time>2021-03-01T14:09:45Z</time>
      </trkpt>
      <trkpt lat="46.73132" lon="5.75049">
        <ele>573.4</ele>
        <time>2021-03-01T14:09:49Z</time>
      </trkpt>
      <trkpt lat="46.73129" lon="5.75043">
        <ele>573.1</ele>
        <time>2021-03-01T14:09:53Z</time>
      </trkpt>
      <trkpt lat="46.73125" lon="5.75038">
        <ele>572.2</ele>
        <time>2021-03-01T14:09:58Z</time>
      </trkpt>
      <trkpt lat="46.73121" lon="5.75033">
        <ele>571.7</ele>
        <time>2021-03-01T14:10:02Z</time>
      </trkpt>
      <trkpt lat="46.73119" lon="5.75027">
        <ele>571.3</ele>
        <time>2021-03-01T14:10:09Z</time>
      </trkpt>
      <trkpt lat="46.73118" lon="5.75019">
        <ele>571</ele>
        <time>2021-03-01T14:10:15Z</time>
      </trkpt>
      <trkpt lat="46.73114" lon="5.75013">
        <ele>570.9</ele>
        <time>2021-03-01T14:10:20Z</time>
      </trkpt>
      <trkpt lat="46.7311" lon="5.75009">
        <ele>571</ele>
        <time>2021-03-01T14:10:24Z</time>
      </trkpt>
      <trkpt lat="46.73105" lon="5.75006">
        <ele>571</ele>
        <time>2021-03-01T14:10:29Z</time>
      </trkpt>
      <trkpt lat="46.73101" lon="5.75003">
        <ele>570.7</ele>
        <time>2021-03-01T14:10:34Z</time>
      </trkpt>
      <trkpt lat="46.73097" lon="5.74999">
        <ele>570.5</ele>
        <time>2021-03-01T14:10:38Z</time>
      </trkpt>
      <trkpt lat="46.73091" lon="5.74997">
        <ele>570.5</ele>
        <time>2021-03-01T14:10:42Z</time>
      </trkpt>
      <trkpt lat="46.73085" lon="5.74993">
        <ele>570.7</ele>
        <time>2021-03-01T14:10:46Z</time>
      </trkpt>
      <trkpt lat="46.73081" lon="5.74988">
        <ele>570.9</ele>
        <time>2021-03-01T14:10:50Z</time>
      </trkpt>
      <trkpt lat="46.73077" lon="5.74985">
        <ele>571.2</ele>
        <time>2021-03-01T14:10:55Z</time>
      </trkpt>
      <trkpt lat="46.73072" lon="5.74981">
        <ele>570.9</ele>
        <time>2021-03-01T14:11:01Z</time>
      </trkpt>
      <trkpt lat="46.73071" lon="5.74974">
        <ele>573</ele>
        <time>2021-03-01T14:11:13Z</time>
      </trkpt>
      <trkpt lat="46.73067" lon="5.74971">
        <ele>573.6</ele>
        <time>2021-03-01T14:11:17Z</time>
      </trkpt>
      <trkpt lat="46.73063" lon="5.74967">
        <ele>575</ele>
        <time>2021-03-01T14:11:24Z</time>
      </trkpt>
      <trkpt lat="46.73059" lon="5.74963">
        <ele>576.1</ele>
        <time>2021-03-01T14:11:29Z</time>
      </trkpt>
      <trkpt lat="46.73061" lon="5.74957">
        <ele>581.2</ele>
        <time>2021-03-01T14:12:27Z</time>
      </trkpt>
      <trkpt lat="46.73061" lon="5.7495">
        <ele>582.2</ele>
        <time>2021-03-01T14:12:32Z</time>
      </trkpt>
      <trkpt lat="46.73059" lon="5.74944">
        <ele>582.7</ele>
        <time>2021-03-01T14:12:37Z</time>
      </trkpt>
      <trkpt lat="46.73057" lon="5.74937">
        <ele>582.2</ele>
        <time>2021-03-01T14:12:42Z</time>
      </trkpt>
      <trkpt lat="46.73055" lon="5.74932">
        <ele>581.4</ele>
        <time>2021-03-01T14:12:46Z</time>
      </trkpt>
      <trkpt lat="46.73052" lon="5.74925">
        <ele>581.1</ele>
        <time>2021-03-01T14:12:50Z</time>
      </trkpt>
      <trkpt lat="46.7305" lon="5.74918">
        <ele>581</ele>
        <time>2021-03-01T14:12:55Z</time>
      </trkpt>
      <trkpt lat="46.7305" lon="5.74911">
        <ele>581.6</ele>
        <time>2021-03-01T14:13:00Z</time>
      </trkpt>
      <trkpt lat="46.73048" lon="5.74903">
        <ele>581.5</ele>
        <time>2021-03-01T14:13:04Z</time>
      </trkpt>
      <trkpt lat="46.73046" lon="5.74896">
        <ele>581</ele>
        <time>2021-03-01T14:13:08Z</time>
      </trkpt>
      <trkpt lat="46.73044" lon="5.7489">
        <ele>580.6</ele>
        <time>2021-03-01T14:13:12Z</time>
      </trkpt>
      <trkpt lat="46.73042" lon="5.74883">
        <ele>580.2</ele>
        <time>2021-03-01T14:13:16Z</time>
      </trkpt>
      <trkpt lat="46.73041" lon="5.74876">
        <ele>579.9</ele>
        <time>2021-03-01T14:13:20Z</time>
      </trkpt>
      <trkpt lat="46.7304" lon="5.74868">
        <ele>579.6</ele>
        <time>2021-03-01T14:13:24Z</time>
      </trkpt>
      <trkpt lat="46.73037" lon="5.74862">
        <ele>579</ele>
        <time>2021-03-01T14:13:28Z</time>
      </trkpt>
      <trkpt lat="46.73034" lon="5.74857">
        <ele>578.4</ele>
        <time>2021-03-01T14:13:32Z</time>
      </trkpt>
      <trkpt lat="46.73031" lon="5.74851">
        <ele>578.1</ele>
        <time>2021-03-01T14:13:37Z</time>
      </trkpt>
      <trkpt lat="46.73028" lon="5.74844">
        <ele>577.9</ele>
        <time>2021-03-01T14:13:41Z</time>
      </trkpt>
      <trkpt lat="46.73027" lon="5.74837">
        <ele>577.6</ele>
        <time>2021-03-01T14:13:45Z</time>
      </trkpt>
      <trkpt lat="46.73025" lon="5.74831">
        <ele>577.5</ele>
        <time>2021-03-01T14:13:50Z</time>
      </trkpt>
      <trkpt lat="46.73024" lon="5.74824">
        <ele>577.5</ele>
        <time>2021-03-01T14:13:57Z</time>
      </trkpt>
      <trkpt lat="46.73022" lon="5.74817">
        <ele>577.3</ele>
        <time>2021-03-01T14:14:02Z</time>
      </trkpt>
      <trkpt lat="46.73019" lon="5.74811">
        <ele>577</ele>
        <time>2021-03-01T14:14:06Z</time>
      </trkpt>
      <trkpt lat="46.73015" lon="5.74806">
        <ele>577</ele>
        <time>2021-03-01T14:14:10Z</time>
      </trkpt>
      <trkpt lat="46.73013" lon="5.74799">
        <ele>576.8</ele>
        <time>2021-03-01T14:14:14Z</time>
      </trkpt>
      <trkpt lat="46.7301" lon="5.74793">
        <ele>576.6</ele>
        <time>2021-03-01T14:14:18Z</time>
      </trkpt>
      <trkpt lat="46.73006" lon="5.74787">
        <ele>576.4</ele>
        <time>2021-03-01T14:14:22Z</time>
      </trkpt>
      <trkpt lat="46.73003" lon="5.7478">
        <ele>576.4</ele>
        <time>2021-03-01T14:14:26Z</time>
      </trkpt>
      <trkpt lat="46.73002" lon="5.74773">
        <ele>576.6</ele>
        <time>2021-03-01T14:14:30Z</time>
      </trkpt>
      <trkpt lat="46.73" lon="5.74766">
        <ele>577.1</ele>
        <time>2021-03-01T14:14:34Z</time>
      </trkpt>
      <trkpt lat="46.73" lon="5.74759">
        <ele>577.5</ele>
        <time>2021-03-01T14:14:39Z</time>
      </trkpt>
      <trkpt lat="46.72997" lon="5.74753">
        <ele>577.7</ele>
        <time>2021-03-01T14:14:44Z</time>
      </trkpt>
      <trkpt lat="46.72993" lon="5.74749">
        <ele>578.4</ele>
        <time>2021-03-01T14:14:52Z</time>
      </trkpt>
      <trkpt lat="46.72991" lon="5.74742">
        <ele>579</ele>
        <time>2021-03-01T14:14:59Z</time>
      </trkpt>
      <trkpt lat="46.72987" lon="5.74736">
        <ele>579.2</ele>
        <time>2021-03-01T14:15:03Z</time>
      </trkpt>
      <trkpt lat="46.72985" lon="5.74729">
        <ele>579.5</ele>
        <time>2021-03-01T14:15:07Z</time>
      </trkpt>
      <trkpt lat="46.72984" lon="5.74723">
        <ele>580</ele>
        <time>2021-03-01T14:15:11Z</time>
      </trkpt>
      <trkpt lat="46.72982" lon="5.74715">
        <ele>580.4</ele>
        <time>2021-03-01T14:15:16Z</time>
      </trkpt>
      <trkpt lat="46.72981" lon="5.74708">
        <ele>580.5</ele>
        <time>2021-03-01T14:15:20Z</time>
      </trkpt>
      <trkpt lat="46.7298" lon="5.74701">
        <ele>580.1</ele>
        <time>2021-03-01T14:15:24Z</time>
      </trkpt>
      <trkpt lat="46.72978" lon="5.74695">
        <ele>579.4</ele>
        <time>2021-03-01T14:15:28Z</time>
      </trkpt>
      <trkpt lat="46.72977" lon="5.74688">
        <ele>578.8</ele>
        <time>2021-03-01T14:15:33Z</time>
      </trkpt>
      <trkpt lat="46.72976" lon="5.74681">
        <ele>578.2</ele>
        <time>2021-03-01T14:15:38Z</time>
      </trkpt>
      <trkpt lat="46.72975" lon="5.74675">
        <ele>577.6</ele>
        <time>2021-03-01T14:15:42Z</time>
      </trkpt>
      <trkpt lat="46.72974" lon="5.74667">
        <ele>577.8</ele>
        <time>2021-03-01T14:15:47Z</time>
      </trkpt>
      <trkpt lat="46.72973" lon="5.7466">
        <ele>577.8</ele>
        <time>2021-03-01T14:15:51Z</time>
      </trkpt>
      <trkpt lat="46.72972" lon="5.74654">
        <ele>577.7</ele>
        <time>2021-03-01T14:15:55Z</time>
      </trkpt>
      <trkpt lat="46.7297" lon="5.74648">
        <ele>578.3</ele>
        <time>2021-03-01T14:16:03Z</time>
      </trkpt>
      <trkpt lat="46.72967" lon="5.74642">
        <ele>578.3</ele>
        <time>2021-03-01T14:16:11Z</time>
      </trkpt>
      <trkpt lat="46.72965" lon="5.74635">
        <ele>576.6</ele>
        <time>2021-03-01T14:16:16Z</time>
      </trkpt>
      <trkpt lat="46.72962" lon="5.74628">
        <ele>575.1</ele>
        <time>2021-03-01T14:16:20Z</time>
      </trkpt>
      <trkpt lat="46.72959" lon="5.7462">
        <ele>573.9</ele>
        <time>2021-03-01T14:16:24Z</time>
      </trkpt>
      <trkpt lat="46.72958" lon="5.74613">
        <ele>573.1</ele>
        <time>2021-03-01T14:16:28Z</time>
      </trkpt>
      <trkpt lat="46.72957" lon="5.74605">
        <ele>573.4</ele>
        <time>2021-03-01T14:16:33Z</time>
      </trkpt>
      <trkpt lat="46.72955" lon="5.74599">
        <ele>575.2</ele>
        <time>2021-03-01T14:16:39Z</time>
      </trkpt>
      <trkpt lat="46.72954" lon="5.74592">
        <ele>578.1</ele>
        <time>2021-03-01T14:16:49Z</time>
      </trkpt>
      <trkpt lat="46.72951" lon="5.74586">
        <ele>578.5</ele>
        <time>2021-03-01T14:16:54Z</time>
      </trkpt>
      <trkpt lat="46.72947" lon="5.74582">
        <ele>578.3</ele>
        <time>2021-03-01T14:17:00Z</time>
      </trkpt>
      <trkpt lat="46.72942" lon="5.74577">
        <ele>577.6</ele>
        <time>2021-03-01T14:17:05Z</time>
      </trkpt>
      <trkpt lat="46.72938" lon="5.74572">
        <ele>576.7</ele>
        <time>2021-03-01T14:17:09Z</time>
      </trkpt>
      <trkpt lat="46.72935" lon="5.74566">
        <ele>575.8</ele>
        <time>2021-03-01T14:17:13Z</time>
      </trkpt>
      <trkpt lat="46.72933" lon="5.74558">
        <ele>574.6</ele>
        <time>2021-03-01T14:17:17Z</time>
      </trkpt>
      <trkpt lat="46.72931" lon="5.74552">
        <ele>573.3</ele>
        <time>2021-03-01T14:17:21Z</time>
      </trkpt>
      <trkpt lat="46.72928" lon="5.74546">
        <ele>572.3</ele>
        <time>2021-03-01T14:17:25Z</time>
      </trkpt>
      <trkpt lat="46.72925" lon="5.7454">
        <ele>572.1</ele>
        <time>2021-03-01T14:17:29Z</time>
      </trkpt>
      <trkpt lat="46.72921" lon="5.74533">
        <ele>572.9</ele>
        <time>2021-03-01T14:17:34Z</time>
      </trkpt>
      <trkpt lat="46.72919" lon="5.74526">
        <ele>574.2</ele>
        <time>2021-03-01T14:17:40Z</time>
      </trkpt>
      <trkpt lat="46.72916" lon="5.74521">
        <ele>573.4</ele>
        <time>2021-03-01T14:17:45Z</time>
      </trkpt>
      <trkpt lat="46.72913" lon="5.74516">
        <ele>572.5</ele>
        <time>2021-03-01T14:17:53Z</time>
      </trkpt>
      <trkpt lat="46.72911" lon="5.7451">
        <ele>573.8</ele>
        <time>2021-03-01T14:18:10Z</time>
      </trkpt>
      <trkpt lat="46.72912" lon="5.74502">
        <ele>574.1</ele>
        <time>2021-03-01T14:18:14Z</time>
      </trkpt>
      <trkpt lat="46.72914" lon="5.74495">
        <ele>574</ele>
        <time>2021-03-01T14:18:18Z</time>
      </trkpt>
      <trkpt lat="46.72916" lon="5.74489">
        <ele>574.1</ele>
        <time>2021-03-01T14:18:22Z</time>
      </trkpt>
      <trkpt lat="46.7292" lon="5.74484">
        <ele>574.4</ele>
        <time>2021-03-01T14:18:26Z</time>
      </trkpt>
      <trkpt lat="46.72924" lon="5.74481">
        <ele>574.8</ele>
        <time>2021-03-01T14:18:31Z</time>
      </trkpt>
      <trkpt lat="46.72925" lon="5.74474">
        <ele>576.6</ele>
        <time>2021-03-01T14:18:41Z</time>
      </trkpt>
      <trkpt lat="46.72927" lon="5.74468">
        <ele>577.7</ele>
        <time>2021-03-01T14:19:09Z</time>
      </trkpt>
      <trkpt lat="46.72923" lon="5.74469">
        <ele>579.6</ele>
        <time>2021-03-01T14:19:56Z</time>
      </trkpt>
      <trkpt lat="46.72926" lon="5.74465">
        <ele>578.4</ele>
        <time>2021-03-01T14:20:27Z</time>
      </trkpt>
      <trkpt lat="46.72931" lon="5.74465">
        <ele>578</ele>
        <time>2021-03-01T14:20:38Z</time>
      </trkpt>
      <trkpt lat="46.72926" lon="5.74467">
        <ele>577.7</ele>
        <time>2021-03-01T14:21:08Z</time>
      </trkpt>
      <trkpt lat="46.72926" lon="5.74474">
        <ele>576.5</ele>
        <time>2021-03-01T14:21:15Z</time>
      </trkpt>
      <trkpt lat="46.72925" lon="5.7448">
        <ele>574.9</ele>
        <time>2021-03-01T14:21:27Z</time>
      </trkpt>
      <trkpt lat="46.72921" lon="5.74485">
        <ele>576</ele>
        <time>2021-03-01T14:21:32Z</time>
      </trkpt>
      <trkpt lat="46.72917" lon="5.74489">
        <ele>575.5</ele>
        <time>2021-03-01T14:22:02Z</time>
      </trkpt>
      <trkpt lat="46.72912" lon="5.74492">
        <ele>576.7</ele>
        <time>2021-03-01T14:22:14Z</time>
      </trkpt>
      <trkpt lat="46.72908" lon="5.74497">
        <ele>577.1</ele>
        <time>2021-03-01T14:22:23Z</time>
      </trkpt>
      <trkpt lat="46.72907" lon="5.74504">
        <ele>576.3</ele>
        <time>2021-03-01T14:22:28Z</time>
      </trkpt>
      <trkpt lat="46.72906" lon="5.74511">
        <ele>575.2</ele>
        <time>2021-03-01T14:22:32Z</time>
      </trkpt>
      <trkpt lat="46.72905" lon="5.74518">
        <ele>574.5</ele>
        <time>2021-03-01T14:22:36Z</time>
      </trkpt>
      <trkpt lat="46.72904" lon="5.74525">
        <ele>574.5</ele>
        <time>2021-03-01T14:22:40Z</time>
      </trkpt>
      <trkpt lat="46.72902" lon="5.74533">
        <ele>574.2</ele>
        <time>2021-03-01T14:22:44Z</time>
      </trkpt>
      <trkpt lat="46.72901" lon="5.7454">
        <ele>574</ele>
        <time>2021-03-01T14:22:48Z</time>
      </trkpt>
      <trkpt lat="46.72899" lon="5.74548">
        <ele>574.2</ele>
        <time>2021-03-01T14:22:52Z</time>
      </trkpt>
      <trkpt lat="46.72897" lon="5.74555">
        <ele>575</ele>
        <time>2021-03-01T14:22:57Z</time>
      </trkpt>
      <trkpt lat="46.72895" lon="5.74561">
        <ele>575.9</ele>
        <time>2021-03-01T14:23:01Z</time>
      </trkpt>
      <trkpt lat="46.72895" lon="5.74568">
        <ele>577.4</ele>
        <time>2021-03-01T14:23:06Z</time>
      </trkpt>
      <trkpt lat="46.72897" lon="5.74574">
        <ele>579.1</ele>
        <time>2021-03-01T14:23:12Z</time>
      </trkpt>
      <trkpt lat="46.72897" lon="5.74582">
        <ele>580</ele>
        <time>2021-03-01T14:23:17Z</time>
      </trkpt>
      <trkpt lat="46.72894" lon="5.74588">
        <ele>580</ele>
        <time>2021-03-01T14:23:22Z</time>
      </trkpt>
      <trkpt lat="46.72892" lon="5.74596">
        <ele>580.6</ele>
        <time>2021-03-01T14:23:26Z</time>
      </trkpt>
      <trkpt lat="46.7289" lon="5.74602">
        <ele>580.8</ele>
        <time>2021-03-01T14:23:30Z</time>
      </trkpt>
      <trkpt lat="46.72888" lon="5.74609">
        <ele>580</ele>
        <time>2021-03-01T14:23:36Z</time>
      </trkpt>
      <trkpt lat="46.72888" lon="5.74617">
        <ele>578.7</ele>
        <time>2021-03-01T14:23:42Z</time>
      </trkpt>
      <trkpt lat="46.72887" lon="5.74625">
        <ele>578.3</ele>
        <time>2021-03-01T14:23:48Z</time>
      </trkpt>
      <trkpt lat="46.72886" lon="5.74634">
        <ele>578.3</ele>
        <time>2021-03-01T14:23:52Z</time>
      </trkpt>
      <trkpt lat="46.72886" lon="5.74642">
        <ele>578</ele>
        <time>2021-03-01T14:23:57Z</time>
      </trkpt>
      <trkpt lat="46.72885" lon="5.7465">
        <ele>578.9</ele>
        <time>2021-03-01T14:24:02Z</time>
      </trkpt>
      <trkpt lat="46.72881" lon="5.74657">
        <ele>580.8</ele>
        <time>2021-03-01T14:24:06Z</time>
      </trkpt>
      <trkpt lat="46.72878" lon="5.74663">
        <ele>584.1</ele>
        <time>2021-03-01T14:24:11Z</time>
      </trkpt>
      <trkpt lat="46.72875" lon="5.74669">
        <ele>587.3</ele>
        <time>2021-03-01T14:24:16Z</time>
      </trkpt>
      <trkpt lat="46.72871" lon="5.74673">
        <ele>589.4</ele>
        <time>2021-03-01T14:24:20Z</time>
      </trkpt>
      <trkpt lat="46.72866" lon="5.74678">
        <ele>591.1</ele>
        <time>2021-03-01T14:24:24Z</time>
      </trkpt>
      <trkpt lat="46.7286" lon="5.74682">
        <ele>592.7</ele>
        <time>2021-03-01T14:24:28Z</time>
      </trkpt>
      <trkpt lat="46.72855" lon="5.74687">
        <ele>594</ele>
        <time>2021-03-01T14:24:32Z</time>
      </trkpt>
      <trkpt lat="46.72851" lon="5.74691">
        <ele>595.3</ele>
        <time>2021-03-01T14:24:36Z</time>
      </trkpt>
      <trkpt lat="46.72846" lon="5.74693">
        <ele>596.3</ele>
        <time>2021-03-01T14:24:41Z</time>
      </trkpt>
      <trkpt lat="46.72841" lon="5.74692">
        <ele>590.3</ele>
        <time>2021-03-01T14:25:06Z</time>
      </trkpt>
      <trkpt lat="46.72837" lon="5.74696">
        <ele>589.6</ele>
        <time>2021-03-01T14:25:10Z</time>
      </trkpt>
      <trkpt lat="46.72832" lon="5.74697">
        <ele>588.9</ele>
        <time>2021-03-01T14:25:16Z</time>
      </trkpt>
      <trkpt lat="46.72828" lon="5.74694">
        <ele>588.2</ele>
        <time>2021-03-01T14:25:21Z</time>
      </trkpt>
      <trkpt lat="46.72823" lon="5.7469">
        <ele>587.6</ele>
        <time>2021-03-01T14:25:26Z</time>
      </trkpt>
      <trkpt lat="46.72818" lon="5.74689">
        <ele>587.2</ele>
        <time>2021-03-01T14:25:30Z</time>
      </trkpt>
      <trkpt lat="46.72813" lon="5.74687">
        <ele>586.1</ele>
        <time>2021-03-01T14:25:36Z</time>
      </trkpt>
      <trkpt lat="46.72809" lon="5.74685">
        <ele>585.8</ele>
        <time>2021-03-01T14:25:41Z</time>
      </trkpt>
      <trkpt lat="46.72805" lon="5.7468">
        <ele>586.1</ele>
        <time>2021-03-01T14:25:47Z</time>
      </trkpt>
      <trkpt lat="46.728" lon="5.74677">
        <ele>586</ele>
        <time>2021-03-01T14:25:52Z</time>
      </trkpt>
      <trkpt lat="46.72795" lon="5.74678">
        <ele>585.8</ele>
        <time>2021-03-01T14:25:57Z</time>
      </trkpt>
      <trkpt lat="46.7279" lon="5.74678">
        <ele>585.8</ele>
        <time>2021-03-01T14:26:02Z</time>
      </trkpt>
      <trkpt lat="46.72785" lon="5.74681">
        <ele>585.5</ele>
        <time>2021-03-01T14:26:06Z</time>
      </trkpt>
      <trkpt lat="46.72781" lon="5.74684">
        <ele>585.2</ele>
        <time>2021-03-01T14:26:10Z</time>
      </trkpt>
      <trkpt lat="46.72777" lon="5.74689">
        <ele>585</ele>
        <time>2021-03-01T14:26:14Z</time>
      </trkpt>
      <trkpt lat="46.72773" lon="5.74693">
        <ele>585.2</ele>
        <time>2021-03-01T14:26:19Z</time>
      </trkpt>
      <trkpt lat="46.72768" lon="5.74699">
        <ele>585.8</ele>
        <time>2021-03-01T14:26:24Z</time>
      </trkpt>
      <trkpt lat="46.72765" lon="5.74705">
        <ele>585.9</ele>
        <time>2021-03-01T14:26:28Z</time>
      </trkpt>
      <trkpt lat="46.72761" lon="5.7471">
        <ele>585.3</ele>
        <time>2021-03-01T14:26:32Z</time>
      </trkpt>
      <trkpt lat="46.72757" lon="5.74715">
        <ele>584.6</ele>
        <time>2021-03-01T14:26:38Z</time>
      </trkpt>
      <trkpt lat="46.72753" lon="5.74717">
        <ele>583.6</ele>
        <time>2021-03-01T14:26:43Z</time>
      </trkpt>
      <trkpt lat="46.7275" lon="5.74723">
        <ele>582</ele>
        <time>2021-03-01T14:26:47Z</time>
      </trkpt>
      <trkpt lat="46.72747" lon="5.74727">
        <ele>580</ele>
        <time>2021-03-01T14:26:52Z</time>
      </trkpt>
      <trkpt lat="46.72745" lon="5.74733">
        <ele>578.2</ele>
        <time>2021-03-01T14:26:57Z</time>
      </trkpt>
      <trkpt lat="46.72741" lon="5.74738">
        <ele>576.6</ele>
        <time>2021-03-01T14:27:01Z</time>
      </trkpt>
      <trkpt lat="46.72737" lon="5.74744">
        <ele>575.3</ele>
        <time>2021-03-01T14:27:05Z</time>
      </trkpt>
      <trkpt lat="46.72734" lon="5.74748">
        <ele>574.4</ele>
        <time>2021-03-01T14:27:09Z</time>
      </trkpt>
      <trkpt lat="46.7273" lon="5.74754">
        <ele>573.3</ele>
        <time>2021-03-01T14:27:14Z</time>
      </trkpt>
      <trkpt lat="46.72728" lon="5.74759">
        <ele>572.9</ele>
        <time>2021-03-01T14:27:18Z</time>
      </trkpt>
      <trkpt lat="46.72724" lon="5.74766">
        <ele>572.6</ele>
        <time>2021-03-01T14:27:22Z</time>
      </trkpt>
      <trkpt lat="46.72724" lon="5.74772">
        <ele>572.5</ele>
        <time>2021-03-01T14:27:27Z</time>
      </trkpt>
      <trkpt lat="46.72721" lon="5.74778">
        <ele>572.9</ele>
        <time>2021-03-01T14:27:32Z</time>
      </trkpt>
      <trkpt lat="46.72719" lon="5.74784">
        <ele>573.4</ele>
        <time>2021-03-01T14:27:36Z</time>
      </trkpt>
      <trkpt lat="46.72718" lon="5.74791">
        <ele>574.2</ele>
        <time>2021-03-01T14:27:40Z</time>
      </trkpt>
      <trkpt lat="46.72718" lon="5.74798">
        <ele>575.5</ele>
        <time>2021-03-01T14:27:49Z</time>
      </trkpt>
      <trkpt lat="46.72716" lon="5.74804">
        <ele>575.1</ele>
        <time>2021-03-01T14:27:59Z</time>
      </trkpt>
      <trkpt lat="46.72714" lon="5.74811">
        <ele>574.5</ele>
        <time>2021-03-01T14:28:05Z</time>
      </trkpt>
      <trkpt lat="46.72712" lon="5.74817">
        <ele>574.2</ele>
        <time>2021-03-01T14:28:09Z</time>
      </trkpt>
      <trkpt lat="46.72711" lon="5.74825">
        <ele>573.9</ele>
        <time>2021-03-01T14:28:13Z</time>
      </trkpt>
      <trkpt lat="46.7271" lon="5.74833">
        <ele>573.8</ele>
        <time>2021-03-01T14:28:17Z</time>
      </trkpt>
      <trkpt lat="46.72711" lon="5.74839">
        <ele>574.1</ele>
        <time>2021-03-01T14:28:24Z</time>
      </trkpt>
      <trkpt lat="46.72711" lon="5.74846">
        <ele>574</ele>
        <time>2021-03-01T14:28:31Z</time>
      </trkpt>
      <trkpt lat="46.72712" lon="5.74839">
        <ele>578.6</ele>
        <time>2021-03-01T14:29:21Z</time>
      </trkpt>
      <trkpt lat="46.72713" lon="5.74832">
        <ele>578.3</ele>
        <time>2021-03-01T14:29:25Z</time>
      </trkpt>
      <trkpt lat="46.72712" lon="5.74825">
        <ele>577.8</ele>
        <time>2021-03-01T14:29:29Z</time>
      </trkpt>
      <trkpt lat="46.72711" lon="5.74819">
        <ele>577.3</ele>
        <time>2021-03-01T14:29:33Z</time>
      </trkpt>
      <trkpt lat="46.72708" lon="5.74812">
        <ele>576.9</ele>
        <time>2021-03-01T14:29:38Z</time>
      </trkpt>
      <trkpt lat="46.72705" lon="5.74807">
        <ele>576.9</ele>
        <time>2021-03-01T14:29:43Z</time>
      </trkpt>
      <trkpt lat="46.72701" lon="5.74803">
        <ele>577.2</ele>
        <time>2021-03-01T14:29:47Z</time>
      </trkpt>
      <trkpt lat="46.72696" lon="5.74801">
        <ele>576.8</ele>
        <time>2021-03-01T14:29:51Z</time>
      </trkpt>
      <trkpt lat="46.72692" lon="5.74798">
        <ele>576.7</ele>
        <time>2021-03-01T14:29:56Z</time>
      </trkpt>
      <trkpt lat="46.72689" lon="5.74793">
        <ele>577.2</ele>
        <time>2021-03-01T14:30:01Z</time>
      </trkpt>
      <trkpt lat="46.72685" lon="5.74788">
        <ele>578</ele>
        <time>2021-03-01T14:30:07Z</time>
      </trkpt>
      <trkpt lat="46.72687" lon="5.74781">
        <ele>580.7</ele>
        <time>2021-03-01T14:30:22Z</time>
      </trkpt>
      <trkpt lat="46.72692" lon="5.74777">
        <ele>581.1</ele>
        <time>2021-03-01T14:30:27Z</time>
      </trkpt>
      <trkpt lat="46.72698" lon="5.74774">
        <ele>581.9</ele>
        <time>2021-03-01T14:30:31Z</time>
      </trkpt>
      <trkpt lat="46.72703" lon="5.74772">
        <ele>583.3</ele>
        <time>2021-03-01T14:30:35Z</time>
      </trkpt>
      <trkpt lat="46.72708" lon="5.74771">
        <ele>585.5</ele>
        <time>2021-03-01T14:30:39Z</time>
      </trkpt>
      <trkpt lat="46.72713" lon="5.74768">
        <ele>587.4</ele>
        <time>2021-03-01T14:30:43Z</time>
      </trkpt>
      <trkpt lat="46.72719" lon="5.74765">
        <ele>588.5</ele>
        <time>2021-03-01T14:30:47Z</time>
      </trkpt>
      <trkpt lat="46.72722" lon="5.74759">
        <ele>589.5</ele>
        <time>2021-03-01T14:30:53Z</time>
      </trkpt>
      <trkpt lat="46.72728" lon="5.74756">
        <ele>589.5</ele>
        <time>2021-03-01T14:30:57Z</time>
      </trkpt>
      <trkpt lat="46.72731" lon="5.74752">
        <ele>588.5</ele>
        <time>2021-03-01T14:31:01Z</time>
      </trkpt>
      <trkpt lat="46.72735" lon="5.74747">
        <ele>587.1</ele>
        <time>2021-03-01T14:31:07Z</time>
      </trkpt>
      <trkpt lat="46.72739" lon="5.74741">
        <ele>586.5</ele>
        <time>2021-03-01T14:31:12Z</time>
      </trkpt>
      <trkpt lat="46.72743" lon="5.74737">
        <ele>585.9</ele>
        <time>2021-03-01T14:31:17Z</time>
      </trkpt>
      <trkpt lat="46.72747" lon="5.74733">
        <ele>583.7</ele>
        <time>2021-03-01T14:31:23Z</time>
      </trkpt>
      <trkpt lat="46.72751" lon="5.7473">
        <ele>582.4</ele>
        <time>2021-03-01T14:31:27Z</time>
      </trkpt>
      <trkpt lat="46.72754" lon="5.74725">
        <ele>581.1</ele>
        <time>2021-03-01T14:31:32Z</time>
      </trkpt>
      <trkpt lat="46.72757" lon="5.74717">
        <ele>580.3</ele>
        <time>2021-03-01T14:31:37Z</time>
      </trkpt>
      <trkpt lat="46.72759" lon="5.7471">
        <ele>579.8</ele>
        <time>2021-03-01T14:31:41Z</time>
      </trkpt>
      <trkpt lat="46.72759" lon="5.74703">
        <ele>579.1</ele>
        <time>2021-03-01T14:31:45Z</time>
      </trkpt>
      <trkpt lat="46.72762" lon="5.74695">
        <ele>578.6</ele>
        <time>2021-03-01T14:31:49Z</time>
      </trkpt>
      <trkpt lat="46.72764" lon="5.74689">
        <ele>578.6</ele>
        <time>2021-03-01T14:31:53Z</time>
      </trkpt>
      <trkpt lat="46.72766" lon="5.74683">
        <ele>578.9</ele>
        <time>2021-03-01T14:31:58Z</time>
      </trkpt>
      <trkpt lat="46.72768" lon="5.74675">
        <ele>580</ele>
        <time>2021-03-01T14:32:04Z</time>
      </trkpt>
      <trkpt lat="46.72768" lon="5.74667">
        <ele>580.8</ele>
        <time>2021-03-01T14:32:09Z</time>
      </trkpt>
      <trkpt lat="46.72769" lon="5.7466">
        <ele>582</ele>
        <time>2021-03-01T14:32:13Z</time>
      </trkpt>
      <trkpt lat="46.72771" lon="5.74654">
        <ele>582.3</ele>
        <time>2021-03-01T14:32:19Z</time>
      </trkpt>
      <trkpt lat="46.72772" lon="5.74646">
        <ele>582.1</ele>
        <time>2021-03-01T14:32:24Z</time>
      </trkpt>
      <trkpt lat="46.72772" lon="5.74639">
        <ele>581.5</ele>
        <time>2021-03-01T14:32:33Z</time>
      </trkpt>
      <trkpt lat="46.7277" lon="5.74633">
        <ele>581</ele>
        <time>2021-03-01T14:32:38Z</time>
      </trkpt>
      <trkpt lat="46.7277" lon="5.74625">
        <ele>580.6</ele>
        <time>2021-03-01T14:32:43Z</time>
      </trkpt>
      <trkpt lat="46.72771" lon="5.74618">
        <ele>579.7</ele>
        <time>2021-03-01T14:32:47Z</time>
      </trkpt>
      <trkpt lat="46.72771" lon="5.74612">
        <ele>579</ele>
        <time>2021-03-01T14:32:51Z</time>
      </trkpt>
      <trkpt lat="46.72771" lon="5.74605">
        <ele>578.3</ele>
        <time>2021-03-01T14:32:55Z</time>
      </trkpt>
      <trkpt lat="46.72771" lon="5.74598">
        <ele>577.5</ele>
        <time>2021-03-01T14:33:00Z</time>
      </trkpt>
      <trkpt lat="46.72771" lon="5.74591">
        <ele>577.4</ele>
        <time>2021-03-01T14:33:04Z</time>
      </trkpt>
      <trkpt lat="46.72772" lon="5.74582">
        <ele>577.1</ele>
        <time>2021-03-01T14:33:08Z</time>
      </trkpt>
      <trkpt lat="46.72771" lon="5.74574">
        <ele>576.6</ele>
        <time>2021-03-01T14:33:12Z</time>
      </trkpt>
      <trkpt lat="46.72773" lon="5.74565">
        <ele>576.1</ele>
        <time>2021-03-01T14:33:16Z</time>
      </trkpt>
      <trkpt lat="46.72774" lon="5.74556">
        <ele>576.3</ele>
        <time>2021-03-01T14:33:20Z</time>
      </trkpt>
      <trkpt lat="46.72777" lon="5.7455">
        <ele>577.6</ele>
        <time>2021-03-01T14:33:24Z</time>
      </trkpt>
      <trkpt lat="46.72779" lon="5.74543">
        <ele>579.5</ele>
        <time>2021-03-01T14:33:28Z</time>
      </trkpt>
      <trkpt lat="46.7278" lon="5.74536">
        <ele>580.8</ele>
        <time>2021-03-01T14:33:32Z</time>
      </trkpt>
      <trkpt lat="46.72781" lon="5.74528">
        <ele>581.3</ele>
        <time>2021-03-01T14:33:36Z</time>
      </trkpt>
      <trkpt lat="46.72782" lon="5.74522">
        <ele>581.7</ele>
        <time>2021-03-01T14:33:40Z</time>
      </trkpt>
      <trkpt lat="46.72783" lon="5.74515">
        <ele>582.1</ele>
        <time>2021-03-01T14:33:45Z</time>
      </trkpt>
      <trkpt lat="46.72783" lon="5.74508">
        <ele>582.9</ele>
        <time>2021-03-01T14:33:50Z</time>
      </trkpt>
      <trkpt lat="46.72784" lon="5.745">
        <ele>583.8</ele>
        <time>2021-03-01T14:33:55Z</time>
      </trkpt>
      <trkpt lat="46.72785" lon="5.74493">
        <ele>584.6</ele>
        <time>2021-03-01T14:34:01Z</time>
      </trkpt>
      <trkpt lat="46.72787" lon="5.74486">
        <ele>584.8</ele>
        <time>2021-03-01T14:34:06Z</time>
      </trkpt>
      <trkpt lat="46.72789" lon="5.74479">
        <ele>584.6</ele>
        <time>2021-03-01T14:34:10Z</time>
      </trkpt>
      <trkpt lat="46.72791" lon="5.74473">
        <ele>584.2</ele>
        <time>2021-03-01T14:34:14Z</time>
      </trkpt>
      <trkpt lat="46.72792" lon="5.74466">
        <ele>583.2</ele>
        <time>2021-03-01T14:34:19Z</time>
      </trkpt>
      <trkpt lat="46.72792" lon="5.74458">
        <ele>581.7</ele>
        <time>2021-03-01T14:34:24Z</time>
      </trkpt>
      <trkpt lat="46.72791" lon="5.74451">
        <ele>580.7</ele>
        <time>2021-03-01T14:34:28Z</time>
      </trkpt>
      <trkpt lat="46.72791" lon="5.74444">
        <ele>579.5</ele>
        <time>2021-03-01T14:34:32Z</time>
      </trkpt>
      <trkpt lat="46.72792" lon="5.74436">
        <ele>578.1</ele>
        <time>2021-03-01T14:34:37Z</time>
      </trkpt>
      <trkpt lat="46.72793" lon="5.7443">
        <ele>577</ele>
        <time>2021-03-01T14:34:42Z</time>
      </trkpt>
      <trkpt lat="46.72794" lon="5.74423">
        <ele>576.3</ele>
        <time>2021-03-01T14:34:49Z</time>
      </trkpt>
      <trkpt lat="46.72797" lon="5.74417">
        <ele>576.2</ele>
        <time>2021-03-01T14:34:55Z</time>
      </trkpt>
      <trkpt lat="46.72796" lon="5.74411">
        <ele>576.7</ele>
        <time>2021-03-01T14:35:10Z</time>
      </trkpt>
      <trkpt lat="46.728" lon="5.74406">
        <ele>576.9</ele>
        <time>2021-03-01T14:35:17Z</time>
      </trkpt>
      <trkpt lat="46.72802" lon="5.74399">
        <ele>577</ele>
        <time>2021-03-01T14:35:21Z</time>
      </trkpt>
      <trkpt lat="46.72806" lon="5.74392">
        <ele>576.5</ele>
        <time>2021-03-01T14:35:25Z</time>
      </trkpt>
      <trkpt lat="46.72809" lon="5.74386">
        <ele>575.7</ele>
        <time>2021-03-01T14:35:30Z</time>
      </trkpt>
      <trkpt lat="46.72813" lon="5.74381">
        <ele>574.9</ele>
        <time>2021-03-01T14:35:35Z</time>
      </trkpt>
      <trkpt lat="46.72816" lon="5.74374">
        <ele>574.9</ele>
        <time>2021-03-01T14:35:39Z</time>
      </trkpt>
      <trkpt lat="46.72819" lon="5.74366">
        <ele>575.2</ele>
        <time>2021-03-01T14:35:43Z</time>
      </trkpt>
      <trkpt lat="46.72821" lon="5.74358">
        <ele>575.5</ele>
        <time>2021-03-01T14:35:47Z</time>
      </trkpt>
      <trkpt lat="46.72824" lon="5.74353">
        <ele>575.7</ele>
        <time>2021-03-01T14:35:51Z</time>
      </trkpt>
      <trkpt lat="46.72825" lon="5.74345">
        <ele>577.2</ele>
        <time>2021-03-01T14:36:04Z</time>
      </trkpt>
      <trkpt lat="46.72829" lon="5.74341">
        <ele>577.6</ele>
        <time>2021-03-01T14:36:09Z</time>
      </trkpt>
      <trkpt lat="46.72832" lon="5.74337">
        <ele>577.6</ele>
        <time>2021-03-01T14:36:13Z</time>
      </trkpt>
      <trkpt lat="46.72836" lon="5.7433">
        <ele>577.8</ele>
        <time>2021-03-01T14:36:17Z</time>
      </trkpt>
      <trkpt lat="46.7284" lon="5.74324">
        <ele>578.3</ele>
        <time>2021-03-01T14:36:22Z</time>
      </trkpt>
      <trkpt lat="46.72843" lon="5.74318">
        <ele>578.4</ele>
        <time>2021-03-01T14:36:27Z</time>
      </trkpt>
      <trkpt lat="46.72846" lon="5.74312">
        <ele>578.5</ele>
        <time>2021-03-01T14:36:31Z</time>
      </trkpt>
      <trkpt lat="46.72849" lon="5.74305">
        <ele>579.1</ele>
        <time>2021-03-01T14:36:35Z</time>
      </trkpt>
      <trkpt lat="46.72853" lon="5.74299">
        <ele>579.4</ele>
        <time>2021-03-01T14:36:39Z</time>
      </trkpt>
      <trkpt lat="46.72854" lon="5.74292">
        <ele>579.3</ele>
        <time>2021-03-01T14:36:44Z</time>
      </trkpt>
      <trkpt lat="46.72856" lon="5.74286">
        <ele>579.5</ele>
        <time>2021-03-01T14:36:51Z</time>
      </trkpt>
      <trkpt lat="46.72858" lon="5.74279">
        <ele>580.4</ele>
        <time>2021-03-01T14:36:59Z</time>
      </trkpt>
      <trkpt lat="46.72861" lon="5.74274">
        <ele>580.2</ele>
        <time>2021-03-01T14:37:03Z</time>
      </trkpt>
      <trkpt lat="46.72863" lon="5.74267">
        <ele>579.5</ele>
        <time>2021-03-01T14:37:07Z</time>
      </trkpt>
      <trkpt lat="46.72867" lon="5.74261">
        <ele>578.6</ele>
        <time>2021-03-01T14:37:12Z</time>
      </trkpt>
      <trkpt lat="46.72871" lon="5.74254">
        <ele>578.2</ele>
        <time>2021-03-01T14:37:16Z</time>
      </trkpt>
      <trkpt lat="46.72873" lon="5.74244">
        <ele>578.7</ele>
        <time>2021-03-01T14:37:20Z</time>
      </trkpt>
      <trkpt lat="46.72876" lon="5.74236">
        <ele>578.7</ele>
        <time>2021-03-01T14:37:24Z</time>
      </trkpt>
      <trkpt lat="46.72879" lon="5.74231">
        <ele>578.2</ele>
        <time>2021-03-01T14:37:28Z</time>
      </trkpt>
      <trkpt lat="46.72883" lon="5.74227">
        <ele>577.3</ele>
        <time>2021-03-01T14:37:32Z</time>
      </trkpt>
      <trkpt lat="46.72887" lon="5.74224">
        <ele>575.2</ele>
        <time>2021-03-01T14:37:36Z</time>
      </trkpt>
      <trkpt lat="46.7289" lon="5.74218">
        <ele>573.6</ele>
        <time>2021-03-01T14:37:41Z</time>
      </trkpt>
      <trkpt lat="46.72893" lon="5.74213">
        <ele>572.6</ele>
        <time>2021-03-01T14:37:46Z</time>
      </trkpt>
      <trkpt lat="46.72897" lon="5.74208">
        <ele>571.4</ele>
        <time>2021-03-01T14:37:53Z</time>
      </trkpt>
      <trkpt lat="46.729" lon="5.74202">
        <ele>571.2</ele>
        <time>2021-03-01T14:37:59Z</time>
      </trkpt>
      <trkpt lat="46.72904" lon="5.74197">
        <ele>570.9</ele>
        <time>2021-03-01T14:38:03Z</time>
      </trkpt>
      <trkpt lat="46.72907" lon="5.74189">
        <ele>570.3</ele>
        <time>2021-03-01T14:38:07Z</time>
      </trkpt>
      <trkpt lat="46.7291" lon="5.74183">
        <ele>569.7</ele>
        <time>2021-03-01T14:38:11Z</time>
      </trkpt>
      <trkpt lat="46.72914" lon="5.74177">
        <ele>569.8</ele>
        <time>2021-03-01T14:38:15Z</time>
      </trkpt>
      <trkpt lat="46.72918" lon="5.74172">
        <ele>570.5</ele>
        <time>2021-03-01T14:38:20Z</time>
      </trkpt>
      <trkpt lat="46.72922" lon="5.74168">
        <ele>570.9</ele>
        <time>2021-03-01T14:38:26Z</time>
      </trkpt>
      <trkpt lat="46.72926" lon="5.74165">
        <ele>571</ele>
        <time>2021-03-01T14:38:30Z</time>
      </trkpt>
      <trkpt lat="46.72932" lon="5.74161">
        <ele>570.1</ele>
        <time>2021-03-01T14:38:34Z</time>
      </trkpt>
      <trkpt lat="46.72935" lon="5.74156">
        <ele>568.9</ele>
        <time>2021-03-01T14:38:42Z</time>
      </trkpt>
      <trkpt lat="46.72938" lon="5.74151">
        <ele>567.1</ele>
        <time>2021-03-01T14:38:57Z</time>
      </trkpt>
      <trkpt lat="46.72943" lon="5.74148">
        <ele>566.5</ele>
        <time>2021-03-01T14:39:02Z</time>
      </trkpt>
      <trkpt lat="46.72947" lon="5.74145">
        <ele>566</ele>
        <time>2021-03-01T14:39:06Z</time>
      </trkpt>
      <trkpt lat="46.72951" lon="5.7414">
        <ele>565.1</ele>
        <time>2021-03-01T14:39:12Z</time>
      </trkpt>
      <trkpt lat="46.72954" lon="5.74134">
        <ele>564.3</ele>
        <time>2021-03-01T14:39:20Z</time>
      </trkpt>
      <trkpt lat="46.72958" lon="5.74131">
        <ele>563.6</ele>
        <time>2021-03-01T14:39:27Z</time>
      </trkpt>
      <trkpt lat="46.72962" lon="5.74128">
        <ele>563.4</ele>
        <time>2021-03-01T14:39:31Z</time>
      </trkpt>
      <trkpt lat="46.72966" lon="5.74123">
        <ele>563.7</ele>
        <time>2021-03-01T14:39:35Z</time>
      </trkpt>
      <trkpt lat="46.7297" lon="5.74119">
        <ele>564.6</ele>
        <time>2021-03-01T14:39:39Z</time>
      </trkpt>
      <trkpt lat="46.72975" lon="5.74118">
        <ele>565.3</ele>
        <time>2021-03-01T14:39:46Z</time>
      </trkpt>
      <trkpt lat="46.72979" lon="5.74118">
        <ele>565.4</ele>
        <time>2021-03-01T14:39:52Z</time>
      </trkpt>
      <trkpt lat="46.72986" lon="5.74119">
        <ele>564.9</ele>
        <time>2021-03-01T14:39:56Z</time>
      </trkpt>
      <trkpt lat="46.72991" lon="5.74119">
        <ele>564.9</ele>
        <time>2021-03-01T14:40:00Z</time>
      </trkpt>
      <trkpt lat="46.72999" lon="5.7412">
        <ele>564.1</ele>
        <time>2021-03-01T14:40:04Z</time>
      </trkpt>
      <trkpt lat="46.73004" lon="5.74121">
        <ele>563.4</ele>
        <time>2021-03-01T14:40:08Z</time>
      </trkpt>
      <trkpt lat="46.73009" lon="5.74121">
        <ele>562.7</ele>
        <time>2021-03-01T14:40:16Z</time>
      </trkpt>
      <trkpt lat="46.73013" lon="5.74123">
        <ele>562.7</ele>
        <time>2021-03-01T14:40:36Z</time>
      </trkpt>
      <trkpt lat="46.73008" lon="5.74124">
        <ele>562.2</ele>
        <time>2021-03-01T14:40:46Z</time>
      </trkpt>
      <trkpt lat="46.73004" lon="5.74123">
        <ele>560.9</ele>
        <time>2021-03-01T14:40:53Z</time>
      </trkpt>
      <trkpt lat="46.73008" lon="5.74122">
        <ele>561.6</ele>
        <time>2021-03-01T14:41:10Z</time>
      </trkpt>
      <trkpt lat="46.73016" lon="5.74122">
        <ele>562.1</ele>
        <time>2021-03-01T14:41:14Z</time>
      </trkpt>
      <trkpt lat="46.73021" lon="5.74123">
        <ele>562.7</ele>
        <time>2021-03-01T14:41:18Z</time>
      </trkpt>
      <trkpt lat="46.73026" lon="5.74124">
        <ele>563.6</ele>
        <time>2021-03-01T14:41:22Z</time>
      </trkpt>
      <trkpt lat="46.73031" lon="5.74126">
        <ele>564.6</ele>
        <time>2021-03-01T14:41:26Z</time>
      </trkpt>
      <trkpt lat="46.73036" lon="5.74126">
        <ele>566.3</ele>
        <time>2021-03-01T14:41:31Z</time>
      </trkpt>
      <trkpt lat="46.7304" lon="5.74122">
        <ele>568.1</ele>
        <time>2021-03-01T14:41:38Z</time>
      </trkpt>
      <trkpt lat="46.73044" lon="5.74116">
        <ele>568.1</ele>
        <time>2021-03-01T14:41:42Z</time>
      </trkpt>
      <trkpt lat="46.73048" lon="5.74109">
        <ele>568.8</ele>
        <time>2021-03-01T14:41:46Z</time>
      </trkpt>
      <trkpt lat="46.73052" lon="5.74106">
        <ele>569</ele>
        <time>2021-03-01T14:41:51Z</time>
      </trkpt>
      <trkpt lat="46.73055" lon="5.74101">
        <ele>568.7</ele>
        <time>2021-03-01T14:41:57Z</time>
      </trkpt>
      <trkpt lat="46.73059" lon="5.74096">
        <ele>568</ele>
        <time>2021-03-01T14:42:03Z</time>
      </trkpt>
      <trkpt lat="46.73062" lon="5.74089">
        <ele>567.7</ele>
        <time>2021-03-01T14:42:08Z</time>
      </trkpt>
      <trkpt lat="46.73065" lon="5.74084">
        <ele>567.4</ele>
        <time>2021-03-01T14:42:13Z</time>
      </trkpt>
      <trkpt lat="46.73069" lon="5.74078">
        <ele>566.3</ele>
        <time>2021-03-01T14:42:18Z</time>
      </trkpt>
      <trkpt lat="46.73072" lon="5.74071">
        <ele>565.3</ele>
        <time>2021-03-01T14:42:23Z</time>
      </trkpt>
      <trkpt lat="46.73075" lon="5.74066">
        <ele>564.5</ele>
        <time>2021-03-01T14:42:27Z</time>
      </trkpt>
      <trkpt lat="46.73077" lon="5.74059">
        <ele>563.9</ele>
        <time>2021-03-01T14:42:31Z</time>
      </trkpt>
      <trkpt lat="46.73079" lon="5.74052">
        <ele>563.7</ele>
        <time>2021-03-01T14:42:36Z</time>
      </trkpt>
      <trkpt lat="46.7308" lon="5.74046">
        <ele>563.8</ele>
        <time>2021-03-01T14:42:40Z</time>
      </trkpt>
      <trkpt lat="46.7308" lon="5.74039">
        <ele>564.3</ele>
        <time>2021-03-01T14:42:45Z</time>
      </trkpt>
      <trkpt lat="46.73082" lon="5.74032">
        <ele>564.3</ele>
        <time>2021-03-01T14:42:51Z</time>
      </trkpt>
      <trkpt lat="46.73085" lon="5.74027">
        <ele>564.3</ele>
        <time>2021-03-01T14:42:55Z</time>
      </trkpt>
      <trkpt lat="46.73088" lon="5.7402">
        <ele>563.8</ele>
        <time>2021-03-01T14:43:00Z</time>
      </trkpt>
      <trkpt lat="46.7309" lon="5.74014">
        <ele>563.5</ele>
        <time>2021-03-01T14:43:05Z</time>
      </trkpt>
      <trkpt lat="46.73092" lon="5.74007">
        <ele>563.1</ele>
        <time>2021-03-01T14:43:10Z</time>
      </trkpt>
      <trkpt lat="46.73096" lon="5.74">
        <ele>562.7</ele>
        <time>2021-03-01T14:43:14Z</time>
      </trkpt>
      <trkpt lat="46.73098" lon="5.73993">
        <ele>562.4</ele>
        <time>2021-03-01T14:43:19Z</time>
      </trkpt>
      <trkpt lat="46.731" lon="5.73987">
        <ele>560.9</ele>
        <time>2021-03-01T14:43:26Z</time>
      </trkpt>
      <trkpt lat="46.73102" lon="5.73979">
        <ele>561.1</ele>
        <time>2021-03-01T14:43:31Z</time>
      </trkpt>
      <trkpt lat="46.73102" lon="5.73971">
        <ele>561.9</ele>
        <time>2021-03-01T14:43:35Z</time>
      </trkpt>
      <trkpt lat="46.73103" lon="5.73964">
        <ele>562.4</ele>
        <time>2021-03-01T14:43:39Z</time>
      </trkpt>
      <trkpt lat="46.73103" lon="5.73957">
        <ele>563.2</ele>
        <time>2021-03-01T14:43:44Z</time>
      </trkpt>
      <trkpt lat="46.73105" lon="5.73951">
        <ele>563.4</ele>
        <time>2021-03-01T14:43:48Z</time>
      </trkpt>
      <trkpt lat="46.73108" lon="5.73943">
        <ele>562.8</ele>
        <time>2021-03-01T14:43:52Z</time>
      </trkpt>
      <trkpt lat="46.7311" lon="5.73935">
        <ele>562.6</ele>
        <time>2021-03-01T14:43:56Z</time>
      </trkpt>
      <trkpt lat="46.73115" lon="5.73929">
        <ele>561.5</ele>
        <time>2021-03-01T14:44:00Z</time>
      </trkpt>
      <trkpt lat="46.73117" lon="5.73922">
        <ele>560.9</ele>
        <time>2021-03-01T14:44:06Z</time>
      </trkpt>
      <trkpt lat="46.73119" lon="5.73916">
        <ele>560.2</ele>
        <time>2021-03-01T14:44:11Z</time>
      </trkpt>
      <trkpt lat="46.73119" lon="5.73907">
        <ele>560.6</ele>
        <time>2021-03-01T14:44:15Z</time>
      </trkpt>
      <trkpt lat="46.7312" lon="5.73899">
        <ele>561.3</ele>
        <time>2021-03-01T14:44:19Z</time>
      </trkpt>
      <trkpt lat="46.73121" lon="5.73892">
        <ele>561.4</ele>
        <time>2021-03-01T14:44:23Z</time>
      </trkpt>
      <trkpt lat="46.73124" lon="5.73886">
        <ele>560.8</ele>
        <time>2021-03-01T14:44:29Z</time>
      </trkpt>
      <trkpt lat="46.73127" lon="5.73881">
        <ele>560.3</ele>
        <time>2021-03-01T14:44:35Z</time>
      </trkpt>
      <trkpt lat="46.73128" lon="5.73874">
        <ele>560.2</ele>
        <time>2021-03-01T14:44:39Z</time>
      </trkpt>
      <trkpt lat="46.7313" lon="5.73867">
        <ele>560</ele>
        <time>2021-03-01T14:44:44Z</time>
      </trkpt>
      <trkpt lat="46.73133" lon="5.73861">
        <ele>559.9</ele>
        <time>2021-03-01T14:44:49Z</time>
      </trkpt>
      <trkpt lat="46.73134" lon="5.73855">
        <ele>559.3</ele>
        <time>2021-03-01T14:44:56Z</time>
      </trkpt>
      <trkpt lat="46.73134" lon="5.73848">
        <ele>558.5</ele>
        <time>2021-03-01T14:45:00Z</time>
      </trkpt>
      <trkpt lat="46.73135" lon="5.7384">
        <ele>558.7</ele>
        <time>2021-03-01T14:45:04Z</time>
      </trkpt>
      <trkpt lat="46.7312" lon="5.73827">
        <ele>557.1</ele>
        <time>2021-03-01T14:45:08Z</time>
      </trkpt>
      <trkpt lat="46.73114" lon="5.7382">
        <ele>555.6</ele>
        <time>2021-03-01T14:45:12Z</time>
      </trkpt>
      <trkpt lat="46.73127" lon="5.73807">
        <ele>557.7</ele>
        <time>2021-03-01T14:45:16Z</time>
      </trkpt>
      <trkpt lat="46.73133" lon="5.73798">
        <ele>560.4</ele>
        <time>2021-03-01T14:45:20Z</time>
      </trkpt>
      <trkpt lat="46.73135" lon="5.73791">
        <ele>562.7</ele>
        <time>2021-03-01T14:45:25Z</time>
      </trkpt>
      <trkpt lat="46.73138" lon="5.73785">
        <ele>563.5</ele>
        <time>2021-03-01T14:45:33Z</time>
      </trkpt>
      <trkpt lat="46.73139" lon="5.73779">
        <ele>562.4</ele>
        <time>2021-03-01T14:45:38Z</time>
      </trkpt>
      <trkpt lat="46.73137" lon="5.73769">
        <ele>561.9</ele>
        <time>2021-03-01T14:45:42Z</time>
      </trkpt>
      <trkpt lat="46.73137" lon="5.73763">
        <ele>561.2</ele>
        <time>2021-03-01T14:45:46Z</time>
      </trkpt>
      <trkpt lat="46.73138" lon="5.73756">
        <ele>560.5</ele>
        <time>2021-03-01T14:45:51Z</time>
      </trkpt>
      <trkpt lat="46.7314" lon="5.73749">
        <ele>559.8</ele>
        <time>2021-03-01T14:45:55Z</time>
      </trkpt>
      <trkpt lat="46.73145" lon="5.73745">
        <ele>558.7</ele>
        <time>2021-03-01T14:45:59Z</time>
      </trkpt>
      <trkpt lat="46.73149" lon="5.7374">
        <ele>557.6</ele>
        <time>2021-03-01T14:46:04Z</time>
      </trkpt>
      <trkpt lat="46.73152" lon="5.73733">
        <ele>557.1</ele>
        <time>2021-03-01T14:46:09Z</time>
      </trkpt>
      <trkpt lat="46.73155" lon="5.73727">
        <ele>557</ele>
        <time>2021-03-01T14:46:13Z</time>
      </trkpt>
      <trkpt lat="46.73157" lon="5.7372">
        <ele>556.8</ele>
        <time>2021-03-01T14:46:18Z</time>
      </trkpt>
      <trkpt lat="46.73157" lon="5.73713">
        <ele>555.8</ele>
        <time>2021-03-01T14:46:23Z</time>
      </trkpt>
      <trkpt lat="46.73159" lon="5.73705">
        <ele>555.1</ele>
        <time>2021-03-01T14:46:28Z</time>
      </trkpt>
      <trkpt lat="46.7316" lon="5.73698">
        <ele>554.9</ele>
        <time>2021-03-01T14:46:32Z</time>
      </trkpt>
      <trkpt lat="46.73161" lon="5.73691">
        <ele>554.9</ele>
        <time>2021-03-01T14:46:38Z</time>
      </trkpt>
      <trkpt lat="46.73163" lon="5.73684">
        <ele>555.1</ele>
        <time>2021-03-01T14:46:45Z</time>
      </trkpt>
      <trkpt lat="46.73167" lon="5.73678">
        <ele>555.4</ele>
        <time>2021-03-01T14:46:51Z</time>
      </trkpt>
      <trkpt lat="46.73169" lon="5.73673">
        <ele>555.4</ele>
        <time>2021-03-01T14:46:56Z</time>
      </trkpt>
      <trkpt lat="46.73172" lon="5.73666">
        <ele>555.4</ele>
        <time>2021-03-01T14:47:01Z</time>
      </trkpt>
      <trkpt lat="46.73176" lon="5.73662">
        <ele>555.7</ele>
        <time>2021-03-01T14:47:06Z</time>
      </trkpt>
      <trkpt lat="46.73178" lon="5.73655">
        <ele>556</ele>
        <time>2021-03-01T14:47:12Z</time>
      </trkpt>
      <trkpt lat="46.73181" lon="5.73648">
        <ele>557.3</ele>
        <time>2021-03-01T14:47:16Z</time>
      </trkpt>
      <trkpt lat="46.73183" lon="5.73641">
        <ele>558.8</ele>
        <time>2021-03-01T14:47:21Z</time>
      </trkpt>
      <trkpt lat="46.73181" lon="5.73633">
        <ele>559.4</ele>
        <time>2021-03-01T14:47:26Z</time>
      </trkpt>
      <trkpt lat="46.73182" lon="5.73625">
        <ele>559.6</ele>
        <time>2021-03-01T14:47:32Z</time>
      </trkpt>
      <trkpt lat="46.73186" lon="5.73619">
        <ele>559.8</ele>
        <time>2021-03-01T14:47:37Z</time>
      </trkpt>
      <trkpt lat="46.7319" lon="5.73613">
        <ele>560</ele>
        <time>2021-03-01T14:47:41Z</time>
      </trkpt>
      <trkpt lat="46.73193" lon="5.73608">
        <ele>560.4</ele>
        <time>2021-03-01T14:47:46Z</time>
      </trkpt>
      <trkpt lat="46.73196" lon="5.73603">
        <ele>559.9</ele>
        <time>2021-03-01T14:47:50Z</time>
      </trkpt>
      <trkpt lat="46.73198" lon="5.73593">
        <ele>560.1</ele>
        <time>2021-03-01T14:47:54Z</time>
      </trkpt>
      <trkpt lat="46.732" lon="5.73585">
        <ele>560.3</ele>
        <time>2021-03-01T14:47:58Z</time>
      </trkpt>
      <trkpt lat="46.73202" lon="5.73578">
        <ele>560.6</ele>
        <time>2021-03-01T14:48:03Z</time>
      </trkpt>
      <trkpt lat="46.73204" lon="5.73572">
        <ele>559.7</ele>
        <time>2021-03-01T14:48:10Z</time>
      </trkpt>
      <trkpt lat="46.73207" lon="5.73566">
        <ele>558.3</ele>
        <time>2021-03-01T14:48:16Z</time>
      </trkpt>
      <trkpt lat="46.73211" lon="5.73562">
        <ele>557.4</ele>
        <time>2021-03-01T14:48:20Z</time>
      </trkpt>
      <trkpt lat="46.73215" lon="5.73557">
        <ele>556</ele>
        <time>2021-03-01T14:48:25Z</time>
      </trkpt>
      <trkpt lat="46.73219" lon="5.7355">
        <ele>555</ele>
        <time>2021-03-01T14:48:29Z</time>
      </trkpt>
      <trkpt lat="46.7322" lon="5.73544">
        <ele>553</ele>
        <time>2021-03-01T14:48:35Z</time>
      </trkpt>
      <trkpt lat="46.73223" lon="5.73539">
        <ele>551.9</ele>
        <time>2021-03-01T14:48:40Z</time>
      </trkpt>
      <trkpt lat="46.73227" lon="5.73534">
        <ele>550.7</ele>
        <time>2021-03-01T14:48:44Z</time>
      </trkpt>
      <trkpt lat="46.7323" lon="5.73529">
        <ele>549.6</ele>
        <time>2021-03-01T14:48:48Z</time>
      </trkpt>
      <trkpt lat="46.73233" lon="5.73522">
        <ele>549</ele>
        <time>2021-03-01T14:48:54Z</time>
      </trkpt>
      <trkpt lat="46.73235" lon="5.73516">
        <ele>549.2</ele>
        <time>2021-03-01T14:48:58Z</time>
      </trkpt>
      <trkpt lat="46.73238" lon="5.73508">
        <ele>549.3</ele>
        <time>2021-03-01T14:49:02Z</time>
      </trkpt>
      <trkpt lat="46.73238" lon="5.73501">
        <ele>550</ele>
        <time>2021-03-01T14:49:06Z</time>
      </trkpt>
      <trkpt lat="46.73241" lon="5.73493">
        <ele>550.7</ele>
        <time>2021-03-01T14:49:10Z</time>
      </trkpt>
      <trkpt lat="46.73246" lon="5.73486">
        <ele>549.7</ele>
        <time>2021-03-01T14:49:14Z</time>
      </trkpt>
      <trkpt lat="46.73249" lon="5.73479">
        <ele>548.3</ele>
        <time>2021-03-01T14:49:18Z</time>
      </trkpt>
      <trkpt lat="46.73252" lon="5.73471">
        <ele>548.7</ele>
        <time>2021-03-01T14:49:22Z</time>
      </trkpt>
      <trkpt lat="46.73256" lon="5.73465">
        <ele>549.6</ele>
        <time>2021-03-01T14:49:26Z</time>
      </trkpt>
      <trkpt lat="46.73259" lon="5.73459">
        <ele>550.7</ele>
        <time>2021-03-01T14:49:31Z</time>
      </trkpt>
      <trkpt lat="46.7326" lon="5.73452">
        <ele>552.5</ele>
        <time>2021-03-01T14:49:43Z</time>
      </trkpt>
      <trkpt lat="46.73263" lon="5.73446">
        <ele>553.2</ele>
        <time>2021-03-01T14:49:49Z</time>
      </trkpt>
      <trkpt lat="46.73264" lon="5.73439">
        <ele>553.7</ele>
        <time>2021-03-01T14:49:53Z</time>
      </trkpt>
      <trkpt lat="46.73268" lon="5.73432">
        <ele>554</ele>
        <time>2021-03-01T14:49:58Z</time>
      </trkpt>
      <trkpt lat="46.73271" lon="5.73426">
        <ele>554.5</ele>
        <time>2021-03-01T14:50:02Z</time>
      </trkpt>
      <trkpt lat="46.73275" lon="5.73422">
        <ele>554.6</ele>
        <time>2021-03-01T14:50:07Z</time>
      </trkpt>
      <trkpt lat="46.73278" lon="5.73415">
        <ele>554.4</ele>
        <time>2021-03-01T14:50:13Z</time>
      </trkpt>
      <trkpt lat="46.7328" lon="5.73409">
        <ele>554.5</ele>
        <time>2021-03-01T14:50:17Z</time>
      </trkpt>
      <trkpt lat="46.73283" lon="5.73403">
        <ele>554.4</ele>
        <time>2021-03-01T14:50:21Z</time>
      </trkpt>
      <trkpt lat="46.73286" lon="5.73398">
        <ele>554.1</ele>
        <time>2021-03-01T14:50:25Z</time>
      </trkpt>
      <trkpt lat="46.73288" lon="5.73391">
        <ele>554</ele>
        <time>2021-03-01T14:50:33Z</time>
      </trkpt>
      <trkpt lat="46.73291" lon="5.73386">
        <ele>554.4</ele>
        <time>2021-03-01T14:50:39Z</time>
      </trkpt>
      <trkpt lat="46.73295" lon="5.73378">
        <ele>555.7</ele>
        <time>2021-03-01T14:50:43Z</time>
      </trkpt>
      <trkpt lat="46.733" lon="5.73372">
        <ele>556.6</ele>
        <time>2021-03-01T14:50:47Z</time>
      </trkpt>
      <trkpt lat="46.73303" lon="5.73366">
        <ele>556.1</ele>
        <time>2021-03-01T14:50:52Z</time>
      </trkpt>
      <trkpt lat="46.73307" lon="5.7336">
        <ele>555.1</ele>
        <time>2021-03-01T14:50:56Z</time>
      </trkpt>
      <trkpt lat="46.73309" lon="5.73354">
        <ele>554.2</ele>
        <time>2021-03-01T14:51:00Z</time>
      </trkpt>
      <trkpt lat="46.73312" lon="5.73349">
        <ele>553.6</ele>
        <time>2021-03-01T14:51:05Z</time>
      </trkpt>
      <trkpt lat="46.73315" lon="5.73344">
        <ele>554.4</ele>
        <time>2021-03-01T14:51:12Z</time>
      </trkpt>
      <trkpt lat="46.73318" lon="5.73339">
        <ele>554.8</ele>
        <time>2021-03-01T14:51:18Z</time>
      </trkpt>
      <trkpt lat="46.7332" lon="5.73331">
        <ele>555.2</ele>
        <time>2021-03-01T14:51:24Z</time>
      </trkpt>
      <trkpt lat="46.73319" lon="5.73316">
        <ele>556.1</ele>
        <time>2021-03-01T14:51:28Z</time>
      </trkpt>
      <trkpt lat="46.73322" lon="5.73308">
        <ele>556.5</ele>
        <time>2021-03-01T14:51:32Z</time>
      </trkpt>
      <trkpt lat="46.73327" lon="5.73303">
        <ele>555.8</ele>
        <time>2021-03-01T14:51:36Z</time>
      </trkpt>
      <trkpt lat="46.73332" lon="5.73298">
        <ele>555.1</ele>
        <time>2021-03-01T14:51:41Z</time>
      </trkpt>
      <trkpt lat="46.73336" lon="5.73294">
        <ele>554.5</ele>
        <time>2021-03-01T14:51:46Z</time>
      </trkpt>
      <trkpt lat="46.73341" lon="5.73292">
        <ele>554.2</ele>
        <time>2021-03-01T14:51:51Z</time>
      </trkpt>
      <trkpt lat="46.73345" lon="5.73289">
        <ele>553.9</ele>
        <time>2021-03-01T14:51:57Z</time>
      </trkpt>
      <trkpt lat="46.73349" lon="5.73285">
        <ele>553.9</ele>
        <time>2021-03-01T14:52:03Z</time>
      </trkpt>
      <trkpt lat="46.73351" lon="5.73278">
        <ele>553.6</ele>
        <time>2021-03-01T14:52:08Z</time>
      </trkpt>
      <trkpt lat="46.73353" lon="5.73272">
        <ele>553.3</ele>
        <time>2021-03-01T14:52:13Z</time>
      </trkpt>
      <trkpt lat="46.73357" lon="5.73265">
        <ele>553</ele>
        <time>2021-03-01T14:52:17Z</time>
      </trkpt>
      <trkpt lat="46.73361" lon="5.73258">
        <ele>552.7</ele>
        <time>2021-03-01T14:52:21Z</time>
      </trkpt>
      <trkpt lat="46.73365" lon="5.73252">
        <ele>552.7</ele>
        <time>2021-03-01T14:52:25Z</time>
      </trkpt>
      <trkpt lat="46.7337" lon="5.73249">
        <ele>551.7</ele>
        <time>2021-03-01T14:52:29Z</time>
      </trkpt>
      <trkpt lat="46.73375" lon="5.73244">
        <ele>550.1</ele>
        <time>2021-03-01T14:52:33Z</time>
      </trkpt>
      <trkpt lat="46.7338" lon="5.73239">
        <ele>548.7</ele>
        <time>2021-03-01T14:52:37Z</time>
      </trkpt>
      <trkpt lat="46.73383" lon="5.73233">
        <ele>547.7</ele>
        <time>2021-03-01T14:52:41Z</time>
      </trkpt>
      <trkpt lat="46.73385" lon="5.73227">
        <ele>547</ele>
        <time>2021-03-01T14:52:46Z</time>
      </trkpt>
      <trkpt lat="46.73388" lon="5.73221">
        <ele>546.5</ele>
        <time>2021-03-01T14:52:51Z</time>
      </trkpt>
      <trkpt lat="46.73391" lon="5.73215">
        <ele>546.2</ele>
        <time>2021-03-01T14:52:57Z</time>
      </trkpt>
      <trkpt lat="46.73393" lon="5.73208">
        <ele>545.9</ele>
        <time>2021-03-01T14:53:02Z</time>
      </trkpt>
      <trkpt lat="46.73396" lon="5.73202">
        <ele>545.6</ele>
        <time>2021-03-01T14:53:06Z</time>
      </trkpt>
      <trkpt lat="46.73399" lon="5.73198">
        <ele>545.3</ele>
        <time>2021-03-01T14:53:10Z</time>
      </trkpt>
      <trkpt lat="46.73403" lon="5.73193">
        <ele>545.4</ele>
        <time>2021-03-01T14:53:14Z</time>
      </trkpt>
      <trkpt lat="46.73407" lon="5.73188">
        <ele>546.4</ele>
        <time>2021-03-01T14:53:19Z</time>
      </trkpt>
      <trkpt lat="46.7341" lon="5.73183">
        <ele>546.9</ele>
        <time>2021-03-01T14:53:24Z</time>
      </trkpt>
      <trkpt lat="46.73413" lon="5.73177">
        <ele>547.6</ele>
        <time>2021-03-01T14:53:32Z</time>
      </trkpt>
      <trkpt lat="46.73415" lon="5.7317">
        <ele>547.7</ele>
        <time>2021-03-01T14:53:37Z</time>
      </trkpt>
      <trkpt lat="46.73417" lon="5.73162">
        <ele>547.4</ele>
        <time>2021-03-01T14:53:42Z</time>
      </trkpt>
      <trkpt lat="46.7342" lon="5.73156">
        <ele>546.6</ele>
        <time>2021-03-01T14:53:47Z</time>
      </trkpt>
      <trkpt lat="46.73422" lon="5.73149">
        <ele>546.3</ele>
        <time>2021-03-01T14:53:51Z</time>
      </trkpt>
      <trkpt lat="46.73424" lon="5.73141">
        <ele>546.3</ele>
        <time>2021-03-01T14:53:55Z</time>
      </trkpt>
      <trkpt lat="46.73426" lon="5.73134">
        <ele>546.6</ele>
        <time>2021-03-01T14:53:59Z</time>
      </trkpt>
      <trkpt lat="46.73427" lon="5.73127">
        <ele>546.5</ele>
        <time>2021-03-01T14:54:03Z</time>
      </trkpt>
      <trkpt lat="46.73429" lon="5.7312">
        <ele>546.7</ele>
        <time>2021-03-01T14:54:08Z</time>
      </trkpt>
      <trkpt lat="46.73432" lon="5.73113">
        <ele>547.2</ele>
        <time>2021-03-01T14:54:12Z</time>
      </trkpt>
      <trkpt lat="46.73433" lon="5.73106">
        <ele>547.6</ele>
        <time>2021-03-01T14:54:16Z</time>
      </trkpt>
      <trkpt lat="46.73434" lon="5.731">
        <ele>547.4</ele>
        <time>2021-03-01T14:54:22Z</time>
      </trkpt>
      <trkpt lat="46.73437" lon="5.73094">
        <ele>544.9</ele>
        <time>2021-03-01T14:54:41Z</time>
      </trkpt>
      <trkpt lat="46.73439" lon="5.73088">
        <ele>543.9</ele>
        <time>2021-03-01T14:54:46Z</time>
      </trkpt>
      <trkpt lat="46.73441" lon="5.73081">
        <ele>542.8</ele>
        <time>2021-03-01T14:54:51Z</time>
      </trkpt>
      <trkpt lat="46.73443" lon="5.73075">
        <ele>541.6</ele>
        <time>2021-03-01T14:54:56Z</time>
      </trkpt>
      <trkpt lat="46.73446" lon="5.7307">
        <ele>540.6</ele>
        <time>2021-03-01T14:55:01Z</time>
      </trkpt>
      <trkpt lat="46.7345" lon="5.73065">
        <ele>540.6</ele>
        <time>2021-03-01T14:55:07Z</time>
      </trkpt>
      <trkpt lat="46.73454" lon="5.73061">
        <ele>542</ele>
        <time>2021-03-01T14:55:11Z</time>
      </trkpt>
      <trkpt lat="46.73459" lon="5.73058">
        <ele>543.6</ele>
        <time>2021-03-01T14:55:15Z</time>
      </trkpt>
      <trkpt lat="46.73463" lon="5.73056">
        <ele>545.2</ele>
        <time>2021-03-01T14:55:19Z</time>
      </trkpt>
      <trkpt lat="46.73469" lon="5.73056">
        <ele>547.2</ele>
        <time>2021-03-01T14:55:23Z</time>
      </trkpt>
      <trkpt lat="46.73474" lon="5.73057">
        <ele>548.3</ele>
        <time>2021-03-01T14:55:27Z</time>
      </trkpt>
      <trkpt lat="46.73479" lon="5.73057">
        <ele>548.3</ele>
        <time>2021-03-01T14:55:31Z</time>
      </trkpt>
      <trkpt lat="46.73485" lon="5.73058">
        <ele>547</ele>
        <time>2021-03-01T14:55:35Z</time>
      </trkpt>
      <trkpt lat="46.73491" lon="5.73058">
        <ele>545.2</ele>
        <time>2021-03-01T14:55:39Z</time>
      </trkpt>
      <trkpt lat="46.73497" lon="5.73057">
        <ele>544.1</ele>
        <time>2021-03-01T14:55:43Z</time>
      </trkpt>
      <trkpt lat="46.73503" lon="5.73056">
        <ele>543.7</ele>
        <time>2021-03-01T14:55:47Z</time>
      </trkpt>
      <trkpt lat="46.73508" lon="5.73057">
        <ele>543.8</ele>
        <time>2021-03-01T14:55:51Z</time>
      </trkpt>
      <trkpt lat="46.73513" lon="5.73058">
        <ele>543.8</ele>
        <time>2021-03-01T14:55:57Z</time>
      </trkpt>
      <trkpt lat="46.73518" lon="5.7306">
        <ele>543.5</ele>
        <time>2021-03-01T14:56:02Z</time>
      </trkpt>
      <trkpt lat="46.73523" lon="5.73061">
        <ele>543.5</ele>
        <time>2021-03-01T14:56:07Z</time>
      </trkpt>
      <trkpt lat="46.73529" lon="5.73063">
        <ele>543.5</ele>
        <time>2021-03-01T14:56:53Z</time>
      </trkpt>
      <trkpt lat="46.73533" lon="5.73063">
        <ele>542.6</ele>
        <time>2021-03-01T14:56:57Z</time>
      </trkpt>
      <trkpt lat="46.73538" lon="5.73059">
        <ele>541.6</ele>
        <time>2021-03-01T14:57:02Z</time>
      </trkpt>
      <trkpt lat="46.73542" lon="5.73057">
        <ele>539.1</ele>
        <time>2021-03-01T14:57:09Z</time>
      </trkpt>
      <trkpt lat="46.73546" lon="5.73054">
        <ele>538.2</ele>
        <time>2021-03-01T14:57:15Z</time>
      </trkpt>
      <trkpt lat="46.73552" lon="5.73052">
        <ele>538.6</ele>
        <time>2021-03-01T14:57:20Z</time>
      </trkpt>
      <trkpt lat="46.73556" lon="5.73052">
        <ele>539.4</ele>
        <time>2021-03-01T14:57:29Z</time>
      </trkpt>
      <trkpt lat="46.73562" lon="5.7305">
        <ele>539.9</ele>
        <time>2021-03-01T14:57:35Z</time>
      </trkpt>
      <trkpt lat="46.73568" lon="5.73047">
        <ele>540.6</ele>
        <time>2021-03-01T14:57:39Z</time>
      </trkpt>
      <trkpt lat="46.73573" lon="5.73044">
        <ele>541.5</ele>
        <time>2021-03-01T14:57:43Z</time>
      </trkpt>
      <trkpt lat="46.73577" lon="5.7304">
        <ele>542.4</ele>
        <time>2021-03-01T14:57:48Z</time>
      </trkpt>
      <trkpt lat="46.73581" lon="5.73038">
        <ele>543.3</ele>
        <time>2021-03-01T14:57:52Z</time>
      </trkpt>
      <trkpt lat="46.73586" lon="5.73035">
        <ele>544.3</ele>
        <time>2021-03-01T14:57:56Z</time>
      </trkpt>
      <trkpt lat="46.73591" lon="5.73032">
        <ele>545.4</ele>
        <time>2021-03-01T14:58:00Z</time>
      </trkpt>
      <trkpt lat="46.73596" lon="5.73028">
        <ele>546.6</ele>
        <time>2021-03-01T14:58:04Z</time>
      </trkpt>
      <trkpt lat="46.736" lon="5.73026">
        <ele>547.7</ele>
        <time>2021-03-01T14:58:08Z</time>
      </trkpt>
      <trkpt lat="46.73605" lon="5.73021">
        <ele>548.7</ele>
        <time>2021-03-01T14:58:14Z</time>
      </trkpt>
      <trkpt lat="46.7361" lon="5.73018">
        <ele>549.6</ele>
        <time>2021-03-01T14:58:19Z</time>
      </trkpt>
      <trkpt lat="46.73614" lon="5.73014">
        <ele>550.7</ele>
        <time>2021-03-01T14:58:23Z</time>
      </trkpt>
      <trkpt lat="46.73619" lon="5.73009">
        <ele>551.6</ele>
        <time>2021-03-01T14:58:27Z</time>
      </trkpt>
      <trkpt lat="46.73622" lon="5.73005">
        <ele>551.8</ele>
        <time>2021-03-01T14:58:31Z</time>
      </trkpt>
      <trkpt lat="46.73626" lon="5.73">
        <ele>551.4</ele>
        <time>2021-03-01T14:58:36Z</time>
      </trkpt>
      <trkpt lat="46.73629" lon="5.72995">
        <ele>550.8</ele>
        <time>2021-03-01T14:58:42Z</time>
      </trkpt>
      <trkpt lat="46.73634" lon="5.72992">
        <ele>549.7</ele>
        <time>2021-03-01T14:58:48Z</time>
      </trkpt>
      <trkpt lat="46.73637" lon="5.72987">
        <ele>548.9</ele>
        <time>2021-03-01T14:58:52Z</time>
      </trkpt>
      <trkpt lat="46.7364" lon="5.7298">
        <ele>548.8</ele>
        <time>2021-03-01T14:58:56Z</time>
      </trkpt>
      <trkpt lat="46.73643" lon="5.72974">
        <ele>548.7</ele>
        <time>2021-03-01T14:59:00Z</time>
      </trkpt>
      <trkpt lat="46.73647" lon="5.72969">
        <ele>549</ele>
        <time>2021-03-01T14:59:04Z</time>
      </trkpt>
      <trkpt lat="46.73649" lon="5.72962">
        <ele>549.4</ele>
        <time>2021-03-01T14:59:08Z</time>
      </trkpt>
      <trkpt lat="46.73651" lon="5.72955">
        <ele>549.4</ele>
        <time>2021-03-01T14:59:14Z</time>
      </trkpt>
      <trkpt lat="46.73654" lon="5.72949">
        <ele>549.2</ele>
        <time>2021-03-01T14:59:18Z</time>
      </trkpt>
      <trkpt lat="46.73654" lon="5.72942">
        <ele>549.1</ele>
        <time>2021-03-01T14:59:22Z</time>
      </trkpt>
      <trkpt lat="46.73655" lon="5.72936">
        <ele>548.9</ele>
        <time>2021-03-01T14:59:27Z</time>
      </trkpt>
      <trkpt lat="46.73656" lon="5.72929">
        <ele>549.1</ele>
        <time>2021-03-01T14:59:32Z</time>
      </trkpt>
      <trkpt lat="46.73658" lon="5.72923">
        <ele>549.9</ele>
        <time>2021-03-01T14:59:37Z</time>
      </trkpt>
      <trkpt lat="46.73659" lon="5.72915">
        <ele>550.4</ele>
        <time>2021-03-01T14:59:42Z</time>
      </trkpt>
      <trkpt lat="46.7366" lon="5.72908">
        <ele>550.6</ele>
        <time>2021-03-01T14:59:46Z</time>
      </trkpt>
      <trkpt lat="46.7366" lon="5.729">
        <ele>550.6</ele>
        <time>2021-03-01T14:59:50Z</time>
      </trkpt>
      <trkpt lat="46.73663" lon="5.72893">
        <ele>551.4</ele>
        <time>2021-03-01T14:59:54Z</time>
      </trkpt>
      <trkpt lat="46.73659" lon="5.7289">
        <ele>551.9</ele>
        <time>2021-03-01T15:00:07Z</time>
      </trkpt>
      <trkpt lat="46.73662" lon="5.72886">
        <ele>550.9</ele>
        <time>2021-03-01T15:00:19Z</time>
      </trkpt>
      <trkpt lat="46.73665" lon="5.72881">
        <ele>550.5</ele>
        <time>2021-03-01T15:00:25Z</time>
      </trkpt>
      <trkpt lat="46.73669" lon="5.72876">
        <ele>550</ele>
        <time>2021-03-01T15:00:33Z</time>
      </trkpt>
      <trkpt lat="46.73673" lon="5.72872">
        <ele>549.7</ele>
        <time>2021-03-01T15:00:37Z</time>
      </trkpt>
      <trkpt lat="46.73676" lon="5.72866">
        <ele>549.2</ele>
        <time>2021-03-01T15:00:43Z</time>
      </trkpt>
      <trkpt lat="46.7368" lon="5.72862">
        <ele>548.9</ele>
        <time>2021-03-01T15:00:49Z</time>
      </trkpt>
      <trkpt lat="46.73685" lon="5.72857">
        <ele>548.1</ele>
        <time>2021-03-01T15:00:53Z</time>
      </trkpt>
      <trkpt lat="46.7369" lon="5.72854">
        <ele>546.5</ele>
        <time>2021-03-01T15:00:58Z</time>
      </trkpt>
      <trkpt lat="46.73694" lon="5.7285">
        <ele>545.5</ele>
        <time>2021-03-01T15:01:02Z</time>
      </trkpt>
      <trkpt lat="46.73698" lon="5.72847">
        <ele>544.7</ele>
        <time>2021-03-01T15:01:06Z</time>
      </trkpt>
      <trkpt lat="46.73703" lon="5.72842">
        <ele>544</ele>
        <time>2021-03-01T15:01:10Z</time>
      </trkpt>
      <trkpt lat="46.73708" lon="5.72837">
        <ele>543.3</ele>
        <time>2021-03-01T15:01:14Z</time>
      </trkpt>
      <trkpt lat="46.73711" lon="5.72831">
        <ele>542.8</ele>
        <time>2021-03-01T15:01:18Z</time>
      </trkpt>
      <trkpt lat="46.73715" lon="5.72825">
        <ele>542.3</ele>
        <time>2021-03-01T15:01:23Z</time>
      </trkpt>
      <trkpt lat="46.73716" lon="5.72817">
        <ele>542.3</ele>
        <time>2021-03-01T15:01:28Z</time>
      </trkpt>
      <trkpt lat="46.73717" lon="5.72809">
        <ele>542.6</ele>
        <time>2021-03-01T15:01:32Z</time>
      </trkpt>
      <trkpt lat="46.73718" lon="5.72801">
        <ele>543.3</ele>
        <time>2021-03-01T15:01:36Z</time>
      </trkpt>
      <trkpt lat="46.73719" lon="5.72793">
        <ele>543.5</ele>
        <time>2021-03-01T15:01:40Z</time>
      </trkpt>
      <trkpt lat="46.7372" lon="5.72786">
        <ele>543.9</ele>
        <time>2021-03-01T15:01:45Z</time>
      </trkpt>
      <trkpt lat="46.73721" lon="5.7278">
        <ele>544.7</ele>
        <time>2021-03-01T15:01:49Z</time>
      </trkpt>
      <trkpt lat="46.73724" lon="5.72773">
        <ele>545.9</ele>
        <time>2021-03-01T15:01:53Z</time>
      </trkpt>
      <trkpt lat="46.73727" lon="5.72767">
        <ele>546.9</ele>
        <time>2021-03-01T15:01:58Z</time>
      </trkpt>
      <trkpt lat="46.73731" lon="5.72763">
        <ele>547.7</ele>
        <time>2021-03-01T15:02:03Z</time>
      </trkpt>
      <trkpt lat="46.73735" lon="5.72759">
        <ele>548.3</ele>
        <time>2021-03-01T15:02:09Z</time>
      </trkpt>
      <trkpt lat="46.73741" lon="5.72759">
        <ele>548.8</ele>
        <time>2021-03-01T15:02:13Z</time>
      </trkpt>
      <trkpt lat="46.73747" lon="5.72759">
        <ele>549</ele>
        <time>2021-03-01T15:02:17Z</time>
      </trkpt>
      <trkpt lat="46.73752" lon="5.7276">
        <ele>549.8</ele>
        <time>2021-03-01T15:02:22Z</time>
      </trkpt>
      <trkpt lat="46.73757" lon="5.72762">
        <ele>550</ele>
        <time>2021-03-01T15:02:27Z</time>
      </trkpt>
      <trkpt lat="46.73763" lon="5.72761">
        <ele>549.9</ele>
        <time>2021-03-01T15:02:32Z</time>
      </trkpt>
      <trkpt lat="46.73768" lon="5.72759">
        <ele>549.8</ele>
        <time>2021-03-01T15:02:36Z</time>
      </trkpt>
      <trkpt lat="46.73773" lon="5.72755">
        <ele>549.3</ele>
        <time>2021-03-01T15:02:41Z</time>
      </trkpt>
      <trkpt lat="46.73777" lon="5.7275">
        <ele>548.6</ele>
        <time>2021-03-01T15:02:46Z</time>
      </trkpt>
      <trkpt lat="46.7378" lon="5.72744">
        <ele>548</ele>
        <time>2021-03-01T15:02:51Z</time>
      </trkpt>
      <trkpt lat="46.73782" lon="5.72737">
        <ele>547.9</ele>
        <time>2021-03-01T15:02:55Z</time>
      </trkpt>
      <trkpt lat="46.73784" lon="5.72731">
        <ele>547.8</ele>
        <time>2021-03-01T15:02:59Z</time>
      </trkpt>
      <trkpt lat="46.73787" lon="5.72724">
        <ele>547.7</ele>
        <time>2021-03-01T15:03:03Z</time>
      </trkpt>
      <trkpt lat="46.73789" lon="5.72718">
        <ele>547.4</ele>
        <time>2021-03-01T15:03:07Z</time>
      </trkpt>
      <trkpt lat="46.73792" lon="5.72713">
        <ele>547.1</ele>
        <time>2021-03-01T15:03:11Z</time>
      </trkpt>
      <trkpt lat="46.73796" lon="5.72708">
        <ele>546.9</ele>
        <time>2021-03-01T15:03:15Z</time>
      </trkpt>
      <trkpt lat="46.73799" lon="5.72702">
        <ele>546.8</ele>
        <time>2021-03-01T15:03:19Z</time>
      </trkpt>
      <trkpt lat="46.73802" lon="5.72697">
        <ele>546.8</ele>
        <time>2021-03-01T15:03:24Z</time>
      </trkpt>
      <trkpt lat="46.73806" lon="5.72691">
        <ele>546.3</ele>
        <time>2021-03-01T15:03:29Z</time>
      </trkpt>
      <trkpt lat="46.7381" lon="5.72686">
        <ele>545.4</ele>
        <time>2021-03-01T15:03:34Z</time>
      </trkpt>
      <trkpt lat="46.73813" lon="5.72679">
        <ele>544.6</ele>
        <time>2021-03-01T15:03:39Z</time>
      </trkpt>
      <trkpt lat="46.73815" lon="5.72672">
        <ele>544.4</ele>
        <time>2021-03-01T15:03:44Z</time>
      </trkpt>
      <trkpt lat="46.73819" lon="5.72666">
        <ele>544.5</ele>
        <time>2021-03-01T15:03:48Z</time>
      </trkpt>
      <trkpt lat="46.73822" lon="5.7266">
        <ele>545</ele>
        <time>2021-03-01T15:03:53Z</time>
      </trkpt>
      <trkpt lat="46.73824" lon="5.72653">
        <ele>545.5</ele>
        <time>2021-03-01T15:03:58Z</time>
      </trkpt>
      <trkpt lat="46.73827" lon="5.72646">
        <ele>546.3</ele>
        <time>2021-03-01T15:04:03Z</time>
      </trkpt>
      <trkpt lat="46.73829" lon="5.7264">
        <ele>546.5</ele>
        <time>2021-03-01T15:04:08Z</time>
      </trkpt>
      <trkpt lat="46.73832" lon="5.72634">
        <ele>546.6</ele>
        <time>2021-03-01T15:04:12Z</time>
      </trkpt>
      <trkpt lat="46.73834" lon="5.72627">
        <ele>546.8</ele>
        <time>2021-03-01T15:04:16Z</time>
      </trkpt>
      <trkpt lat="46.73837" lon="5.72621">
        <ele>546.3</ele>
        <time>2021-03-01T15:04:21Z</time>
      </trkpt>
      <trkpt lat="46.73842" lon="5.72617">
        <ele>545.3</ele>
        <time>2021-03-01T15:04:26Z</time>
      </trkpt>
      <trkpt lat="46.73845" lon="5.72613">
        <ele>544.4</ele>
        <time>2021-03-01T15:04:31Z</time>
      </trkpt>
      <trkpt lat="46.7385" lon="5.7261">
        <ele>544.2</ele>
        <time>2021-03-01T15:04:36Z</time>
      </trkpt>
      <trkpt lat="46.73853" lon="5.72605">
        <ele>545</ele>
        <time>2021-03-01T15:04:40Z</time>
      </trkpt>
      <trkpt lat="46.73856" lon="5.72599">
        <ele>546.4</ele>
        <time>2021-03-01T15:04:44Z</time>
      </trkpt>
      <trkpt lat="46.73859" lon="5.72594">
        <ele>548.1</ele>
        <time>2021-03-01T15:04:49Z</time>
      </trkpt>
      <trkpt lat="46.73863" lon="5.72589">
        <ele>548.9</ele>
        <time>2021-03-01T15:04:54Z</time>
      </trkpt>
      <trkpt lat="46.73865" lon="5.72583">
        <ele>549.1</ele>
        <time>2021-03-01T15:05:00Z</time>
      </trkpt>
      <trkpt lat="46.73867" lon="5.72574">
        <ele>549.7</ele>
        <time>2021-03-01T15:05:05Z</time>
      </trkpt>
      <trkpt lat="46.73868" lon="5.72567">
        <ele>550.6</ele>
        <time>2021-03-01T15:05:09Z</time>
      </trkpt>
      <trkpt lat="46.7387" lon="5.72561">
        <ele>551.2</ele>
        <time>2021-03-01T15:05:13Z</time>
      </trkpt>
      <trkpt lat="46.73873" lon="5.72555">
        <ele>551.2</ele>
        <time>2021-03-01T15:05:17Z</time>
      </trkpt>
      <trkpt lat="46.73875" lon="5.72548">
        <ele>551.2</ele>
        <time>2021-03-01T15:05:22Z</time>
      </trkpt>
      <trkpt lat="46.73877" lon="5.72541">
        <ele>551.2</ele>
        <time>2021-03-01T15:05:27Z</time>
      </trkpt>
      <trkpt lat="46.73879" lon="5.72533">
        <ele>550.7</ele>
        <time>2021-03-01T15:05:31Z</time>
      </trkpt>
      <trkpt lat="46.7388" lon="5.72526">
        <ele>550.5</ele>
        <time>2021-03-01T15:05:35Z</time>
      </trkpt>
      <trkpt lat="46.73882" lon="5.72518">
        <ele>550.8</ele>
        <time>2021-03-01T15:05:40Z</time>
      </trkpt>
      <trkpt lat="46.73884" lon="5.72512">
        <ele>550.5</ele>
        <time>2021-03-01T15:05:46Z</time>
      </trkpt>
      <trkpt lat="46.73886" lon="5.72506">
        <ele>550.1</ele>
        <time>2021-03-01T15:05:51Z</time>
      </trkpt>
      <trkpt lat="46.73887" lon="5.72499">
        <ele>550.2</ele>
        <time>2021-03-01T15:05:56Z</time>
      </trkpt>
      <trkpt lat="46.73889" lon="5.72492">
        <ele>550.3</ele>
        <time>2021-03-01T15:06:01Z</time>
      </trkpt>
      <trkpt lat="46.73891" lon="5.72485">
        <ele>550.8</ele>
        <time>2021-03-01T15:06:05Z</time>
      </trkpt>
      <trkpt lat="46.73892" lon="5.72477">
        <ele>551.7</ele>
        <time>2021-03-01T15:06:09Z</time>
      </trkpt>
      <trkpt lat="46.73892" lon="5.72468">
        <ele>552.7</ele>
        <time>2021-03-01T15:06:13Z</time>
      </trkpt>
      <trkpt lat="46.73893" lon="5.72462">
        <ele>553.3</ele>
        <time>2021-03-01T15:06:17Z</time>
      </trkpt>
      <trkpt lat="46.73895" lon="5.72455">
        <ele>553.8</ele>
        <time>2021-03-01T15:06:21Z</time>
      </trkpt>
      <trkpt lat="46.73897" lon="5.72448">
        <ele>554.3</ele>
        <time>2021-03-01T15:06:26Z</time>
      </trkpt>
      <trkpt lat="46.73899" lon="5.7244">
        <ele>554.6</ele>
        <time>2021-03-01T15:06:31Z</time>
      </trkpt>
      <trkpt lat="46.73901" lon="5.72433">
        <ele>554.8</ele>
        <time>2021-03-01T15:06:35Z</time>
      </trkpt>
      <trkpt lat="46.73902" lon="5.72426">
        <ele>554.8</ele>
        <time>2021-03-01T15:06:39Z</time>
      </trkpt>
      <trkpt lat="46.73904" lon="5.72419">
        <ele>555.3</ele>
        <time>2021-03-01T15:06:43Z</time>
      </trkpt>
      <trkpt lat="46.73906" lon="5.72413">
        <ele>555.3</ele>
        <time>2021-03-01T15:06:47Z</time>
      </trkpt>
      <trkpt lat="46.73908" lon="5.72405">
        <ele>554.8</ele>
        <time>2021-03-01T15:06:52Z</time>
      </trkpt>
      <trkpt lat="46.73909" lon="5.72399">
        <ele>554.4</ele>
        <time>2021-03-01T15:06:56Z</time>
      </trkpt>
      <trkpt lat="46.73911" lon="5.72392">
        <ele>553.9</ele>
        <time>2021-03-01T15:07:00Z</time>
      </trkpt>
      <trkpt lat="46.73912" lon="5.72386">
        <ele>553.4</ele>
        <time>2021-03-01T15:07:04Z</time>
      </trkpt>
      <trkpt lat="46.73914" lon="5.72379">
        <ele>553</ele>
        <time>2021-03-01T15:07:10Z</time>
      </trkpt>
      <trkpt lat="46.73916" lon="5.72372">
        <ele>552.8</ele>
        <time>2021-03-01T15:07:15Z</time>
      </trkpt>
      <trkpt lat="46.73918" lon="5.72366">
        <ele>552.1</ele>
        <time>2021-03-01T15:07:21Z</time>
      </trkpt>
      <trkpt lat="46.73919" lon="5.7236">
        <ele>551.7</ele>
        <time>2021-03-01T15:07:26Z</time>
      </trkpt>
      <trkpt lat="46.73921" lon="5.72353">
        <ele>551.3</ele>
        <time>2021-03-01T15:07:32Z</time>
      </trkpt>
      <trkpt lat="46.73923" lon="5.72345">
        <ele>551.1</ele>
        <time>2021-03-01T15:07:37Z</time>
      </trkpt>
      <trkpt lat="46.73924" lon="5.72338">
        <ele>551.2</ele>
        <time>2021-03-01T15:07:41Z</time>
      </trkpt>
      <trkpt lat="46.73925" lon="5.7233">
        <ele>551.5</ele>
        <time>2021-03-01T15:07:45Z</time>
      </trkpt>
      <trkpt lat="46.73928" lon="5.72324">
        <ele>551.9</ele>
        <time>2021-03-01T15:07:50Z</time>
      </trkpt>
      <trkpt lat="46.73931" lon="5.72318">
        <ele>552.1</ele>
        <time>2021-03-01T15:07:54Z</time>
      </trkpt>
      <trkpt lat="46.73934" lon="5.72311">
        <ele>552.5</ele>
        <time>2021-03-01T15:07:58Z</time>
      </trkpt>
      <trkpt lat="46.73936" lon="5.72305">
        <ele>553</ele>
        <time>2021-03-01T15:08:02Z</time>
      </trkpt>
      <trkpt lat="46.73938" lon="5.72299">
        <ele>553</ele>
        <time>2021-03-01T15:08:06Z</time>
      </trkpt>
      <trkpt lat="46.73942" lon="5.72293">
        <ele>552.1</ele>
        <time>2021-03-01T15:08:10Z</time>
      </trkpt>
      <trkpt lat="46.73946" lon="5.72288">
        <ele>551.1</ele>
        <time>2021-03-01T15:08:14Z</time>
      </trkpt>
      <trkpt lat="46.73949" lon="5.72284">
        <ele>550.3</ele>
        <time>2021-03-01T15:08:18Z</time>
      </trkpt>
      <trkpt lat="46.73952" lon="5.72278">
        <ele>549.6</ele>
        <time>2021-03-01T15:08:22Z</time>
      </trkpt>
      <trkpt lat="46.73955" lon="5.72272">
        <ele>549</ele>
        <time>2021-03-01T15:08:26Z</time>
      </trkpt>
      <trkpt lat="46.73959" lon="5.72269">
        <ele>548.7</ele>
        <time>2021-03-01T15:08:30Z</time>
      </trkpt>
      <trkpt lat="46.73963" lon="5.72265">
        <ele>548.6</ele>
        <time>2021-03-01T15:08:35Z</time>
      </trkpt>
      <trkpt lat="46.73966" lon="5.72259">
        <ele>548.6</ele>
        <time>2021-03-01T15:08:40Z</time>
      </trkpt>
      <trkpt lat="46.73968" lon="5.72252">
        <ele>548.9</ele>
        <time>2021-03-01T15:08:45Z</time>
      </trkpt>
      <trkpt lat="46.73971" lon="5.72247">
        <ele>549.4</ele>
        <time>2021-03-01T15:08:51Z</time>
      </trkpt>
      <trkpt lat="46.73975" lon="5.72242">
        <ele>549.7</ele>
        <time>2021-03-01T15:08:57Z</time>
      </trkpt>
      <trkpt lat="46.7398" lon="5.72245">
        <ele>549.4</ele>
        <time>2021-03-01T15:09:02Z</time>
      </trkpt>
      <trkpt lat="46.73986" lon="5.72249">
        <ele>548.9</ele>
        <time>2021-03-01T15:09:06Z</time>
      </trkpt>
      <trkpt lat="46.7399" lon="5.72254">
        <ele>547.9</ele>
        <time>2021-03-01T15:09:10Z</time>
      </trkpt>
      <trkpt lat="46.73992" lon="5.72259">
        <ele>546.5</ele>
        <time>2021-03-01T15:09:16Z</time>
      </trkpt>
      <trkpt lat="46.73996" lon="5.72264">
        <ele>545.4</ele>
        <time>2021-03-01T15:09:21Z</time>
      </trkpt>
      <trkpt lat="46.74004" lon="5.72277">
        <ele>544.9</ele>
        <time>2021-03-01T15:09:25Z</time>
      </trkpt>
      <trkpt lat="46.74008" lon="5.72281">
        <ele>543.7</ele>
        <time>2021-03-01T15:09:29Z</time>
      </trkpt>
      <trkpt lat="46.74012" lon="5.72285">
        <ele>542.7</ele>
        <time>2021-03-01T15:09:35Z</time>
      </trkpt>
      <trkpt lat="46.74017" lon="5.72287">
        <ele>541.9</ele>
        <time>2021-03-01T15:09:42Z</time>
      </trkpt>
      <trkpt lat="46.74022" lon="5.72288">
        <ele>541.6</ele>
        <time>2021-03-01T15:09:47Z</time>
      </trkpt>
      <trkpt lat="46.74026" lon="5.72291">
        <ele>541</ele>
        <time>2021-03-01T15:09:53Z</time>
      </trkpt>
      <trkpt lat="46.74031" lon="5.72293">
        <ele>539.9</ele>
        <time>2021-03-01T15:09:58Z</time>
      </trkpt>
      <trkpt lat="46.74035" lon="5.72296">
        <ele>538.3</ele>
        <time>2021-03-01T15:10:04Z</time>
      </trkpt>
      <trkpt lat="46.74041" lon="5.723">
        <ele>537.8</ele>
        <time>2021-03-01T15:10:08Z</time>
      </trkpt>
      <trkpt lat="46.74045" lon="5.72305">
        <ele>537.2</ele>
        <time>2021-03-01T15:10:12Z</time>
      </trkpt>
      <trkpt lat="46.7405" lon="5.72309">
        <ele>537.3</ele>
        <time>2021-03-01T15:10:16Z</time>
      </trkpt>
      <trkpt lat="46.74054" lon="5.72314">
        <ele>537.3</ele>
        <time>2021-03-01T15:10:20Z</time>
      </trkpt>
      <trkpt lat="46.74057" lon="5.7232">
        <ele>536.9</ele>
        <time>2021-03-01T15:10:25Z</time>
      </trkpt>
      <trkpt lat="46.74059" lon="5.72327">
        <ele>536.5</ele>
        <time>2021-03-01T15:10:30Z</time>
      </trkpt>
      <trkpt lat="46.74062" lon="5.72332">
        <ele>536.5</ele>
        <time>2021-03-01T15:10:35Z</time>
      </trkpt>
      <trkpt lat="46.74062" lon="5.72339">
        <ele>537.6</ele>
        <time>2021-03-01T15:10:53Z</time>
      </trkpt>
      <trkpt lat="46.74061" lon="5.72346">
        <ele>538</ele>
        <time>2021-03-01T15:11:08Z</time>
      </trkpt>
      <trkpt lat="46.74061" lon="5.72353">
        <ele>537.7</ele>
        <time>2021-03-01T15:11:14Z</time>
      </trkpt>
      <trkpt lat="46.7406" lon="5.72359">
        <ele>538</ele>
        <time>2021-03-01T15:11:19Z</time>
      </trkpt>
      <trkpt lat="46.74059" lon="5.72366">
        <ele>539.3</ele>
        <time>2021-03-01T15:11:24Z</time>
      </trkpt>
      <trkpt lat="46.74059" lon="5.72374">
        <ele>541.1</ele>
        <time>2021-03-01T15:11:30Z</time>
      </trkpt>
      <trkpt lat="46.7406" lon="5.72381">
        <ele>540.9</ele>
        <time>2021-03-01T15:11:34Z</time>
      </trkpt>
      <trkpt lat="46.74062" lon="5.72388">
        <ele>540.6</ele>
        <time>2021-03-01T15:11:38Z</time>
      </trkpt>
      <trkpt lat="46.74064" lon="5.72395">
        <ele>540.4</ele>
        <time>2021-03-01T15:11:42Z</time>
      </trkpt>
      <trkpt lat="46.74066" lon="5.72404">
        <ele>539.9</ele>
        <time>2021-03-01T15:11:46Z</time>
      </trkpt>
      <trkpt lat="46.74067" lon="5.72411">
        <ele>539.7</ele>
        <time>2021-03-01T15:11:50Z</time>
      </trkpt>
      <trkpt lat="46.74069" lon="5.72417">
        <ele>539.9</ele>
        <time>2021-03-01T15:11:54Z</time>
      </trkpt>
      <trkpt lat="46.74072" lon="5.72424">
        <ele>540.7</ele>
        <time>2021-03-01T15:11:59Z</time>
      </trkpt>
      <trkpt lat="46.74074" lon="5.72431">
        <ele>541.1</ele>
        <time>2021-03-01T15:12:05Z</time>
      </trkpt>
      <trkpt lat="46.74074" lon="5.72438">
        <ele>541.2</ele>
        <time>2021-03-01T15:12:09Z</time>
      </trkpt>
      <trkpt lat="46.74076" lon="5.72444">
        <ele>541.6</ele>
        <time>2021-03-01T15:12:14Z</time>
      </trkpt>
      <trkpt lat="46.74078" lon="5.72452">
        <ele>542</ele>
        <time>2021-03-01T15:12:19Z</time>
      </trkpt>
      <trkpt lat="46.74081" lon="5.72459">
        <ele>542.3</ele>
        <time>2021-03-01T15:12:23Z</time>
      </trkpt>
      <trkpt lat="46.74084" lon="5.72466">
        <ele>542.5</ele>
        <time>2021-03-01T15:12:27Z</time>
      </trkpt>
      <trkpt lat="46.74087" lon="5.72472">
        <ele>542.5</ele>
        <time>2021-03-01T15:12:32Z</time>
      </trkpt>
      <trkpt lat="46.74088" lon="5.72479">
        <ele>541.8</ele>
        <time>2021-03-01T15:12:38Z</time>
      </trkpt>
      <trkpt lat="46.7409" lon="5.72486">
        <ele>540.5</ele>
        <time>2021-03-01T15:12:46Z</time>
      </trkpt>
      <trkpt lat="46.74091" lon="5.72493">
        <ele>540.3</ele>
        <time>2021-03-01T15:12:52Z</time>
      </trkpt>
      <trkpt lat="46.74092" lon="5.72501">
        <ele>539.3</ele>
        <time>2021-03-01T15:13:01Z</time>
      </trkpt>
      <trkpt lat="46.74092" lon="5.72508">
        <ele>538.4</ele>
        <time>2021-03-01T15:13:06Z</time>
      </trkpt>
      <trkpt lat="46.74093" lon="5.72516">
        <ele>537.7</ele>
        <time>2021-03-01T15:13:10Z</time>
      </trkpt>
      <trkpt lat="46.74093" lon="5.72523">
        <ele>537.2</ele>
        <time>2021-03-01T15:13:15Z</time>
      </trkpt>
      <trkpt lat="46.74092" lon="5.7253">
        <ele>537.2</ele>
        <time>2021-03-01T15:13:20Z</time>
      </trkpt>
      <trkpt lat="46.74092" lon="5.72537">
        <ele>537.6</ele>
        <time>2021-03-01T15:13:24Z</time>
      </trkpt>
      <trkpt lat="46.74091" lon="5.72545">
        <ele>538.1</ele>
        <time>2021-03-01T15:13:28Z</time>
      </trkpt>
      <trkpt lat="46.74092" lon="5.72552">
        <ele>538.6</ele>
        <time>2021-03-01T15:13:32Z</time>
      </trkpt>
      <trkpt lat="46.7409" lon="5.72559">
        <ele>539.4</ele>
        <time>2021-03-01T15:13:43Z</time>
      </trkpt>
      <trkpt lat="46.7409" lon="5.72566">
        <ele>539.3</ele>
        <time>2021-03-01T15:13:47Z</time>
      </trkpt>
      <trkpt lat="46.7409" lon="5.72574">
        <ele>539.4</ele>
        <time>2021-03-01T15:13:52Z</time>
      </trkpt>
      <trkpt lat="46.74088" lon="5.72581">
        <ele>539.8</ele>
        <time>2021-03-01T15:13:56Z</time>
      </trkpt>
      <trkpt lat="46.74088" lon="5.72589">
        <ele>540.5</ele>
        <time>2021-03-01T15:14:01Z</time>
      </trkpt>
      <trkpt lat="46.74087" lon="5.72595">
        <ele>541.1</ele>
        <time>2021-03-01T15:14:05Z</time>
      </trkpt>
      <trkpt lat="46.74088" lon="5.72603">
        <ele>541.6</ele>
        <time>2021-03-01T15:14:10Z</time>
      </trkpt>
      <trkpt lat="46.74088" lon="5.7261">
        <ele>541.7</ele>
        <time>2021-03-01T15:14:14Z</time>
      </trkpt>
      <trkpt lat="46.74087" lon="5.72618">
        <ele>541.4</ele>
        <time>2021-03-01T15:14:18Z</time>
      </trkpt>
      <trkpt lat="46.74087" lon="5.72625">
        <ele>540.2</ele>
        <time>2021-03-01T15:14:23Z</time>
      </trkpt>
      <trkpt lat="46.74087" lon="5.72633">
        <ele>538.9</ele>
        <time>2021-03-01T15:14:28Z</time>
      </trkpt>
      <trkpt lat="46.74087" lon="5.72639">
        <ele>538.3</ele>
        <time>2021-03-01T15:14:32Z</time>
      </trkpt>
      <trkpt lat="46.74088" lon="5.72646">
        <ele>538.1</ele>
        <time>2021-03-01T15:14:36Z</time>
      </trkpt>
      <trkpt lat="46.74089" lon="5.72654">
        <ele>538.4</ele>
        <time>2021-03-01T15:14:41Z</time>
      </trkpt>
      <trkpt lat="46.74091" lon="5.72662">
        <ele>538.6</ele>
        <time>2021-03-01T15:14:45Z</time>
      </trkpt>
      <trkpt lat="46.74093" lon="5.7267">
        <ele>539</ele>
        <time>2021-03-01T15:14:49Z</time>
      </trkpt>
      <trkpt lat="46.74093" lon="5.72677">
        <ele>539.3</ele>
        <time>2021-03-01T15:14:53Z</time>
      </trkpt>
      <trkpt lat="46.74094" lon="5.72685">
        <ele>539.6</ele>
        <time>2021-03-01T15:14:57Z</time>
      </trkpt>
      <trkpt lat="46.74094" lon="5.72692">
        <ele>539.9</ele>
        <time>2021-03-01T15:15:01Z</time>
      </trkpt>
      <trkpt lat="46.74095" lon="5.72698">
        <ele>540</ele>
        <time>2021-03-01T15:15:05Z</time>
      </trkpt>
      <trkpt lat="46.74097" lon="5.72705">
        <ele>540.4</ele>
        <time>2021-03-01T15:15:09Z</time>
      </trkpt>
      <trkpt lat="46.741" lon="5.72711">
        <ele>540.9</ele>
        <time>2021-03-01T15:15:13Z</time>
      </trkpt>
      <trkpt lat="46.74103" lon="5.72718">
        <ele>541.5</ele>
        <time>2021-03-01T15:15:17Z</time>
      </trkpt>
      <trkpt lat="46.74104" lon="5.72724">
        <ele>542.1</ele>
        <time>2021-03-01T15:15:22Z</time>
      </trkpt>
      <trkpt lat="46.74107" lon="5.72731">
        <ele>542.6</ele>
        <time>2021-03-01T15:15:27Z</time>
      </trkpt>
      <trkpt lat="46.74109" lon="5.72737">
        <ele>542.9</ele>
        <time>2021-03-01T15:15:32Z</time>
      </trkpt>
      <trkpt lat="46.74111" lon="5.72744">
        <ele>543.3</ele>
        <time>2021-03-01T15:15:39Z</time>
      </trkpt>
      <trkpt lat="46.74111" lon="5.72752">
        <ele>543.4</ele>
        <time>2021-03-01T15:15:47Z</time>
      </trkpt>
      <trkpt lat="46.74114" lon="5.72759">
        <ele>543.1</ele>
        <time>2021-03-01T15:15:51Z</time>
      </trkpt>
      <trkpt lat="46.74115" lon="5.72766">
        <ele>542.7</ele>
        <time>2021-03-01T15:15:56Z</time>
      </trkpt>
      <trkpt lat="46.74116" lon="5.72774">
        <ele>541.8</ele>
        <time>2021-03-01T15:16:02Z</time>
      </trkpt>
      <trkpt lat="46.74117" lon="5.72781">
        <ele>540.8</ele>
        <time>2021-03-01T15:16:08Z</time>
      </trkpt>
      <trkpt lat="46.74117" lon="5.72788">
        <ele>540.1</ele>
        <time>2021-03-01T15:16:13Z</time>
      </trkpt>
      <trkpt lat="46.74117" lon="5.72795">
        <ele>539.9</ele>
        <time>2021-03-01T15:16:17Z</time>
      </trkpt>
      <trkpt lat="46.74117" lon="5.72804">
        <ele>539.3</ele>
        <time>2021-03-01T15:16:21Z</time>
      </trkpt>
      <trkpt lat="46.7412" lon="5.72811">
        <ele>538.5</ele>
        <time>2021-03-01T15:16:25Z</time>
      </trkpt>
      <trkpt lat="46.74123" lon="5.72817">
        <ele>537.9</ele>
        <time>2021-03-01T15:16:29Z</time>
      </trkpt>
      <trkpt lat="46.74126" lon="5.72822">
        <ele>537.9</ele>
        <time>2021-03-01T15:16:52Z</time>
      </trkpt>
      <trkpt lat="46.74131" lon="5.72827">
        <ele>538.3</ele>
        <time>2021-03-01T15:16:56Z</time>
      </trkpt>
      <trkpt lat="46.74134" lon="5.72831">
        <ele>538.6</ele>
        <time>2021-03-01T15:17:00Z</time>
      </trkpt>
      <trkpt lat="46.74138" lon="5.72835">
        <ele>539.1</ele>
        <time>2021-03-01T15:17:04Z</time>
      </trkpt>
      <trkpt lat="46.74143" lon="5.72839">
        <ele>539.9</ele>
        <time>2021-03-01T15:17:08Z</time>
      </trkpt>
      <trkpt lat="46.74147" lon="5.72842">
        <ele>541.2</ele>
        <time>2021-03-01T15:17:13Z</time>
      </trkpt>
      <trkpt lat="46.74151" lon="5.72847">
        <ele>541.6</ele>
        <time>2021-03-01T15:17:18Z</time>
      </trkpt>
      <trkpt lat="46.74155" lon="5.7285">
        <ele>541.9</ele>
        <time>2021-03-01T15:17:22Z</time>
      </trkpt>
      <trkpt lat="46.7416" lon="5.72854">
        <ele>542.6</ele>
        <time>2021-03-01T15:17:26Z</time>
      </trkpt>
      <trkpt lat="46.74165" lon="5.72858">
        <ele>543.4</ele>
        <time>2021-03-01T15:17:30Z</time>
      </trkpt>
      <trkpt lat="46.7417" lon="5.72861">
        <ele>544.6</ele>
        <time>2021-03-01T15:17:34Z</time>
      </trkpt>
      <trkpt lat="46.74173" lon="5.72866">
        <ele>545.4</ele>
        <time>2021-03-01T15:17:39Z</time>
      </trkpt>
      <trkpt lat="46.74178" lon="5.72871">
        <ele>545.5</ele>
        <time>2021-03-01T15:17:44Z</time>
      </trkpt>
      <trkpt lat="46.74181" lon="5.72875">
        <ele>544.9</ele>
        <time>2021-03-01T15:17:48Z</time>
      </trkpt>
      <trkpt lat="46.74185" lon="5.7288">
        <ele>544</ele>
        <time>2021-03-01T15:17:52Z</time>
      </trkpt>
      <trkpt lat="46.7419" lon="5.72885">
        <ele>542.6</ele>
        <time>2021-03-01T15:17:57Z</time>
      </trkpt>
      <trkpt lat="46.74194" lon="5.72888">
        <ele>541.5</ele>
        <time>2021-03-01T15:18:01Z</time>
      </trkpt>
      <trkpt lat="46.74199" lon="5.72891">
        <ele>540.5</ele>
        <time>2021-03-01T15:18:06Z</time>
      </trkpt>
      <trkpt lat="46.74202" lon="5.72896">
        <ele>539.2</ele>
        <time>2021-03-01T15:18:12Z</time>
      </trkpt>
      <trkpt lat="46.74206" lon="5.729">
        <ele>538</ele>
        <time>2021-03-01T15:18:18Z</time>
      </trkpt>
      <trkpt lat="46.74211" lon="5.72906">
        <ele>538.1</ele>
        <time>2021-03-01T15:18:22Z</time>
      </trkpt>
      <trkpt lat="46.74216" lon="5.72909">
        <ele>538.3</ele>
        <time>2021-03-01T15:18:27Z</time>
      </trkpt>
      <trkpt lat="46.7422" lon="5.72913">
        <ele>538.4</ele>
        <time>2021-03-01T15:18:32Z</time>
      </trkpt>
      <trkpt lat="46.74224" lon="5.72917">
        <ele>538.7</ele>
        <time>2021-03-01T15:18:36Z</time>
      </trkpt>
      <trkpt lat="46.74229" lon="5.7292">
        <ele>538.5</ele>
        <time>2021-03-01T15:18:41Z</time>
      </trkpt>
      <trkpt lat="46.74235" lon="5.72921">
        <ele>538.9</ele>
        <time>2021-03-01T15:18:45Z</time>
      </trkpt>
      <trkpt lat="46.74239" lon="5.72921">
        <ele>539.2</ele>
        <time>2021-03-01T15:18:49Z</time>
      </trkpt>
      <trkpt lat="46.74244" lon="5.72923">
        <ele>539.6</ele>
        <time>2021-03-01T15:18:54Z</time>
      </trkpt>
      <trkpt lat="46.7425" lon="5.72927">
        <ele>540.5</ele>
        <time>2021-03-01T15:18:58Z</time>
      </trkpt>
      <trkpt lat="46.74255" lon="5.72929">
        <ele>541.6</ele>
        <time>2021-03-01T15:19:02Z</time>
      </trkpt>
      <trkpt lat="46.7426" lon="5.72932">
        <ele>542.4</ele>
        <time>2021-03-01T15:19:07Z</time>
      </trkpt>
      <trkpt lat="46.74265" lon="5.72932">
        <ele>543.2</ele>
        <time>2021-03-01T15:19:12Z</time>
      </trkpt>
      <trkpt lat="46.7427" lon="5.72934">
        <ele>543.5</ele>
        <time>2021-03-01T15:19:17Z</time>
      </trkpt>
      <trkpt lat="46.74274" lon="5.72937">
        <ele>543.6</ele>
        <time>2021-03-01T15:19:22Z</time>
      </trkpt>
      <trkpt lat="46.74279" lon="5.72939">
        <ele>544.1</ele>
        <time>2021-03-01T15:19:26Z</time>
      </trkpt>
      <trkpt lat="46.74284" lon="5.7294">
        <ele>544.4</ele>
        <time>2021-03-01T15:19:31Z</time>
      </trkpt>
      <trkpt lat="46.74289" lon="5.7294">
        <ele>543.5</ele>
        <time>2021-03-01T15:19:37Z</time>
      </trkpt>
      <trkpt lat="46.74294" lon="5.72943">
        <ele>542.1</ele>
        <time>2021-03-01T15:19:43Z</time>
      </trkpt>
      <trkpt lat="46.743" lon="5.72945">
        <ele>541.7</ele>
        <time>2021-03-01T15:19:47Z</time>
      </trkpt>
      <trkpt lat="46.74307" lon="5.72947">
        <ele>543</ele>
        <time>2021-03-01T15:19:51Z</time>
      </trkpt>
      <trkpt lat="46.74312" lon="5.72949">
        <ele>544.5</ele>
        <time>2021-03-01T15:19:55Z</time>
      </trkpt>
      <trkpt lat="46.74317" lon="5.72951">
        <ele>546.6</ele>
        <time>2021-03-01T15:19:59Z</time>
      </trkpt>
      <trkpt lat="46.74322" lon="5.72953">
        <ele>549.1</ele>
        <time>2021-03-01T15:20:06Z</time>
      </trkpt>
      <trkpt lat="46.74327" lon="5.72954">
        <ele>550.4</ele>
        <time>2021-03-01T15:20:11Z</time>
      </trkpt>
      <trkpt lat="46.74333" lon="5.72955">
        <ele>551.3</ele>
        <time>2021-03-01T15:20:15Z</time>
      </trkpt>
      <trkpt lat="46.74339" lon="5.72955">
        <ele>552.1</ele>
        <time>2021-03-01T15:20:19Z</time>
      </trkpt>
      <trkpt lat="46.74345" lon="5.72955">
        <ele>552.8</ele>
        <time>2021-03-01T15:20:23Z</time>
      </trkpt>
      <trkpt lat="46.7435" lon="5.72956">
        <ele>553.2</ele>
        <time>2021-03-01T15:20:27Z</time>
      </trkpt>
      <trkpt lat="46.74355" lon="5.72956">
        <ele>552.7</ele>
        <time>2021-03-01T15:20:32Z</time>
      </trkpt>
      <trkpt lat="46.7436" lon="5.72955">
        <ele>552.5</ele>
        <time>2021-03-01T15:20:38Z</time>
      </trkpt>
      <trkpt lat="46.74364" lon="5.7296">
        <ele>552.5</ele>
        <time>2021-03-01T15:21:18Z</time>
      </trkpt>
      <trkpt lat="46.74365" lon="5.72967">
        <ele>552.4</ele>
        <time>2021-03-01T15:21:25Z</time>
      </trkpt>
      <trkpt lat="46.74368" lon="5.72972">
        <ele>551.9</ele>
        <time>2021-03-01T15:21:30Z</time>
      </trkpt>
      <trkpt lat="46.74371" lon="5.72977">
        <ele>551.3</ele>
        <time>2021-03-01T15:21:36Z</time>
      </trkpt>
      <trkpt lat="46.74375" lon="5.72981">
        <ele>552</ele>
        <time>2021-03-01T15:21:53Z</time>
      </trkpt>
      <trkpt lat="46.74377" lon="5.72988">
        <ele>553</ele>
        <time>2021-03-01T15:22:00Z</time>
      </trkpt>
      <trkpt lat="46.7438" lon="5.72993">
        <ele>553.2</ele>
        <time>2021-03-01T15:22:05Z</time>
      </trkpt>
      <trkpt lat="46.74384" lon="5.72997">
        <ele>553.2</ele>
        <time>2021-03-01T15:22:09Z</time>
      </trkpt>
      <trkpt lat="46.74387" lon="5.73001">
        <ele>552.8</ele>
        <time>2021-03-01T15:22:13Z</time>
      </trkpt>
      <trkpt lat="46.7439" lon="5.73007">
        <ele>551.9</ele>
        <time>2021-03-01T15:22:17Z</time>
      </trkpt>
      <trkpt lat="46.74393" lon="5.73012">
        <ele>551</ele>
        <time>2021-03-01T15:22:21Z</time>
      </trkpt>
      <trkpt lat="46.74395" lon="5.73018">
        <ele>549.6</ele>
        <time>2021-03-01T15:22:26Z</time>
      </trkpt>
      <trkpt lat="46.74397" lon="5.73024">
        <ele>548.3</ele>
        <time>2021-03-01T15:22:30Z</time>
      </trkpt>
      <trkpt lat="46.74399" lon="5.7303">
        <ele>547.8</ele>
        <time>2021-03-01T15:22:34Z</time>
      </trkpt>
      <trkpt lat="46.74401" lon="5.73037">
        <ele>547.5</ele>
        <time>2021-03-01T15:22:39Z</time>
      </trkpt>
      <trkpt lat="46.74403" lon="5.73044">
        <ele>547.5</ele>
        <time>2021-03-01T15:22:44Z</time>
      </trkpt>
      <trkpt lat="46.74406" lon="5.73049">
        <ele>547.1</ele>
        <time>2021-03-01T15:22:49Z</time>
      </trkpt>
      <trkpt lat="46.74409" lon="5.73055">
        <ele>546.7</ele>
        <time>2021-03-01T15:22:53Z</time>
      </trkpt>
      <trkpt lat="46.74411" lon="5.73061">
        <ele>546.5</ele>
        <time>2021-03-01T15:22:58Z</time>
      </trkpt>
      <trkpt lat="46.74413" lon="5.73068">
        <ele>546.5</ele>
        <time>2021-03-01T15:23:40Z</time>
      </trkpt>
      <trkpt lat="46.74416" lon="5.73074">
        <ele>547</ele>
        <time>2021-03-01T15:23:45Z</time>
      </trkpt>
      <trkpt lat="46.74419" lon="5.7308">
        <ele>547.5</ele>
        <time>2021-03-01T15:23:50Z</time>
      </trkpt>
      <trkpt lat="46.74423" lon="5.73084">
        <ele>547.8</ele>
        <time>2021-03-01T15:23:55Z</time>
      </trkpt>
      <trkpt lat="46.74427" lon="5.7309">
        <ele>548.1</ele>
        <time>2021-03-01T15:24:00Z</time>
      </trkpt>
      <trkpt lat="46.7443" lon="5.73095">
        <ele>548.3</ele>
        <time>2021-03-01T15:24:04Z</time>
      </trkpt>
      <trkpt lat="46.74433" lon="5.731">
        <ele>548.9</ele>
        <time>2021-03-01T15:24:08Z</time>
      </trkpt>
      <trkpt lat="46.74436" lon="5.73106">
        <ele>549.6</ele>
        <time>2021-03-01T15:24:12Z</time>
      </trkpt>
      <trkpt lat="46.74439" lon="5.73112">
        <ele>550.4</ele>
        <time>2021-03-01T15:24:16Z</time>
      </trkpt>
      <trkpt lat="46.74442" lon="5.73117">
        <ele>551.1</ele>
        <time>2021-03-01T15:24:20Z</time>
      </trkpt>
      <trkpt lat="46.74446" lon="5.7312">
        <ele>551.9</ele>
        <time>2021-03-01T15:24:24Z</time>
      </trkpt>
      <trkpt lat="46.7445" lon="5.73126">
        <ele>552.7</ele>
        <time>2021-03-01T15:24:29Z</time>
      </trkpt>
      <trkpt lat="46.74455" lon="5.7313">
        <ele>553.9</ele>
        <time>2021-03-01T15:24:35Z</time>
      </trkpt>
      <trkpt lat="46.74458" lon="5.73135">
        <ele>554.9</ele>
        <time>2021-03-01T15:24:40Z</time>
      </trkpt>
      <trkpt lat="46.74462" lon="5.73138">
        <ele>555.8</ele>
        <time>2021-03-01T15:24:46Z</time>
      </trkpt>
      <trkpt lat="46.74466" lon="5.73142">
        <ele>556.1</ele>
        <time>2021-03-01T15:24:50Z</time>
      </trkpt>
      <trkpt lat="46.74472" lon="5.73144">
        <ele>557.1</ele>
        <time>2021-03-01T15:24:54Z</time>
      </trkpt>
      <trkpt lat="46.74478" lon="5.73144">
        <ele>558.3</ele>
        <time>2021-03-01T15:24:58Z</time>
      </trkpt>
      <trkpt lat="46.74483" lon="5.73144">
        <ele>559.3</ele>
        <time>2021-03-01T15:25:02Z</time>
      </trkpt>
      <trkpt lat="46.74489" lon="5.73143">
        <ele>560.2</ele>
        <time>2021-03-01T15:25:06Z</time>
      </trkpt>
      <trkpt lat="46.74494" lon="5.73145">
        <ele>560.9</ele>
        <time>2021-03-01T15:25:10Z</time>
      </trkpt>
      <trkpt lat="46.74499" lon="5.73147">
        <ele>561.7</ele>
        <time>2021-03-01T15:25:15Z</time>
      </trkpt>
      <trkpt lat="46.74503" lon="5.73148">
        <ele>561.7</ele>
        <time>2021-03-01T15:25:27Z</time>
      </trkpt>
      <trkpt lat="46.74508" lon="5.73148">
        <ele>561.5</ele>
        <time>2021-03-01T15:25:34Z</time>
      </trkpt>
      <trkpt lat="46.74512" lon="5.73148">
        <ele>561.4</ele>
        <time>2021-03-01T15:25:38Z</time>
      </trkpt>
      <trkpt lat="46.74517" lon="5.73148">
        <ele>561.6</ele>
        <time>2021-03-01T15:25:43Z</time>
      </trkpt>
      <trkpt lat="46.74522" lon="5.7315">
        <ele>561.6</ele>
        <time>2021-03-01T15:25:48Z</time>
      </trkpt>
      <trkpt lat="46.74527" lon="5.73151">
        <ele>561</ele>
        <time>2021-03-01T15:25:53Z</time>
      </trkpt>
      <trkpt lat="46.74532" lon="5.73155">
        <ele>560.3</ele>
        <time>2021-03-01T15:25:58Z</time>
      </trkpt>
      <trkpt lat="46.74536" lon="5.7316">
        <ele>558.9</ele>
        <time>2021-03-01T15:26:03Z</time>
      </trkpt>
      <trkpt lat="46.7454" lon="5.73164">
        <ele>557.8</ele>
        <time>2021-03-01T15:26:07Z</time>
      </trkpt>
      <trkpt lat="46.74544" lon="5.73169">
        <ele>557</ele>
        <time>2021-03-01T15:26:11Z</time>
      </trkpt>
      <trkpt lat="46.74548" lon="5.73173">
        <ele>556.1</ele>
        <time>2021-03-01T15:26:16Z</time>
      </trkpt>
      <trkpt lat="46.74552" lon="5.73179">
        <ele>555</ele>
        <time>2021-03-01T15:26:21Z</time>
      </trkpt>
      <trkpt lat="46.74556" lon="5.73184">
        <ele>553.6</ele>
        <time>2021-03-01T15:26:26Z</time>
      </trkpt>
      <trkpt lat="46.7456" lon="5.73189">
        <ele>553</ele>
        <time>2021-03-01T15:26:31Z</time>
      </trkpt>
      <trkpt lat="46.74563" lon="5.73195">
        <ele>552.9</ele>
        <time>2021-03-01T15:26:36Z</time>
      </trkpt>
      <trkpt lat="46.74566" lon="5.732">
        <ele>552.9</ele>
        <time>2021-03-01T15:26:41Z</time>
      </trkpt>
      <trkpt lat="46.7457" lon="5.73206">
        <ele>553.4</ele>
        <time>2021-03-01T15:26:46Z</time>
      </trkpt>
      <trkpt lat="46.74572" lon="5.73212">
        <ele>554</ele>
        <time>2021-03-01T15:26:50Z</time>
      </trkpt>
      <trkpt lat="46.74575" lon="5.73218">
        <ele>554.7</ele>
        <time>2021-03-01T15:26:54Z</time>
      </trkpt>
      <trkpt lat="46.74579" lon="5.73223">
        <ele>555.5</ele>
        <time>2021-03-01T15:26:58Z</time>
      </trkpt>
      <trkpt lat="46.74582" lon="5.73226">
        <ele>556.6</ele>
        <time>2021-03-01T15:27:02Z</time>
      </trkpt>
      <trkpt lat="46.74586" lon="5.73231">
        <ele>558.1</ele>
        <time>2021-03-01T15:27:06Z</time>
      </trkpt>
      <trkpt lat="46.7459" lon="5.73237">
        <ele>559.1</ele>
        <time>2021-03-01T15:27:10Z</time>
      </trkpt>
      <trkpt lat="46.74592" lon="5.73243">
        <ele>559.9</ele>
        <time>2021-03-01T15:27:15Z</time>
      </trkpt>
      <trkpt lat="46.74596" lon="5.73249">
        <ele>560.5</ele>
        <time>2021-03-01T15:27:20Z</time>
      </trkpt>
      <trkpt lat="46.74599" lon="5.73254">
        <ele>560.6</ele>
        <time>2021-03-01T15:27:25Z</time>
      </trkpt>
      <trkpt lat="46.746" lon="5.73261">
        <ele>560</ele>
        <time>2021-03-01T15:27:29Z</time>
      </trkpt>
      <trkpt lat="46.74602" lon="5.73268">
        <ele>558.7</ele>
        <time>2021-03-01T15:27:34Z</time>
      </trkpt>
      <trkpt lat="46.74604" lon="5.73274">
        <ele>557.7</ele>
        <time>2021-03-01T15:27:40Z</time>
      </trkpt>
      <trkpt lat="46.74609" lon="5.73277">
        <ele>557</ele>
        <time>2021-03-01T15:27:53Z</time>
      </trkpt>
      <trkpt lat="46.74613" lon="5.73281">
        <ele>556.7</ele>
        <time>2021-03-01T15:28:05Z</time>
      </trkpt>
      <trkpt lat="46.74617" lon="5.73284">
        <ele>556.8</ele>
        <time>2021-03-01T15:28:10Z</time>
      </trkpt>
      <trkpt lat="46.74623" lon="5.73285">
        <ele>557.4</ele>
        <time>2021-03-01T15:28:14Z</time>
      </trkpt>
      <trkpt lat="46.7463" lon="5.73286">
        <ele>558.6</ele>
        <time>2021-03-01T15:28:18Z</time>
      </trkpt>
      <trkpt lat="46.74634" lon="5.73287">
        <ele>559.7</ele>
        <time>2021-03-01T15:28:22Z</time>
      </trkpt>
      <trkpt lat="46.7464" lon="5.73288">
        <ele>561.5</ele>
        <time>2021-03-01T15:28:28Z</time>
      </trkpt>
      <trkpt lat="46.74645" lon="5.73288">
        <ele>562.7</ele>
        <time>2021-03-01T15:28:33Z</time>
      </trkpt>
      <trkpt lat="46.7465" lon="5.73288">
        <ele>563.7</ele>
        <time>2021-03-01T15:28:39Z</time>
      </trkpt>
      <trkpt lat="46.74655" lon="5.73289">
        <ele>564</ele>
        <time>2021-03-01T15:28:45Z</time>
      </trkpt>
      <trkpt lat="46.74655" lon="5.73296">
        <ele>562.4</ele>
        <time>2021-03-01T15:28:51Z</time>
      </trkpt>
      <trkpt lat="46.74654" lon="5.73303">
        <ele>559.4</ele>
        <time>2021-03-01T15:29:16Z</time>
      </trkpt>
      <trkpt lat="46.74654" lon="5.73309">
        <ele>558.7</ele>
        <time>2021-03-01T15:29:20Z</time>
      </trkpt>
      <trkpt lat="46.74655" lon="5.73317">
        <ele>557.5</ele>
        <time>2021-03-01T15:29:25Z</time>
      </trkpt>
      <trkpt lat="46.74656" lon="5.73324">
        <ele>556.6</ele>
        <time>2021-03-01T15:29:35Z</time>
      </trkpt>
      <trkpt lat="46.74656" lon="5.73331">
        <ele>556.3</ele>
        <time>2021-03-01T15:29:39Z</time>
      </trkpt>
      <trkpt lat="46.74656" lon="5.73338">
        <ele>556.2</ele>
        <time>2021-03-01T15:29:44Z</time>
      </trkpt>
      <trkpt lat="46.74656" lon="5.73345">
        <ele>556.2</ele>
        <time>2021-03-01T15:29:49Z</time>
      </trkpt>
      <trkpt lat="46.74657" lon="5.73353">
        <ele>556.4</ele>
        <time>2021-03-01T15:29:53Z</time>
      </trkpt>
      <trkpt lat="46.74657" lon="5.73359">
        <ele>556.5</ele>
        <time>2021-03-01T15:29:59Z</time>
      </trkpt>
      <trkpt lat="46.74657" lon="5.73367">
        <ele>556.7</ele>
        <time>2021-03-01T15:30:04Z</time>
      </trkpt>
      <trkpt lat="46.74656" lon="5.73374">
        <ele>556.7</ele>
        <time>2021-03-01T15:30:09Z</time>
      </trkpt>
      <trkpt lat="46.74656" lon="5.73382">
        <ele>556.1</ele>
        <time>2021-03-01T15:30:14Z</time>
      </trkpt>
      <trkpt lat="46.74656" lon="5.73389">
        <ele>554.4</ele>
        <time>2021-03-01T15:30:19Z</time>
      </trkpt>
      <trkpt lat="46.74657" lon="5.73396">
        <ele>553</ele>
        <time>2021-03-01T15:30:24Z</time>
      </trkpt>
      <trkpt lat="46.74659" lon="5.73403">
        <ele>552</ele>
        <time>2021-03-01T15:30:29Z</time>
      </trkpt>
      <trkpt lat="46.74661" lon="5.7341">
        <ele>550.8</ele>
        <time>2021-03-01T15:30:34Z</time>
      </trkpt>
      <trkpt lat="46.74662" lon="5.73416">
        <ele>549.8</ele>
        <time>2021-03-01T15:30:39Z</time>
      </trkpt>
      <trkpt lat="46.74665" lon="5.73423">
        <ele>549.4</ele>
        <time>2021-03-01T15:30:45Z</time>
      </trkpt>
      <trkpt lat="46.74667" lon="5.73429">
        <ele>549.4</ele>
        <time>2021-03-01T15:30:49Z</time>
      </trkpt>
      <trkpt lat="46.74669" lon="5.73436">
        <ele>549.7</ele>
        <time>2021-03-01T15:30:53Z</time>
      </trkpt>
      <trkpt lat="46.74671" lon="5.73444">
        <ele>550.4</ele>
        <time>2021-03-01T15:30:58Z</time>
      </trkpt>
      <trkpt lat="46.74673" lon="5.7345">
        <ele>550.9</ele>
        <time>2021-03-01T15:31:02Z</time>
      </trkpt>
      <trkpt lat="46.74675" lon="5.73457">
        <ele>551.5</ele>
        <time>2021-03-01T15:31:06Z</time>
      </trkpt>
      <trkpt lat="46.74676" lon="5.73464">
        <ele>552.1</ele>
        <time>2021-03-01T15:31:10Z</time>
      </trkpt>
      <trkpt lat="46.74678" lon="5.73472">
        <ele>552.4</ele>
        <time>2021-03-01T15:31:15Z</time>
      </trkpt>
      <trkpt lat="46.7468" lon="5.73478">
        <ele>553.6</ele>
        <time>2021-03-01T15:31:20Z</time>
      </trkpt>
      <trkpt lat="46.74683" lon="5.73485">
        <ele>556.5</ele>
        <time>2021-03-01T15:31:42Z</time>
      </trkpt>
      <trkpt lat="46.74684" lon="5.73492">
        <ele>556.9</ele>
        <time>2021-03-01T15:31:46Z</time>
      </trkpt>
      <trkpt lat="46.74684" lon="5.73499">
        <ele>557.2</ele>
        <time>2021-03-01T15:31:50Z</time>
      </trkpt>
      <trkpt lat="46.74684" lon="5.73505">
        <ele>557.8</ele>
        <time>2021-03-01T15:31:57Z</time>
      </trkpt>
      <trkpt lat="46.74681" lon="5.73511">
        <ele>559.3</ele>
        <time>2021-03-01T15:32:10Z</time>
      </trkpt>
      <trkpt lat="46.74681" lon="5.73518">
        <ele>559.3</ele>
        <time>2021-03-01T15:32:15Z</time>
      </trkpt>
      <trkpt lat="46.74681" lon="5.73526">
        <ele>559.2</ele>
        <time>2021-03-01T15:32:20Z</time>
      </trkpt>
      <trkpt lat="46.74678" lon="5.73532">
        <ele>559.8</ele>
        <time>2021-03-01T15:32:43Z</time>
      </trkpt>
      <trkpt lat="46.74678" lon="5.73539">
        <ele>559.3</ele>
        <time>2021-03-01T15:32:49Z</time>
      </trkpt>
      <trkpt lat="46.74676" lon="5.73545">
        <ele>559.4</ele>
        <time>2021-03-01T15:32:54Z</time>
      </trkpt>
      <trkpt lat="46.74674" lon="5.73552">
        <ele>559.2</ele>
        <time>2021-03-01T15:33:33Z</time>
      </trkpt>
      <trkpt lat="46.74673" lon="5.73559">
        <ele>558.8</ele>
        <time>2021-03-01T15:33:38Z</time>
      </trkpt>
      <trkpt lat="46.74675" lon="5.73566">
        <ele>558.1</ele>
        <time>2021-03-01T15:33:45Z</time>
      </trkpt>
      <trkpt lat="46.74676" lon="5.73574">
        <ele>557.8</ele>
        <time>2021-03-01T15:33:50Z</time>
      </trkpt>
      <trkpt lat="46.74676" lon="5.73581">
        <ele>557.5</ele>
        <time>2021-03-01T15:33:55Z</time>
      </trkpt>
      <trkpt lat="46.74675" lon="5.73589">
        <ele>557.3</ele>
        <time>2021-03-01T15:33:59Z</time>
      </trkpt>
      <trkpt lat="46.74675" lon="5.73596">
        <ele>557.1</ele>
        <time>2021-03-01T15:34:03Z</time>
      </trkpt>
      <trkpt lat="46.74676" lon="5.73603">
        <ele>557.1</ele>
        <time>2021-03-01T15:34:07Z</time>
      </trkpt>
      <trkpt lat="46.74676" lon="5.73611">
        <ele>556.5</ele>
        <time>2021-03-01T15:34:12Z</time>
      </trkpt>
      <trkpt lat="46.74675" lon="5.73618">
        <ele>555.8</ele>
        <time>2021-03-01T15:34:16Z</time>
      </trkpt>
      <trkpt lat="46.74675" lon="5.73626">
        <ele>555.1</ele>
        <time>2021-03-01T15:34:21Z</time>
      </trkpt>
      <trkpt lat="46.74676" lon="5.73632">
        <ele>555.4</ele>
        <time>2021-03-01T15:34:29Z</time>
      </trkpt>
      <trkpt lat="46.74675" lon="5.7364">
        <ele>555.2</ele>
        <time>2021-03-01T15:34:37Z</time>
      </trkpt>
      <trkpt lat="46.74675" lon="5.73646">
        <ele>554.7</ele>
        <time>2021-03-01T15:34:42Z</time>
      </trkpt>
      <trkpt lat="46.74674" lon="5.73654">
        <ele>554</ele>
        <time>2021-03-01T15:34:49Z</time>
      </trkpt>
      <trkpt lat="46.74674" lon="5.73661">
        <ele>553.4</ele>
        <time>2021-03-01T15:34:54Z</time>
      </trkpt>
      <trkpt lat="46.74674" lon="5.73669">
        <ele>552.9</ele>
        <time>2021-03-01T15:34:58Z</time>
      </trkpt>
      <trkpt lat="46.74675" lon="5.73677">
        <ele>552.4</ele>
        <time>2021-03-01T15:35:02Z</time>
      </trkpt>
      <trkpt lat="46.74676" lon="5.73684">
        <ele>552.2</ele>
        <time>2021-03-01T15:35:06Z</time>
      </trkpt>
      <trkpt lat="46.74677" lon="5.73691">
        <ele>552.4</ele>
        <time>2021-03-01T15:35:10Z</time>
      </trkpt>
      <trkpt lat="46.74679" lon="5.73699">
        <ele>552.8</ele>
        <time>2021-03-01T15:35:15Z</time>
      </trkpt>
      <trkpt lat="46.74682" lon="5.73706">
        <ele>553.1</ele>
        <time>2021-03-01T15:35:20Z</time>
      </trkpt>
      <trkpt lat="46.74685" lon="5.73712">
        <ele>553.5</ele>
        <time>2021-03-01T15:35:24Z</time>
      </trkpt>
      <trkpt lat="46.74688" lon="5.73719">
        <ele>554.2</ele>
        <time>2021-03-01T15:35:29Z</time>
      </trkpt>
      <trkpt lat="46.74691" lon="5.73726">
        <ele>554.6</ele>
        <time>2021-03-01T15:35:33Z</time>
      </trkpt>
      <trkpt lat="46.74693" lon="5.73732">
        <ele>554.9</ele>
        <time>2021-03-01T15:35:37Z</time>
      </trkpt>
      <trkpt lat="46.74695" lon="5.73738">
        <ele>555.5</ele>
        <time>2021-03-01T15:35:42Z</time>
      </trkpt>
      <trkpt lat="46.74697" lon="5.73745">
        <ele>555.8</ele>
        <time>2021-03-01T15:35:48Z</time>
      </trkpt>
      <trkpt lat="46.74698" lon="5.73751">
        <ele>555.4</ele>
        <time>2021-03-01T15:35:58Z</time>
      </trkpt>
      <trkpt lat="46.747" lon="5.73757">
        <ele>555.6</ele>
        <time>2021-03-01T15:36:03Z</time>
      </trkpt>
      <trkpt lat="46.74703" lon="5.73764">
        <ele>555.6</ele>
        <time>2021-03-01T15:36:08Z</time>
      </trkpt>
      <trkpt lat="46.74705" lon="5.7377">
        <ele>555.3</ele>
        <time>2021-03-01T15:36:12Z</time>
      </trkpt>
      <trkpt lat="46.74707" lon="5.73776">
        <ele>554</ele>
        <time>2021-03-01T15:36:18Z</time>
      </trkpt>
      <trkpt lat="46.7471" lon="5.73783">
        <ele>552.6</ele>
        <time>2021-03-01T15:36:25Z</time>
      </trkpt>
      <trkpt lat="46.74714" lon="5.73789">
        <ele>551.2</ele>
        <time>2021-03-01T15:36:30Z</time>
      </trkpt>
      <trkpt lat="46.74717" lon="5.73794">
        <ele>550.4</ele>
        <time>2021-03-01T15:36:34Z</time>
      </trkpt>
      <trkpt lat="46.74719" lon="5.73801">
        <ele>549.5</ele>
        <time>2021-03-01T15:36:40Z</time>
      </trkpt>
      <trkpt lat="46.74721" lon="5.73807">
        <ele>548.8</ele>
        <time>2021-03-01T15:36:45Z</time>
      </trkpt>
      <trkpt lat="46.74724" lon="5.73815">
        <ele>549.2</ele>
        <time>2021-03-01T15:36:49Z</time>
      </trkpt>
      <trkpt lat="46.74728" lon="5.73823">
        <ele>549.8</ele>
        <time>2021-03-01T15:36:53Z</time>
      </trkpt>
      <trkpt lat="46.74731" lon="5.7383">
        <ele>550.6</ele>
        <time>2021-03-01T15:36:57Z</time>
      </trkpt>
      <trkpt lat="46.74734" lon="5.73837">
        <ele>550.6</ele>
        <time>2021-03-01T15:37:01Z</time>
      </trkpt>
      <trkpt lat="46.74738" lon="5.73843">
        <ele>550.3</ele>
        <time>2021-03-01T15:37:05Z</time>
      </trkpt>
      <trkpt lat="46.74741" lon="5.73849">
        <ele>550.2</ele>
        <time>2021-03-01T15:37:09Z</time>
      </trkpt>
      <trkpt lat="46.74743" lon="5.73856">
        <ele>549.9</ele>
        <time>2021-03-01T15:37:14Z</time>
      </trkpt>
      <trkpt lat="46.74744" lon="5.73862">
        <ele>549.4</ele>
        <time>2021-03-01T15:37:19Z</time>
      </trkpt>
      <trkpt lat="46.74747" lon="5.7387">
        <ele>549.3</ele>
        <time>2021-03-01T15:37:24Z</time>
      </trkpt>
      <trkpt lat="46.74749" lon="5.73876">
        <ele>549.5</ele>
        <time>2021-03-01T15:37:28Z</time>
      </trkpt>
      <trkpt lat="46.74752" lon="5.73884">
        <ele>550</ele>
        <time>2021-03-01T15:37:32Z</time>
      </trkpt>
      <trkpt lat="46.74754" lon="5.73891">
        <ele>550.6</ele>
        <time>2021-03-01T15:37:36Z</time>
      </trkpt>
      <trkpt lat="46.74756" lon="5.73898">
        <ele>550.8</ele>
        <time>2021-03-01T15:37:40Z</time>
      </trkpt>
      <trkpt lat="46.74758" lon="5.73905">
        <ele>551.2</ele>
        <time>2021-03-01T15:37:44Z</time>
      </trkpt>
      <trkpt lat="46.7476" lon="5.73912">
        <ele>551.6</ele>
        <time>2021-03-01T15:37:49Z</time>
      </trkpt>
      <trkpt lat="46.74762" lon="5.73919">
        <ele>551.6</ele>
        <time>2021-03-01T15:37:54Z</time>
      </trkpt>
      <trkpt lat="46.74764" lon="5.73926">
        <ele>551.5</ele>
        <time>2021-03-01T15:37:59Z</time>
      </trkpt>
      <trkpt lat="46.74766" lon="5.73932">
        <ele>551.7</ele>
        <time>2021-03-01T15:38:03Z</time>
      </trkpt>
      <trkpt lat="46.74767" lon="5.73938">
        <ele>552.1</ele>
        <time>2021-03-01T15:38:07Z</time>
      </trkpt>
      <trkpt lat="46.74769" lon="5.73945">
        <ele>552</ele>
        <time>2021-03-01T15:38:11Z</time>
      </trkpt>
      <trkpt lat="46.74771" lon="5.73951">
        <ele>551.4</ele>
        <time>2021-03-01T15:38:16Z</time>
      </trkpt>
      <trkpt lat="46.74773" lon="5.73958">
        <ele>551</ele>
        <time>2021-03-01T15:38:21Z</time>
      </trkpt>
      <trkpt lat="46.74775" lon="5.73964">
        <ele>550.7</ele>
        <time>2021-03-01T15:38:25Z</time>
      </trkpt>
      <trkpt lat="46.74778" lon="5.73971">
        <ele>550.9</ele>
        <time>2021-03-01T15:38:29Z</time>
      </trkpt>
      <trkpt lat="46.74781" lon="5.73978">
        <ele>551.1</ele>
        <time>2021-03-01T15:38:33Z</time>
      </trkpt>
      <trkpt lat="46.74783" lon="5.73984">
        <ele>551.1</ele>
        <time>2021-03-01T15:38:38Z</time>
      </trkpt>
      <trkpt lat="46.74785" lon="5.7399">
        <ele>550.8</ele>
        <time>2021-03-01T15:38:42Z</time>
      </trkpt>
      <trkpt lat="46.74787" lon="5.73998">
        <ele>550.4</ele>
        <time>2021-03-01T15:38:47Z</time>
      </trkpt>
      <trkpt lat="46.74789" lon="5.74004">
        <ele>550.5</ele>
        <time>2021-03-01T15:38:51Z</time>
      </trkpt>
      <trkpt lat="46.74792" lon="5.74011">
        <ele>550.8</ele>
        <time>2021-03-01T15:38:55Z</time>
      </trkpt>
      <trkpt lat="46.74794" lon="5.74018">
        <ele>551</ele>
        <time>2021-03-01T15:38:59Z</time>
      </trkpt>
      <trkpt lat="46.74796" lon="5.74024">
        <ele>551.1</ele>
        <time>2021-03-01T15:39:03Z</time>
      </trkpt>
      <trkpt lat="46.74797" lon="5.74031">
        <ele>551</ele>
        <time>2021-03-01T15:39:07Z</time>
      </trkpt>
      <trkpt lat="46.74798" lon="5.74039">
        <ele>550.8</ele>
        <time>2021-03-01T15:39:11Z</time>
      </trkpt>
      <trkpt lat="46.74799" lon="5.74045">
        <ele>550.5</ele>
        <time>2021-03-01T15:39:17Z</time>
      </trkpt>
      <trkpt lat="46.74802" lon="5.74051">
        <ele>550.4</ele>
        <time>2021-03-01T15:39:22Z</time>
      </trkpt>
      <trkpt lat="46.74804" lon="5.74059">
        <ele>550.3</ele>
        <time>2021-03-01T15:39:28Z</time>
      </trkpt>
      <trkpt lat="46.74806" lon="5.74065">
        <ele>550.3</ele>
        <time>2021-03-01T15:39:32Z</time>
      </trkpt>
      <trkpt lat="46.74808" lon="5.74072">
        <ele>550.3</ele>
        <time>2021-03-01T15:39:36Z</time>
      </trkpt>
      <trkpt lat="46.7481" lon="5.74078">
        <ele>550.3</ele>
        <time>2021-03-01T15:39:41Z</time>
      </trkpt>
      <trkpt lat="46.74813" lon="5.74084">
        <ele>550.8</ele>
        <time>2021-03-01T15:39:45Z</time>
      </trkpt>
      <trkpt lat="46.74815" lon="5.7409">
        <ele>551.9</ele>
        <time>2021-03-01T15:39:49Z</time>
      </trkpt>
      <trkpt lat="46.74818" lon="5.74096">
        <ele>554.3</ele>
        <time>2021-03-01T15:40:58Z</time>
      </trkpt>
      <trkpt lat="46.7482" lon="5.74104">
        <ele>554.3</ele>
        <time>2021-03-01T15:41:02Z</time>
      </trkpt>
      <trkpt lat="46.74822" lon="5.74112">
        <ele>554.9</ele>
        <time>2021-03-01T15:41:06Z</time>
      </trkpt>
      <trkpt lat="46.74825" lon="5.74119">
        <ele>554.7</ele>
        <time>2021-03-01T15:41:12Z</time>
      </trkpt>
      <trkpt lat="46.74825" lon="5.74125">
        <ele>554.1</ele>
        <time>2021-03-01T15:41:17Z</time>
      </trkpt>
      <trkpt lat="46.74826" lon="5.74133">
        <ele>554</ele>
        <time>2021-03-01T15:41:21Z</time>
      </trkpt>
      <trkpt lat="46.74828" lon="5.74141">
        <ele>554.1</ele>
        <time>2021-03-01T15:41:25Z</time>
      </trkpt>
      <trkpt lat="46.74829" lon="5.74148">
        <ele>554.6</ele>
        <time>2021-03-01T15:41:29Z</time>
      </trkpt>
      <trkpt lat="46.7483" lon="5.74155">
        <ele>555</ele>
        <time>2021-03-01T15:41:34Z</time>
      </trkpt>
      <trkpt lat="46.74831" lon="5.74162">
        <ele>555.4</ele>
        <time>2021-03-01T15:41:39Z</time>
      </trkpt>
      <trkpt lat="46.74833" lon="5.74168">
        <ele>555.6</ele>
        <time>2021-03-01T15:41:44Z</time>
      </trkpt>
      <trkpt lat="46.74836" lon="5.74174">
        <ele>556.1</ele>
        <time>2021-03-01T15:41:48Z</time>
      </trkpt>
      <trkpt lat="46.7484" lon="5.74179">
        <ele>557.2</ele>
        <time>2021-03-01T15:41:52Z</time>
      </trkpt>
      <trkpt lat="46.74844" lon="5.74181">
        <ele>558.6</ele>
        <time>2021-03-01T15:41:56Z</time>
      </trkpt>
      <trkpt lat="46.7485" lon="5.74182">
        <ele>560.5</ele>
        <time>2021-03-01T15:42:00Z</time>
      </trkpt>
      <trkpt lat="46.74855" lon="5.74181">
        <ele>562.3</ele>
        <time>2021-03-01T15:42:05Z</time>
      </trkpt>
      <trkpt lat="46.7486" lon="5.74179">
        <ele>563.5</ele>
        <time>2021-03-01T15:42:10Z</time>
      </trkpt>
      <trkpt lat="46.74865" lon="5.74178">
        <ele>564.7</ele>
        <time>2021-03-01T15:42:14Z</time>
      </trkpt>
      <trkpt lat="46.74869" lon="5.74176">
        <ele>565.8</ele>
        <time>2021-03-01T15:42:18Z</time>
      </trkpt>
      <trkpt lat="46.74874" lon="5.74173">
        <ele>566</ele>
        <time>2021-03-01T15:42:22Z</time>
      </trkpt>
      <trkpt lat="46.74878" lon="5.7417">
        <ele>565.9</ele>
        <time>2021-03-01T15:42:27Z</time>
      </trkpt>
      <trkpt lat="46.74882" lon="5.74167">
        <ele>566.1</ele>
        <time>2021-03-01T15:42:31Z</time>
      </trkpt>
      <trkpt lat="46.74887" lon="5.74163">
        <ele>565.8</ele>
        <time>2021-03-01T15:42:36Z</time>
      </trkpt>
      <trkpt lat="46.7489" lon="5.74158">
        <ele>565.6</ele>
        <time>2021-03-01T15:42:41Z</time>
      </trkpt>
      <trkpt lat="46.74895" lon="5.74154">
        <ele>565.4</ele>
        <time>2021-03-01T15:42:46Z</time>
      </trkpt>
      <trkpt lat="46.74899" lon="5.74149">
        <ele>564.9</ele>
        <time>2021-03-01T15:42:51Z</time>
      </trkpt>
      <trkpt lat="46.74903" lon="5.74144">
        <ele>564.4</ele>
        <time>2021-03-01T15:42:56Z</time>
      </trkpt>
      <trkpt lat="46.74908" lon="5.74144">
        <ele>564.5</ele>
        <time>2021-03-01T15:43:01Z</time>
      </trkpt>
      <trkpt lat="46.74913" lon="5.74146">
        <ele>564.6</ele>
        <time>2021-03-01T15:43:05Z</time>
      </trkpt>
      <trkpt lat="46.74917" lon="5.7415">
        <ele>564.2</ele>
        <time>2021-03-01T15:43:09Z</time>
      </trkpt>
      <trkpt lat="46.74921" lon="5.74153">
        <ele>564.3</ele>
        <time>2021-03-01T15:43:15Z</time>
      </trkpt>
      <trkpt lat="46.74924" lon="5.74159">
        <ele>564.6</ele>
        <time>2021-03-01T15:43:19Z</time>
      </trkpt>
      <trkpt lat="46.74927" lon="5.74164">
        <ele>564.3</ele>
        <time>2021-03-01T15:43:23Z</time>
      </trkpt>
      <trkpt lat="46.74931" lon="5.74171">
        <ele>564.5</ele>
        <time>2021-03-01T15:43:28Z</time>
      </trkpt>
      <trkpt lat="46.74937" lon="5.74176">
        <ele>564.6</ele>
        <time>2021-03-01T15:43:32Z</time>
      </trkpt>
      <trkpt lat="46.74942" lon="5.74179">
        <ele>564.5</ele>
        <time>2021-03-01T15:43:38Z</time>
      </trkpt>
      <trkpt lat="46.74946" lon="5.74183">
        <ele>562.4</ele>
        <time>2021-03-01T15:43:43Z</time>
      </trkpt>
      <trkpt lat="46.74953" lon="5.74187">
        <ele>560.7</ele>
        <time>2021-03-01T15:43:47Z</time>
      </trkpt>
      <trkpt lat="46.74959" lon="5.74191">
        <ele>560.2</ele>
        <time>2021-03-01T15:43:51Z</time>
      </trkpt>
      <trkpt lat="46.74963" lon="5.74196">
        <ele>559.8</ele>
        <time>2021-03-01T15:43:55Z</time>
      </trkpt>
      <trkpt lat="46.74967" lon="5.74199">
        <ele>560</ele>
        <time>2021-03-01T15:44:00Z</time>
      </trkpt>
      <trkpt lat="46.74971" lon="5.74202">
        <ele>560.7</ele>
        <time>2021-03-01T15:44:04Z</time>
      </trkpt>
      <trkpt lat="46.74975" lon="5.74206">
        <ele>558.5</ele>
        <time>2021-03-01T15:44:12Z</time>
      </trkpt>
      <trkpt lat="46.74979" lon="5.74211">
        <ele>556.1</ele>
        <time>2021-03-01T15:44:17Z</time>
      </trkpt>
      <trkpt lat="46.74984" lon="5.74217">
        <ele>555.2</ele>
        <time>2021-03-01T15:44:21Z</time>
      </trkpt>
      <trkpt lat="46.7499" lon="5.74223">
        <ele>556.4</ele>
        <time>2021-03-01T15:44:25Z</time>
      </trkpt>
      <trkpt lat="46.74996" lon="5.74227">
        <ele>558</ele>
        <time>2021-03-01T15:44:29Z</time>
      </trkpt>
      <trkpt lat="46.75002" lon="5.7423">
        <ele>560.1</ele>
        <time>2021-03-01T15:44:33Z</time>
      </trkpt>
      <trkpt lat="46.75007" lon="5.74235">
        <ele>562</ele>
        <time>2021-03-01T15:44:37Z</time>
      </trkpt>
      <trkpt lat="46.75011" lon="5.74238">
        <ele>563.9</ele>
        <time>2021-03-01T15:44:41Z</time>
      </trkpt>
      <trkpt lat="46.75015" lon="5.74243">
        <ele>566.1</ele>
        <time>2021-03-01T15:44:46Z</time>
      </trkpt>
      <trkpt lat="46.75019" lon="5.74246">
        <ele>567.3</ele>
        <time>2021-03-01T15:44:51Z</time>
      </trkpt>
      <trkpt lat="46.75024" lon="5.74249">
        <ele>567.4</ele>
        <time>2021-03-01T15:44:56Z</time>
      </trkpt>
      <trkpt lat="46.75027" lon="5.74254">
        <ele>567.3</ele>
        <time>2021-03-01T15:45:01Z</time>
      </trkpt>
      <trkpt lat="46.75033" lon="5.74256">
        <ele>567.5</ele>
        <time>2021-03-01T15:45:06Z</time>
      </trkpt>
      <trkpt lat="46.75037" lon="5.74258">
        <ele>567.5</ele>
        <time>2021-03-01T15:45:10Z</time>
      </trkpt>
      <trkpt lat="46.75042" lon="5.74262">
        <ele>566</ele>
        <time>2021-03-01T15:45:16Z</time>
      </trkpt>
      <trkpt lat="46.75047" lon="5.74265">
        <ele>563.7</ele>
        <time>2021-03-01T15:45:23Z</time>
      </trkpt>
      <trkpt lat="46.75052" lon="5.74266">
        <ele>562.9</ele>
        <time>2021-03-01T15:45:27Z</time>
      </trkpt>
      <trkpt lat="46.75057" lon="5.74266">
        <ele>562</ele>
        <time>2021-03-01T15:45:33Z</time>
      </trkpt>
      <trkpt lat="46.75062" lon="5.74269">
        <ele>561.6</ele>
        <time>2021-03-01T15:45:38Z</time>
      </trkpt>
      <trkpt lat="46.75067" lon="5.74271">
        <ele>561.5</ele>
        <time>2021-03-01T15:45:42Z</time>
      </trkpt>
      <trkpt lat="46.75072" lon="5.74272">
        <ele>561.1</ele>
        <time>2021-03-01T15:45:47Z</time>
      </trkpt>
      <trkpt lat="46.75078" lon="5.74274">
        <ele>560.8</ele>
        <time>2021-03-01T15:45:51Z</time>
      </trkpt>
      <trkpt lat="46.75083" lon="5.74275">
        <ele>560.1</ele>
        <time>2021-03-01T15:45:55Z</time>
      </trkpt>
      <trkpt lat="46.75088" lon="5.74274">
        <ele>559.6</ele>
        <time>2021-03-01T15:45:59Z</time>
      </trkpt>
      <trkpt lat="46.75094" lon="5.74275">
        <ele>558.9</ele>
        <time>2021-03-01T15:46:05Z</time>
      </trkpt>
      <trkpt lat="46.75099" lon="5.74273">
        <ele>557.8</ele>
        <time>2021-03-01T15:46:10Z</time>
      </trkpt>
      <trkpt lat="46.75104" lon="5.74272">
        <ele>557.5</ele>
        <time>2021-03-01T15:46:14Z</time>
      </trkpt>
      <trkpt lat="46.75109" lon="5.74272">
        <ele>557.4</ele>
        <time>2021-03-01T15:46:18Z</time>
      </trkpt>
      <trkpt lat="46.75114" lon="5.74271">
        <ele>557.6</ele>
        <time>2021-03-01T15:46:22Z</time>
      </trkpt>
      <trkpt lat="46.75119" lon="5.7427">
        <ele>557.9</ele>
        <time>2021-03-01T15:46:26Z</time>
      </trkpt>
      <trkpt lat="46.75124" lon="5.7427">
        <ele>558.3</ele>
        <time>2021-03-01T15:46:30Z</time>
      </trkpt>
      <trkpt lat="46.75129" lon="5.7427">
        <ele>558.9</ele>
        <time>2021-03-01T15:46:35Z</time>
      </trkpt>
      <trkpt lat="46.75134" lon="5.74271">
        <ele>559.3</ele>
        <time>2021-03-01T15:46:39Z</time>
      </trkpt>
      <trkpt lat="46.75139" lon="5.7427">
        <ele>559.2</ele>
        <time>2021-03-01T15:46:44Z</time>
      </trkpt>
      <trkpt lat="46.75144" lon="5.74269">
        <ele>558.6</ele>
        <time>2021-03-01T15:46:51Z</time>
      </trkpt>
      <trkpt lat="46.75148" lon="5.74266">
        <ele>558.1</ele>
        <time>2021-03-01T15:46:56Z</time>
      </trkpt>
      <trkpt lat="46.75153" lon="5.74264">
        <ele>557.1</ele>
        <time>2021-03-01T15:47:01Z</time>
      </trkpt>
      <trkpt lat="46.75158" lon="5.74261">
        <ele>556</ele>
        <time>2021-03-01T15:47:06Z</time>
      </trkpt>
      <trkpt lat="46.75163" lon="5.74262">
        <ele>555.2</ele>
        <time>2021-03-01T15:47:10Z</time>
      </trkpt>
      <trkpt lat="46.75168" lon="5.74263">
        <ele>554.4</ele>
        <time>2021-03-01T15:47:14Z</time>
      </trkpt>
      <trkpt lat="46.75172" lon="5.74263">
        <ele>553.6</ele>
        <time>2021-03-01T15:47:18Z</time>
      </trkpt>
      <trkpt lat="46.75177" lon="5.74263">
        <ele>552.6</ele>
        <time>2021-03-01T15:47:22Z</time>
      </trkpt>
      <trkpt lat="46.75182" lon="5.74263">
        <ele>551.8</ele>
        <time>2021-03-01T15:47:26Z</time>
      </trkpt>
      <trkpt lat="46.75187" lon="5.74262">
        <ele>551.3</ele>
        <time>2021-03-01T15:47:30Z</time>
      </trkpt>
      <trkpt lat="46.75192" lon="5.74261">
        <ele>550.9</ele>
        <time>2021-03-01T15:47:34Z</time>
      </trkpt>
      <trkpt lat="46.75197" lon="5.74263">
        <ele>550.9</ele>
        <time>2021-03-01T15:47:39Z</time>
      </trkpt>
      <trkpt lat="46.75202" lon="5.74263">
        <ele>550.5</ele>
        <time>2021-03-01T15:47:44Z</time>
      </trkpt>
      <trkpt lat="46.75207" lon="5.74266">
        <ele>550.2</ele>
        <time>2021-03-01T15:47:49Z</time>
      </trkpt>
      <trkpt lat="46.75212" lon="5.74269">
        <ele>550.2</ele>
        <time>2021-03-01T15:47:53Z</time>
      </trkpt>
      <trkpt lat="46.75217" lon="5.74271">
        <ele>550.1</ele>
        <time>2021-03-01T15:47:57Z</time>
      </trkpt>
      <trkpt lat="46.75222" lon="5.74272">
        <ele>549.9</ele>
        <time>2021-03-01T15:48:02Z</time>
      </trkpt>
      <trkpt lat="46.75226" lon="5.7427">
        <ele>549.7</ele>
        <time>2021-03-01T15:48:18Z</time>
      </trkpt>
      <trkpt lat="46.75231" lon="5.74269">
        <ele>548</ele>
        <time>2021-03-01T15:48:26Z</time>
      </trkpt>
      <trkpt lat="46.75236" lon="5.74268">
        <ele>546.6</ele>
        <time>2021-03-01T15:48:32Z</time>
      </trkpt>
      <trkpt lat="46.75241" lon="5.74268">
        <ele>545.9</ele>
        <time>2021-03-01T15:48:36Z</time>
      </trkpt>
      <trkpt lat="46.75246" lon="5.74268">
        <ele>546.1</ele>
        <time>2021-03-01T15:48:40Z</time>
      </trkpt>
      <trkpt lat="46.75251" lon="5.74267">
        <ele>546.5</ele>
        <time>2021-03-01T15:48:45Z</time>
      </trkpt>
      <trkpt lat="46.75256" lon="5.74265">
        <ele>547.3</ele>
        <time>2021-03-01T15:48:50Z</time>
      </trkpt>
      <trkpt lat="46.75261" lon="5.74264">
        <ele>548.1</ele>
        <time>2021-03-01T15:48:54Z</time>
      </trkpt>
      <trkpt lat="46.75266" lon="5.74262">
        <ele>549.2</ele>
        <time>2021-03-01T15:48:58Z</time>
      </trkpt>
      <trkpt lat="46.75271" lon="5.7426">
        <ele>550.9</ele>
        <time>2021-03-01T15:49:03Z</time>
      </trkpt>
      <trkpt lat="46.75276" lon="5.7426">
        <ele>552.2</ele>
        <time>2021-03-01T15:49:07Z</time>
      </trkpt>
      <trkpt lat="46.75281" lon="5.74259">
        <ele>554</ele>
        <time>2021-03-01T15:49:13Z</time>
      </trkpt>
      <trkpt lat="46.75286" lon="5.74259">
        <ele>555.4</ele>
        <time>2021-03-01T15:49:17Z</time>
      </trkpt>
      <trkpt lat="46.75293" lon="5.7426">
        <ele>557.1</ele>
        <time>2021-03-01T15:49:21Z</time>
      </trkpt>
      <trkpt lat="46.75299" lon="5.74261">
        <ele>558.1</ele>
        <time>2021-03-01T15:49:25Z</time>
      </trkpt>
      <trkpt lat="46.75305" lon="5.74262">
        <ele>558.4</ele>
        <time>2021-03-01T15:49:29Z</time>
      </trkpt>
      <trkpt lat="46.7531" lon="5.74262">
        <ele>558.2</ele>
        <time>2021-03-01T15:49:33Z</time>
      </trkpt>
      <trkpt lat="46.75315" lon="5.74265">
        <ele>557.5</ele>
        <time>2021-03-01T15:49:39Z</time>
      </trkpt>
      <trkpt lat="46.7532" lon="5.74268">
        <ele>553.4</ele>
        <time>2021-03-01T15:49:46Z</time>
      </trkpt>
      <trkpt lat="46.75324" lon="5.74272">
        <ele>550.1</ele>
        <time>2021-03-01T15:49:51Z</time>
      </trkpt>
      <trkpt lat="46.75327" lon="5.74277">
        <ele>547.8</ele>
        <time>2021-03-01T15:49:56Z</time>
      </trkpt>
      <trkpt lat="46.75332" lon="5.74282">
        <ele>546.6</ele>
        <time>2021-03-01T15:50:00Z</time>
      </trkpt>
      <trkpt lat="46.75335" lon="5.74288">
        <ele>545.2</ele>
        <time>2021-03-01T15:50:05Z</time>
      </trkpt>
      <trkpt lat="46.75339" lon="5.74293">
        <ele>544</ele>
        <time>2021-03-01T15:50:10Z</time>
      </trkpt>
      <trkpt lat="46.75342" lon="5.74298">
        <ele>543.7</ele>
        <time>2021-03-01T15:50:15Z</time>
      </trkpt>
      <trkpt lat="46.75344" lon="5.74304">
        <ele>544.1</ele>
        <time>2021-03-01T15:50:19Z</time>
      </trkpt>
      <trkpt lat="46.75348" lon="5.74307">
        <ele>544.3</ele>
        <time>2021-03-01T15:50:23Z</time>
      </trkpt>
      <trkpt lat="46.75351" lon="5.74313">
        <ele>543.6</ele>
        <time>2021-03-01T15:50:31Z</time>
      </trkpt>
      <trkpt lat="46.75356" lon="5.74317">
        <ele>543.8</ele>
        <time>2021-03-01T15:50:36Z</time>
      </trkpt>
      <trkpt lat="46.7536" lon="5.7432">
        <ele>544.5</ele>
        <time>2021-03-01T15:50:40Z</time>
      </trkpt>
      <trkpt lat="46.75364" lon="5.74324">
        <ele>545.1</ele>
        <time>2021-03-01T15:50:45Z</time>
      </trkpt>
      <trkpt lat="46.75369" lon="5.74326">
        <ele>544.8</ele>
        <time>2021-03-01T15:50:50Z</time>
      </trkpt>
      <trkpt lat="46.75374" lon="5.74328">
        <ele>544.5</ele>
        <time>2021-03-01T15:50:55Z</time>
      </trkpt>
      <trkpt lat="46.75378" lon="5.74329">
        <ele>544.3</ele>
        <time>2021-03-01T15:50:59Z</time>
      </trkpt>
      <trkpt lat="46.75383" lon="5.7433">
        <ele>544.2</ele>
        <time>2021-03-01T15:51:03Z</time>
      </trkpt>
      <trkpt lat="46.75389" lon="5.74331">
        <ele>543.8</ele>
        <time>2021-03-01T15:51:07Z</time>
      </trkpt>
      <trkpt lat="46.75394" lon="5.74332">
        <ele>543.8</ele>
        <time>2021-03-01T15:51:11Z</time>
      </trkpt>
      <trkpt lat="46.75398" lon="5.74334">
        <ele>544</ele>
        <time>2021-03-01T15:51:16Z</time>
      </trkpt>
      <trkpt lat="46.75404" lon="5.74334">
        <ele>543.7</ele>
        <time>2021-03-01T15:51:21Z</time>
      </trkpt>
      <trkpt lat="46.75408" lon="5.74335">
        <ele>543.6</ele>
        <time>2021-03-01T15:51:25Z</time>
      </trkpt>
      <trkpt lat="46.75413" lon="5.74336">
        <ele>543.6</ele>
        <time>2021-03-01T15:51:29Z</time>
      </trkpt>
      <trkpt lat="46.75418" lon="5.74335">
        <ele>544.1</ele>
        <time>2021-03-01T15:51:35Z</time>
      </trkpt>
      <trkpt lat="46.75423" lon="5.74335">
        <ele>544.8</ele>
        <time>2021-03-01T15:51:40Z</time>
      </trkpt>
      <trkpt lat="46.75428" lon="5.74333">
        <ele>545.5</ele>
        <time>2021-03-01T15:51:44Z</time>
      </trkpt>
      <trkpt lat="46.75435" lon="5.74336">
        <ele>545.4</ele>
        <time>2021-03-01T15:51:48Z</time>
      </trkpt>
      <trkpt lat="46.75442" lon="5.74341">
        <ele>546.2</ele>
        <time>2021-03-01T15:51:52Z</time>
      </trkpt>
      <trkpt lat="46.75447" lon="5.74345">
        <ele>547.5</ele>
        <time>2021-03-01T15:51:56Z</time>
      </trkpt>
      <trkpt lat="46.75452" lon="5.74349">
        <ele>549.3</ele>
        <time>2021-03-01T15:52:00Z</time>
      </trkpt>
      <trkpt lat="46.75457" lon="5.74353">
        <ele>551.3</ele>
        <time>2021-03-01T15:52:04Z</time>
      </trkpt>
      <trkpt lat="46.7546" lon="5.74357">
        <ele>553.3</ele>
        <time>2021-03-01T15:52:08Z</time>
      </trkpt>
      <trkpt lat="46.75463" lon="5.74364">
        <ele>555.2</ele>
        <time>2021-03-01T15:52:12Z</time>
      </trkpt>
      <trkpt lat="46.75462" lon="5.74374">
        <ele>556</ele>
        <time>2021-03-01T15:52:16Z</time>
      </trkpt>
      <trkpt lat="46.7546" lon="5.7438">
        <ele>555.6</ele>
        <time>2021-03-01T15:52:20Z</time>
      </trkpt>
      <trkpt lat="46.75456" lon="5.74385">
        <ele>554.6</ele>
        <time>2021-03-01T15:52:26Z</time>
      </trkpt>
      <trkpt lat="46.75452" lon="5.74393">
        <ele>553.7</ele>
        <time>2021-03-01T15:52:31Z</time>
      </trkpt>
      <trkpt lat="46.75452" lon="5.744">
        <ele>552.3</ele>
        <time>2021-03-01T15:52:36Z</time>
      </trkpt>
      <trkpt lat="46.7545" lon="5.74406">
        <ele>551.5</ele>
        <time>2021-03-01T15:52:40Z</time>
      </trkpt>
      <trkpt lat="46.7545" lon="5.74414">
        <ele>550.9</ele>
        <time>2021-03-01T15:52:44Z</time>
      </trkpt>
      <trkpt lat="46.75447" lon="5.74418">
        <ele>550.5</ele>
        <time>2021-03-01T15:52:51Z</time>
      </trkpt>
      <trkpt lat="46.75446" lon="5.74425">
        <ele>550</ele>
        <time>2021-03-01T15:52:57Z</time>
      </trkpt>
      <trkpt lat="46.75447" lon="5.74432">
        <ele>549.7</ele>
        <time>2021-03-01T15:53:01Z</time>
      </trkpt>
      <trkpt lat="46.7545" lon="5.7444">
        <ele>549.8</ele>
        <time>2021-03-01T15:53:05Z</time>
      </trkpt>
      <trkpt lat="46.75451" lon="5.74448">
        <ele>549.9</ele>
        <time>2021-03-01T15:53:09Z</time>
      </trkpt>
      <trkpt lat="46.75449" lon="5.74455">
        <ele>549.4</ele>
        <time>2021-03-01T15:53:14Z</time>
      </trkpt>
      <trkpt lat="46.75445" lon="5.74459">
        <ele>549.4</ele>
        <time>2021-03-01T15:53:18Z</time>
      </trkpt>
      <trkpt lat="46.7544" lon="5.74463">
        <ele>548.9</ele>
        <time>2021-03-01T15:53:24Z</time>
      </trkpt>
      <trkpt lat="46.75437" lon="5.74467">
        <ele>548.6</ele>
        <time>2021-03-01T15:53:29Z</time>
      </trkpt>
      <trkpt lat="46.75432" lon="5.7447">
        <ele>548.4</ele>
        <time>2021-03-01T15:53:33Z</time>
      </trkpt>
      <trkpt lat="46.75428" lon="5.74474">
        <ele>548</ele>
        <time>2021-03-01T15:53:37Z</time>
      </trkpt>
      <trkpt lat="46.75424" lon="5.74479">
        <ele>547.9</ele>
        <time>2021-03-01T15:53:42Z</time>
      </trkpt>
      <trkpt lat="46.75419" lon="5.74483">
        <ele>548.4</ele>
        <time>2021-03-01T15:53:46Z</time>
      </trkpt>
      <trkpt lat="46.75418" lon="5.7449">
        <ele>548.5</ele>
        <time>2021-03-01T15:53:50Z</time>
      </trkpt>
      <trkpt lat="46.7542" lon="5.74497">
        <ele>548.3</ele>
        <time>2021-03-01T15:53:54Z</time>
      </trkpt>
      <trkpt lat="46.7542" lon="5.74504">
        <ele>547.6</ele>
        <time>2021-03-01T15:53:59Z</time>
      </trkpt>
      <trkpt lat="46.75419" lon="5.7451">
        <ele>547.1</ele>
        <time>2021-03-01T15:54:04Z</time>
      </trkpt>
      <trkpt lat="46.75415" lon="5.74516">
        <ele>546.3</ele>
        <time>2021-03-01T15:54:08Z</time>
      </trkpt>
      <trkpt lat="46.75412" lon="5.74522">
        <ele>545.4</ele>
        <time>2021-03-01T15:54:12Z</time>
      </trkpt>
      <trkpt lat="46.75408" lon="5.74527">
        <ele>544.2</ele>
        <time>2021-03-01T15:54:18Z</time>
      </trkpt>
      <trkpt lat="46.75406" lon="5.74533">
        <ele>543</ele>
        <time>2021-03-01T15:54:23Z</time>
      </trkpt>
      <trkpt lat="46.75406" lon="5.7454">
        <ele>542.2</ele>
        <time>2021-03-01T15:54:28Z</time>
      </trkpt>
      <trkpt lat="46.75408" lon="5.74548">
        <ele>541.9</ele>
        <time>2021-03-01T15:54:32Z</time>
      </trkpt>
      <trkpt lat="46.75403" lon="5.74548">
        <ele>543.9</ele>
        <time>2021-03-01T15:54:51Z</time>
      </trkpt>
      <trkpt lat="46.75398" lon="5.74552">
        <ele>543.6</ele>
        <time>2021-03-01T15:54:56Z</time>
      </trkpt>
      <trkpt lat="46.75396" lon="5.74559">
        <ele>543.4</ele>
        <time>2021-03-01T15:55:00Z</time>
      </trkpt>
      <trkpt lat="46.75394" lon="5.74565">
        <ele>543.4</ele>
        <time>2021-03-01T15:55:05Z</time>
      </trkpt>
      <trkpt lat="46.75391" lon="5.74571">
        <ele>543.7</ele>
        <time>2021-03-01T15:55:10Z</time>
      </trkpt>
      <trkpt lat="46.75389" lon="5.74578">
        <ele>543.5</ele>
        <time>2021-03-01T15:55:14Z</time>
      </trkpt>
      <trkpt lat="46.75384" lon="5.7458">
        <ele>543</ele>
        <time>2021-03-01T15:55:23Z</time>
      </trkpt>
    </trkseg>
  </trk>
</gpx>